[[{"header":{"parameterUnit":"m.s-1","parameterCategory":1,"la1":30.6,"la2":28.766,"lo1":-90.7593,"lo2":-88.6598,"dy":0.0162,"dx":0.0183,"nx":116,"ny":114,"refTime":"2023-09-11T06:00:00:Z","depth":0,"parameterNumber":2,"parameterNumberName":"U-component_of_WINDS"},"data":[0.0,0.0,0.0,0.0,0.0,0.0,0.0,0.0,0.0,0.0,0.0,0.0,0.0,0.0,0.0,0.0,0.0,0.0,0.0,0.0,0.0,0.0,0.0,0.0,0.0,0.0,0.0,0.0,0.0,0.0,0.0,0.0,0.0,0.0,0.0,0.0,0.0,0.0,0.0,0.0,0.0,0.0,0.0,0.0,0.0,0.0,0.0,0.0,0.0,0.0,0.0,0.0,0.0,0.0,0.0,0.0,0.0,0.0,0.0,0.0,0.0,0.0,0.0,0.0,0.0,0.0,0.0,0.0,0.0,0.0,0.0,0.0,0.0,0.0,0.0,0.0,0.0,0.0,0.0,0.0,0.0,0.0,0.0,0.0,0.0,0.0,0.0,0.0,0.0,0.0,0.0,0.0,0.0,0.0,0.0,0.0,0.0,0.0,0.0,0.0,0.0,0.0,0.0,0.0,0.0,0.0,0.0,0.0,0.0,0.0,0.0,0.0,0.0,0.0,0.0,0.0,0.0,0.0,0.0,0.0,0.0,0.0,0.0,0.0,0.0,0.0,0.0,0.0,0.0,0.0,0.0,0.0,0.0,0.0,0.0,0.0,0.0,0.0,0.0,0.0,0.0,0.0,0.0,0.0,0.0,0.0,0.0,0.0,0.0,0.0,0.0,0.0,0.0,0.0,0.0,0.0,0.0,0.0,0.0,0.0,0.0,0.0,0.0,0.0,0.0,0.0,0.0,0.0,0.0,0.0,0.0,0.0,0.0,0.0,0.0,0.0,0.0,0.0,0.0,0.0,0.0,0.0,0.0,0.0,0.0,0.0,0.0,0.0,0.0,0.0,0.0,0.0,0.0,0.0,0.0,0.0,0.0,0.0,0.0,0.0,0.0,0.0,0.0,0.0,0.0,0.0,0.0,0.0,0.0,0.0,0.0,0.0,0.0,0.0,0.0,0.0,0.0,0.0,0.0,0.0,0.0,0.0,0.0,0.0,0.0,0.0,0.0,0.0,0.0,0.0,0.0,0.0,0.0,0.0,0.0,0.0,0.0,0.0,0.0,0.0,0.0,0.0,0.0,0.0,0.0,0.0,0.0,0.0,0.0,0.0,0.0,0.0,0.0,0.0,0.0,0.0,0.0,0.0,0.0,0.0,0.0,0.0,0.0,0.0,0.0,0.0,0.0,0.0,0.0,0.0,0.0,0.0,0.0,0.0,0.0,0.0,0.0,0.0,0.0,0.0,0.0,0.0,0.0,0.0,0.0,0.0,0.0,0.0,0.0,0.0,0.0,0.0,0.0,0.0,0.0,0.0,0.0,0.0,0.0,0.0,0.0,0.0,0.0,0.0,0.0,0.0,0.0,0.0,0.0,0.0,0.0,0.0,0.0,0.0,0.0,0.0,0.0,0.0,0.0,0.0,0.0,0.0,0.0,0.0,0.0,0.0,0.0,0.0,0.0,0.0,0.0,0.0,0.0,0.0,0.0,0.0,0.0,0.0,0.0,0.0,0.0,0.0,0.0,0.0,0.0,0.0,0.0,0.0,0.0,0.0,0.0,0.0,0.0,0.0,0.0,0.0,0.0,0.0,0.0,0.0,0.0,0.0,0.0,0.0,0.0,0.0,0.0,0.0,0.0,0.0,0.0,0.0,0.0,0.0,0.0,0.0,0.0,0.0,0.0,0.0,0.0,0.0,0.0,0.0,0.0,0.0,0.0,0.0,0.0,0.0,0.0,0.0,0.0,0.0,0.0,0.0,0.0,0.0,0.0,0.0,0.0,0.0,0.0,0.0,0.0,0.0,0.0,0.0,0.0,0.0,0.0,0.0,0.0,0.0,0.0,0.0,0.0,0.0,0.0,0.0,0.0,0.0,0.0,0.0,0.0,0.0,0.0,0.0,0.0,0.0,0.0,0.0,0.0,0.0,0.0,0.0,0.0,0.0,0.0,0.0,0.0,0.0,0.0,0.0,0.0,0.0,0.0,0.0,0.0,0.0,0.0,0.0,0.0,0.0,0.0,0.0,0.0,0.0,0.0,0.0,0.0,0.0,0.0,0.0,0.0,0.0,0.0,0.0,0.0,0.0,0.0,0.0,0.0,0.0,0.0,0.0,0.0,0.0,0.0,0.0,0.0,0.0,0.0,0.0,0.0,0.0,0.0,0.0,0.0,0.0,0.0,0.0,0.0,0.0,0.0,0.0,0.0,0.0,0.0,0.0,0.0,0.0,0.0,0.0,0.0,0.0,0.0,0.0,0.0,0.0,0.0,0.0,0.0,0.0,0.0,0.0,0.0,0.0,0.0,0.0,0.0,0.0,0.0,0.0,0.0,0.0,0.0,0.0,0.0,0.0,0.0,0.0,0.0,0.0,0.0,0.0,0.0,0.0,0.0,0.0,0.0,0.0,0.0,0.0,0.0,0.0,0.0,0.0,0.0,0.0,0.0,0.0,0.0,0.0,0.0,0.0,0.0,0.0,0.0,0.0,0.0,0.0,0.0,0.0,0.0,0.0,0.0,0.0,0.0,0.0,0.0,0.0,0.0,0.0,0.0,0.0,0.0,0.0,0.0,0.0,0.0,0.0,0.0,0.0,0.0,0.0,0.0,0.0,0.0,0.0,0.0,0.0,0.0,0.0,0.0,0.0,0.0,0.0,0.0,0.0,0.0,0.0,0.0,0.0,0.0,0.0,0.0,0.0,0.0,0.0,0.0,0.0,0.0,0.0,0.0,0.0,0.0,0.0,0.0,0.0,0.0,0.0,0.0,0.0,0.0,0.0,0.0,0.0,0.0,0.0,0.0,0.0,0.0,0.0,0.0,0.0,0.0,0.0,0.0,0.0,0.0,0.0,0.0,0.0,0.0,0.0,0.0,0.0,0.0,0.0,0.0,0.0,0.0,0.0,0.0,0.0,0.0,0.0,0.0,0.0,0.0,0.0,0.0,0.0,0.0,0.0,0.0,0.0,0.0,0.0,0.0,0.0,0.0,0.0,0.0,0.0,0.0,0.0,0.0,0.0,0.0,0.0,0.0,0.0,0.0,0.0,0.0,0.0,0.0,0.0,0.0,0.0,0.0,0.0,0.0,0.0,0.0,0.0,0.0,0.0,0.0,0.0,0.0,0.0,0.0,0.0,0.0,0.0,0.0,0.0,0.0,0.0,0.0,0.0,0.0,0.0,0.0,0.0,0.0,0.0,0.0,0.0,0.0,0.0,0.0,0.0,0.0,0.0,0.0,0.0,0.0,0.0,0.0,0.0,0.0,0.0,0.0,0.0,0.0,0.0,0.0,0.0,0.0,0.0,0.0,0.0,0.0,0.0,0.0,0.0,0.0,0.0,0.0,0.0,0.0,0.0,0.0,0.0,0.0,0.0,0.0,0.0,0.0,0.0,0.0,0.0,0.0,0.0,0.0,0.0,0.0,0.0,0.0,0.0,0.0,0.0,0.0,0.0,0.0,0.0,0.0,0.0,0.0,0.0,0.0,0.0,0.0,0.0,0.0,0.0,0.0,0.0,0.0,0.0,0.0,0.0,0.0,0.0,0.0,0.0,0.0,0.0,0.0,0.0,0.0,0.0,0.0,0.0,0.0,0.0,0.0,0.0,0.0,0.0,0.0,0.0,0.0,0.0,0.0,0.0,0.0,0.0,0.0,0.0,0.0,0.0,0.0,0.0,0.0,0.0,0.0,0.0,0.0,0.0,0.0,0.0,0.0,0.0,0.0,0.0,0.0,0.0,0.0,0.0,0.0,0.0,0.0,0.0,0.0,0.0,0.0,0.0,0.0,0.0,0.0,0.0,0.0,0.0,0.0,0.0,0.0,0.0,0.0,0.0,0.0,0.0,0.0,0.0,0.0,0.0,0.0,0.0,0.0,0.0,0.0,0.0,0.0,0.0,0.0,0.0,0.0,0.0,0.0,0.0,0.0,0.0,0.0,0.0,0.0,0.0,0.0,0.0,0.0,0.0,0.0,0.0,0.0,0.0,0.0,0.0,0.0,0.0,0.0,0.0,0.0,0.0,0.0,0.0,0.0,0.0,0.0,0.0,0.0,0.0,0.0,0.0,0.0,0.0,0.0,0.0,0.0,0.0,0.0,0.0,0.0,0.0,0.0,0.0,0.0,0.0,0.0,0.0,0.0,0.0,0.0,0.0,0.0,0.0,0.0,0.0,0.0,0.0,0.0,0.0,0.0,0.0,0.0,0.0,0.0,0.0,0.0,0.0,0.0,0.0,0.0,0.0,0.0,0.0,0.0,0.0,0.0,0.0,0.0,0.0,0.0,0.0,0.0,0.0,0.0,0.0,0.0,0.0,0.0,0.0,0.0,0.0,0.0,0.0,0.0,0.0,0.0,0.0,0.0,0.0,0.0,0.0,0.0,0.0,0.0,0.0,0.0,0.0,0.0,0.0,0.0,0.0,0.0,0.0,0.0,0.0,0.0,0.0,0.0,0.0,0.0,0.0,0.0,0.0,0.0,0.0,0.0,0.0,0.0,0.0,0.0,0.0,0.0,0.0,0.0,0.0,0.0,0.0,0.0,0.0,0.0,0.0,0.0,0.0,0.0,0.0,0.0,0.0,0.0,0.0,0.0,0.0,0.0,0.0,0.0,0.0,0.0,0.0,0.0,0.0,0.0,0.0,0.0,0.0,0.0,0.0,0.0,0.0,0.0,0.0,0.0,0.0,0.0,0.0,0.0,0.0,0.0,0.0,0.0,0.0,0.0,0.0,0.0,0.0,0.0,0.0,0.0,0.0,0.0,0.0,0.0,0.0,0.0,0.0,0.0,0.0,0.0,0.0,0.0,0.0,0.0,0.0,0.0,0.0,0.0,0.0,0.0,0.0,0.0,0.0,0.0,0.0,0.0,0.0,0.0,0.0,0.0,0.0,0.0,0.0,0.0,0.0,0.0,0.0,0.0,0.0,0.0,0.0,0.0,0.0,0.0,0.0,0.0,0.0,0.0,0.0,0.0,0.0,0.0,0.0,0.0,0.0,0.0,0.0,0.0,0.0,0.0,0.0,0.0,0.0,0.0,0.0,0.0,0.0,0.0,0.0,0.0,0.0,0.0,0.0,0.0,0.0,0.0,0.0,0.0,0.0,0.0,0.0,0.0,0.0,0.0,0.0,0.0,0.0,0.0,0.0,0.0,0.0,0.0,0.0,0.0,0.0,0.0,0.0,0.0,0.0,0.0,0.0,0.0,0.0,0.0,0.0,0.0,0.0,0.0,0.0,0.0,0.0,0.0,0.0,0.0,0.0,0.0,0.0,0.0,0.0,0.0,0.0,0.0,0.0,0.0,0.0,0.0,0.0,0.0,0.0,0.0,0.0,0.0,0.0,0.0,0.0,0.0,0.0,0.0,0.0,0.0,0.0,0.0,0.0,0.0,0.0,0.0,0.0,0.0,0.0,0.0,0.0,0.0,0.0,0.0,0.0,0.0,0.0,0.0,0.0,0.0,0.0,0.0,0.0,0.0,0.0,0.0,0.0,0.0,0.0,0.0,0.0,0.0,0.0,0.0,0.0,0.0,0.0,0.0,0.0,0.0,0.0,0.0,0.0,0.0,0.0,0.0,0.0,0.0,0.0,0.0,0.0,0.0,0.0,0.0,0.0,0.0,0.0,0.0,0.0,0.0,0.0,0.0,0.0,0.0,0.0,0.0,0.0,0.0,0.0,0.0,0.0,0.0,0.0,0.0,0.0,0.0,0.0,0.0,0.0,0.0,0.0,0.0,0.0,0.0,0.0,0.0,0.0,0.0,0.0,0.0,0.0,0.0,0.0,0.0,0.0,0.0,0.0,0.0,0.0,0.0,0.0,0.0,0.0,0.0,0.0,0.0,0.0,0.0,0.0,0.0,0.0,0.0,0.0,0.0,0.0,0.0,0.0,0.0,0.0,0.0,0.0,0.0,0.0,0.0,0.0,0.0,0.0,0.0,0.0,0.0,0.0,0.0,0.0,0.0,0.0,0.0,0.0,0.0,0.0,0.0,0.0,0.0,0.0,0.0,0.0,0.0,0.0,0.0,0.0,0.0,0.0,0.0,0.0,0.0,0.0,0.0,0.0,0.0,0.0,0.0,0.0,0.0,0.0,0.0,0.0,0.0,0.0,0.0,0.0,0.8531,0.0,0.0,0.0,0.0,0.0,0.0,0.0,0.0,0.0,0.0,0.0,0.0,0.0,0.0,0.0,0.0,0.0,0.0,0.0,0.0,0.0,0.0,0.0,0.0,0.0,0.0,0.0,0.0,0.0,0.0,0.0,0.0,0.0,0.0,0.0,0.0,0.0,0.0,0.0,0.2306,0.1467,0.0861,0.0708,0.0359,-0.012,0.0,0.0,0.0,0.0,0.0,0.0,0.0,0.0,0.0,0.0,0.0,0.0,0.0,0.0,0.0,0.0,0.0,0.0,0.0,0.0,0.0,0.0,0.0,0.0,0.0,0.0,0.0,0.0,0.0,0.0,0.0,0.0,0.0,0.0,0.0,0.0,0.0,0.0,0.0,0.0,0.0,0.0,0.0,0.0,0.0,0.0,0.0,0.0,0.0,0.0,0.0,0.0,0.0,0.0,0.0,0.0,0.0,0.0,0.0,0.0,0.0,0.0,0.0,0.0,0.0,0.0,0.0,0.0,0.0,0.0,0.0,0.8102,0.0,0.0,0.0,0.0,0.0,0.0,0.0,0.0,0.0,0.0,0.0,0.0,0.0,0.0,0.0,0.0,0.0,0.0,0.0,0.0,0.0,0.0,0.0,0.0,0.0,0.0,0.0,0.0,0.0,0.0,0.0,0.0,0.0,0.0,0.0,0.0,0.0,0.0,0.1552,0.0926,-0.018,-0.1319,-0.159,-0.1124,-0.2246,0.0,0.0,0.0,0.0,0.0,0.0,0.0,0.0,0.0,0.0,0.0,0.0,0.0,0.0,0.0,0.0,0.0,0.0,0.0,0.0,0.0,0.0,0.0,0.0,0.0,0.0,0.0,0.0,0.0,0.0,0.0,0.0,0.0,0.0,0.0,0.0,0.0,0.0,0.0,0.0,0.0,0.0,0.0,0.0,0.0,0.0,0.0,0.0,0.0,0.0,0.0,0.0,0.0,0.0,0.0,0.0,0.0,0.0,0.0,0.0,0.0,0.0,0.0,0.6075,0.6075,0.5888,0.5822,0.5756,0.5818,0.6453,0.6785,0.7003,0.7762,0.0,0.0,0.0,0.0,0.0,0.0,0.0,0.0,0.0,0.0,0.0,0.0,0.0,0.0,0.0,0.0,0.0,0.0,0.0,0.0,0.0,0.0,1.316,1.212,1.2452,1.2098,0.0,0.0,0.0,0.0,0.0,0.0,0.0,0.3031,0.2219,0.1645,0.0661,0.0,-0.0318,-0.1858,-0.2666,-0.2915,-0.3843,-0.4375,-0.4509,0.0,0.0,0.0,0.0,0.0,0.0,0.0,0.0,0.0,0.0,0.0,0.0,0.0,0.0,0.0,0.0,0.0,0.0,0.0,0.0,0.0,0.0,0.0,0.0,0.0,0.0,0.0,0.0,0.0,0.0,0.0,0.0,0.0,0.0,0.0,0.0,0.0,0.0,0.0,0.0,0.0,0.4409,0.4473,0.0,0.0,0.0,0.0,0.0,0.0,0.0,0.0,0.0,0.0,0.0,0.0,0.0,0.4809,0.4815,0.4945,0.5143,0.5411,0.5408,0.5613,0.5888,0.5422,0.5223,0.5153,0.4824,0.0,0.6086,0.6214,0.0,0.0,0.0,0.0,0.0,0.0,0.0,0.0,0.0,0.0,0.0,0.0,0.0,0.0,0.0,0.0,0.0,0.0,0.0,0.0,0.0,1.4,1.2976,1.2049,1.1868,1.1443,1.0586,0.0,0.0,0.0,0.0,0.0,0.2397,0.2151,0.1539,0.0663,-0.0316,-0.1032,-0.1543,-0.2548,-0.3247,-0.3825,-0.4428,-0.4827,-0.4957,-0.4755,0.0,0.0,0.0,0.0,0.0,0.0,0.0,0.0,0.0,0.0,0.0,0.0,0.0,0.0,0.0,0.0,0.0,0.0,0.0,0.0,0.0,0.0,0.0,0.0,0.0,0.0,0.0,0.0,0.0,0.0,0.0,0.0,0.0,0.0,0.0,0.0,0.0,0.0,0.0,0.5212,0.4957,0.4708,0.4431,0.4593,0.0,0.0,0.0,0.0,0.0,0.0,0.0,0.0,0.0,0.3949,0.4148,0.4015,0.3618,0.382,0.3954,0.4154,0.4154,0.422,0.4359,0.4359,0.4356,0.4359,0.4298,0.4567,0.503,0.5359,0.5752,0.628,0.0,0.0,0.0,0.0,0.7952,0.7767,0.0,0.0,0.0,0.0,0.0,0.0,0.0,0.0,0.0,0.0,0.0,0.0,1.5091,1.385,1.2812,1.1841,1.1301,1.0677,0.9908,0.0,0.0,0.0,0.0,0.2597,0.082,0.0895,0.0488,-0.0378,-0.1443,-0.2251,-0.2984,-0.3708,-0.4414,-0.5024,-0.5352,-0.5352,-0.5087,-0.4755,-0.4954,-0.5484,0.0,0.0,0.0,0.0,0.0,0.0,0.0,0.0,0.0,0.0,0.0,0.0,0.0,0.0,0.0,0.0,0.0,0.0,0.0,0.0,0.0,0.0,0.0,0.0,0.0,0.0,0.0,0.0,0.0,0.0,0.0,0.0,0.0,0.0,0.0,0.0,0.0,0.5213,0.4878,0.4622,0.3946,0.3875,0.0,0.0,0.0,0.0,0.0,0.0,0.3004,0.3407,0.3347,0.275,0.2947,0.2813,0.2149,0.2554,0.2755,0.2889,0.3023,0.3092,0.3226,0.3625,0.3825,0.3825,0.4164,0.43,0.43,0.4761,0.5223,0.569,0.569,0.5818,0.6079,0.6654,0.665,0.6465,0.0,0.0,0.0,0.0,0.0,0.0,0.0,0.0,0.0,0.0,0.0,1.6824,1.5856,1.3989,1.2444,1.1531,1.0948,0.9835,0.7953,0.6945,0.5483,0.3337,0.1718,0.0526,-0.0294,-0.106,-0.1365,-0.1267,-0.28,-0.3796,-0.4251,-0.5592,-0.6527,-0.7046,-0.7172,-0.6457,-0.5087,-0.5292,-0.5362,-0.5425,-0.5951,0.0,0.0,0.0,0.0,0.0,0.0,0.0,0.0,0.0,0.0,0.0,0.0,0.0,0.0,0.0,0.0,0.0,0.0,0.0,0.0,0.0,0.0,0.0,0.0,0.0,0.0,0.0,0.0,0.0,0.0,0.0,0.0,0.0,0.0,0.0,0.0,0.0,0.0,0.3226,0.1745,0.0,0.0,0.0,0.0,0.214,0.1874,0.1543,0.1276,0.1276,0.1075,0.0672,0.0672,0.0672,0.0605,0.1143,0.1612,0.1945,0.2484,0.2889,0.3226,0.3625,0.3825,0.3825,0.4164,0.43,0.43,0.43,0.4628,0.5153,0.5153,0.5613,0.6334,0.6083,0.6145,0.6334,0.0,0.0,0.0,0.0,0.0,0.0,0.0,0.0,0.0,1.9763,1.8057,1.6565,1.5627,1.3533,1.194,1.1358,1.0458,0.9325,0.7782,0.6075,0.4216,0.2348,0.0523,-0.0658,-0.1186,-0.2272,-0.279,-0.2741,-0.4071,-0.5064,-0.5782,-0.6645,-0.7237,-0.7558,-0.7692,-0.7502,-0.6915,-0.6063,-0.5807,-0.5885,-0.5617,-0.5818,0.0,0.0,0.0,0.0,0.0,0.0,0.0,0.0,0.0,0.0,0.0,0.0,0.0,0.0,0.0,0.0,0.0,0.0,0.0,0.0,0.0,0.0,0.0,0.0,0.0,0.0,0.0,0.0,0.0,0.0,0.0,0.0,0.0,0.0,0.0,0.0,0.0,0.1882,0.1075,0.0,0.1944,0.0939,0.0403,0.0872,0.0604,0.0336,0.0202,0.0538,0.0672,0.0538,0.047,0.047,0.047,0.0672,0.0873,0.1007,0.1208,0.1343,0.1478,0.188,0.235,0.2952,0.3286,0.3862,0.4409,0.4409,0.4501,0.4564,0.4564,0.4761,0.5024,0.4897,0.496,0.509,0.0,0.0,0.0,0.0,0.0,0.0,0.0,0.0,0.0,1.9989,1.8212,1.669,1.5726,1.3533,1.1841,1.1048,0.9843,0.8534,0.6972,0.488,0.2963,0.134,-0.0597,-0.1862,-0.2348,-0.3392,-0.402,-0.4074,-0.5467,-0.6523,-0.7237,-0.7822,-0.821,-0.8468,-0.8672,-0.8678,-0.8355,-0.7488,-0.6846,-0.6404,-0.5749,-0.5885,-0.635,0.0,0.0,0.0,0.0,0.0,0.0,0.0,0.0,0.0,0.0,0.0,0.0,0.0,0.0,0.0,0.0,0.0,0.0,0.0,0.0,0.0,0.0,0.0,0.0,0.0,0.0,0.0,0.0,0.0,0.0,0.0,0.0,0.0,0.0,0.0,0.1946,0.1343,0.047,0.0269,0.1074,0.0134,-0.047,-0.0202,-0.0403,-0.0538,-0.0538,-0.0202,-0.0067,-0.0067,-0.0067,-0.0067,-0.0067,0.0134,0.0202,0.0202,0.0403,0.0473,0.0545,0.0886,0.1437,0.2069,0.2412,0.3201,0.4106,0.4106,0.4276,0.442,0.442,0.442,0.442,0.442,0.442,0.4488,0.0,0.0,0.0,0.0,0.0,0.0,0.0,0.0,2.1132,1.9681,1.8321,1.71,1.6095,1.3943,1.2052,1.0612,0.9141,0.7469,0.542,0.3366,0.163,0.0293,-0.1681,-0.3063,-0.3823,-0.4486,-0.5011,-0.5338,-0.692,-0.7967,-0.8554,-0.9198,-0.9716,-1.0047,-1.0244,-0.9919,-0.9338,-0.9454,-0.8544,-0.6924,-0.6609,-0.635,-0.628,0.0,0.0,0.0,0.0,0.0,0.0,0.0,0.0,0.0,0.0,0.0,0.0,0.0,0.0,0.0,0.0,0.0,0.0,0.0,0.0,0.0,0.0,0.0,0.0,0.0,0.0,0.0,0.0,0.0,0.0,0.0,0.0,0.0,0.2813,0.2076,0.1542,0.1542,0.0,-0.0739,0.0202,-0.0538,-0.1076,-0.1076,-0.1076,-0.1076,-0.1076,-0.1076,-0.1076,-0.1076,-0.1076,-0.1076,-0.1076,-0.0605,-0.0336,-0.0336,0.0202,0.0478,0.0491,0.077,0.1064,0.1308,0.16,0.24,0.3348,0.3421,0.3932,0.4664,0.4729,0.4726,0.4726,0.4726,0.4726,0.4726,0.0,0.0,0.0,0.0,0.0,0.0,0.0,2.1243,2.0467,1.931,1.814,1.692,1.5632,1.3778,1.1953,1.0273,0.8999,0.7304,0.5035,0.3623,0.1591,-0.119,-0.2617,-0.3716,-0.4483,-0.4818,-0.5606,-0.6841,-0.7567,-0.842,-0.9472,-0.9728,-1.0047,-1.0428,-1.0498,-1.0434,-1.0238,-0.9716,-0.9192,-0.8678,-0.7647,-0.7195,-0.7064,0.0,0.0,0.0,0.0,0.0,0.0,0.0,0.0,0.0,0.0,0.0,0.0,0.0,0.0,0.0,0.0,0.0,0.0,0.0,0.0,0.0,0.0,0.0,0.0,0.0,0.0,0.0,0.0,0.0,0.0,0.0,0.0,0.2748,0.2078,0.0939,0.0067,-0.0336,-0.0806,-0.1008,-0.0739,-0.0941,-0.1076,-0.1076,-0.1076,-0.1076,-0.1076,-0.1076,-0.1076,-0.1076,-0.1076,-0.1076,-0.1076,-0.0941,-0.0883,-0.0901,-0.0762,-0.0703,-0.0721,-0.0648,-0.0145,0.0728,0.0801,0.1545,0.2618,0.3289,0.3776,0.4125,0.4496,0.4726,0.4726,0.4726,0.4726,0.4737,0.0,0.0,0.0,0.0,0.0,0.0,0.0,2.1118,2.0366,1.8999,1.7784,1.6507,1.498,1.3338,1.1616,0.9732,0.8633,0.6913,0.4265,0.2231,0.006,-0.2331,-0.3198,-0.4108,-0.5143,-0.5477,-0.633,-0.7627,-0.8597,-0.9506,-1.0288,-1.0485,-1.0744,-1.1059,-1.0751,-1.0618,-1.0618,-1.0168,-0.997,-0.9843,-0.849,-0.7782,-0.7391,-0.6679,-0.642,-0.642,-0.642,-0.635,-0.628,-0.635,0.0,0.0,0.0,0.0,0.0,0.0,0.0,0.0,0.0,0.0,0.0,0.0,0.0,0.0,0.0,0.0,0.0,0.0,0.0,0.0,0.0,0.0,0.0,0.0,0.2149,0.1878,0.1208,0.047,-0.0269,-0.1008,-0.1076,-0.1076,-0.1076,-0.1076,-0.1076,-0.1076,-0.1076,-0.1076,-0.1076,-0.1076,-0.1076,-0.1076,-0.1076,-0.1082,-0.1095,-0.1095,-0.111,-0.114,-0.114,-0.1156,-0.1185,-0.1185,-0.0745,0.0075,0.0075,0.0758,0.1919,0.2454,0.286,0.0,0.0,0.0,0.0,0.0,0.4806,0.4814,0.0,0.0,0.0,0.0,0.0,0.0,0.0,2.1101,2.0389,1.8736,1.7343,1.5905,1.4231,1.2783,1.1183,0.9176,0.7982,0.6093,0.3178,0.0,-0.2197,-0.3138,-0.3602,-0.4478,-0.5873,-0.6334,-0.7111,-0.8345,-0.9812,-1.0703,-1.1142,-1.1226,-1.149,-1.1802,-1.0996,-1.0681,-1.0807,-1.0681,-1.0624,-1.0491,-0.9198,-0.8231,-0.7521,-0.6741,-0.642,-0.642,-0.642,-0.6416,-0.635,-0.642,0.0,0.0,0.0,0.0,0.0,0.0,0.0,0.0,0.0,0.0,0.0,0.0,0.0,0.0,0.0,0.0,0.0,0.0,0.0,0.0,0.0,0.0,0.0,0.0,0.1143,0.0403,0.0403,0.0403,0.0,-0.1008,-0.1076,-0.1076,-0.1076,-0.1076,-0.1076,-0.1076,-0.1076,-0.1076,-0.1076,0.0,0.0,0.0,0.0,-0.1095,-0.1126,-0.1126,-0.1141,-0.1172,-0.1172,-0.1187,-0.1217,-0.1217,-0.1001,-0.0628,-0.0628,0.0078,0.1176,0.1254,0.1801,0.2659,0.4229,0.4859,0.4859,0.4937,0.5018,0.5018,0.0,0.0,0.0,0.0,0.0,0.0,0.0,2.0438,1.9352,1.8048,1.6809,1.5448,1.3862,1.2162,1.0545,0.9044,0.6892,0.4291,0.1158,-0.0966,-0.251,-0.3481,-0.4609,-0.5934,-0.7497,-0.7507,-0.8339,-1.0262,-1.0451,-1.1017,-1.202,-1.1538,-1.1545,-1.1958,-1.1108,-1.087,-1.1059,-1.0996,-1.0933,-1.0681,-0.9901,-0.9064,-0.8166,-0.6872,-0.642,-0.642,-0.642,-0.635,-0.628,-0.635,-0.6284,-0.621,-0.6083,0.0,0.0,0.0,0.0,0.0,0.0,0.0,0.0,0.0,0.0,0.0,0.0,0.0,0.0,0.0,0.0,0.0,0.0,0.0,0.0,0.0807,0.0403,0.0067,-0.0134,-0.0403,-0.0672,-0.1076,-0.1076,-0.1076,-0.1076,-0.1076,-0.1076,-0.1076,-0.1076,-0.1076,-0.1076,-0.1076,-0.1087,-0.1112,-0.1112,-0.1127,-0.1157,-0.1157,-0.1173,-0.1203,0.0,0.0,-0.1249,-0.1249,-0.1017,-0.0628,-0.0628,-0.0314,0.0314,0.1019,0.1801,0.2581,0.3599,0.4066,0.4146,0.4779,0.5018,0.5018,0.0,0.0,0.0,0.0,0.0,0.0,0.0,1.982,1.8767,1.7277,1.6118,1.4463,1.1789,1.0398,0.8758,0.6506,0.3996,0.1612,-0.0681,-0.1962,-0.2978,-0.378,-0.5069,-0.6594,-0.8417,-0.8104,-0.9052,-1.1267,-1.1267,-1.1881,-1.2984,-1.2642,-1.252,-1.2642,-1.1779,-1.1358,-1.1185,-1.1122,-1.1059,-1.087,-1.0098,-0.9518,-0.9005,-0.7907,-0.726,-0.6937,-0.6937,-0.6675,-0.6284,-0.635,-0.6284,-0.621,-0.621,-0.6214,-0.6214,0.0,0.0,0.0,0.0,0.0,0.0,0.0,0.0,0.0,0.0,0.0,0.0,0.0,0.0,0.121,0.0,0.0,0.047,0.047,0.0134,-0.0202,-0.0269,-0.0672,-0.1008,-0.1076,-0.1076,-0.1076,-0.1076,-0.1076,-0.1076,-0.1076,-0.1076,-0.1076,-0.1076,-0.109,-0.1105,-0.1121,-0.1136,-0.1158,-0.1189,-0.1189,-0.1204,-0.1234,-0.1234,-0.1243,-0.1335,-0.1335,-0.11,-0.0786,-0.0786,-0.055,-0.0079,0.0392,0.0862,0.1332,0.2192,0.3051,0.383,0.3756,0.4307,0.4859,0.0,0.0,0.0,0.0,0.0,0.0,0.0,0.0,0.0,1.6598,1.5384,1.3361,0.9838,0.8724,0.6791,0.3214,0.0879,-0.094,-0.2153,-0.2885,-0.361,-0.4304,-0.564,-0.722,-0.9163,-0.8868,-0.9812,-1.2143,-1.2251,-1.2862,-1.3965,-1.3795,-1.3683,-1.3511,-1.2634,-1.1958,-1.1545,-1.1428,-1.1303,-1.1059,-1.0351,-1.0028,-0.9901,-0.9005,-0.8166,-0.7461,-0.7326,-0.6872,-0.642,-0.642,-0.635,-0.6214,-0.6214,-0.6214,-0.628,-0.6346,-0.6083,0.0,0.0,0.0,0.0,0.0,0.0,0.0,0.0,0.0,0.047,0.0336,0.0672,0.0874,0.0403,0.0269,0.0202,0.0202,-0.0202,-0.0538,-0.047,-0.0874,-0.1143,-0.1076,-0.1076,-0.1076,-0.1076,-0.1076,-0.1076,-0.1076,-0.1076,-0.1078,-0.1084,-0.1108,-0.1127,-0.1138,-0.1163,-0.1189,-0.122,-0.1221,-0.1233,-0.1335,-0.1335,-0.1335,-0.1335,-0.1335,-0.1178,-0.0864,-0.0786,-0.0628,-0.0314,-0.0079,0.0,0.0079,0.0784,0.1957,0.3285,0.2893,0.3521,0.4309,0.0,0.0,0.0,0.0,0.0,0.0,0.0,0.0,0.0,1.6088,1.4561,1.2599,1.0027,0.8526,0.5615,0.0494,-0.1147,-0.2244,-0.3113,-0.3611,-0.4389,-0.5469,-0.7008,-0.861,-1.0201,-1.043,-1.1454,-1.3321,-1.3416,-1.3965,-1.4843,-1.4222,-1.4103,-1.435,-1.3433,-1.2818,-1.2389,-1.2328,-1.1903,-1.124,-1.1059,-1.087,-1.0611,-0.9709,-0.8619,-0.7391,-0.6741,-0.6482,-0.642,-0.642,-0.6416,-0.635,-0.635,-0.635,-0.6416,-0.6749,0.0,-0.6482,-0.7129,-0.6666,-0.5609,-0.4212,-0.3145,-0.2342,0.0,0.0,0.0202,-0.0134,-0.0134,-0.0134,-0.0202,-0.0605,-0.0941,-0.0941,-0.121,-0.1344,-0.1076,-0.1344,-0.1412,-0.1143,-0.1076,-0.1076,-0.1076,-0.1076,-0.1076,-0.1076,-0.1076,-0.1087,-0.1114,-0.1119,-0.1146,-0.12,-0.1204,-0.1221,-0.1252,-0.1252,-0.1332,-0.1335,-0.1335,-0.1335,-0.1335,-0.1335,-0.1178,-0.0864,-0.055,-0.0314,-0.0314,-0.0079,0.0,0.0,0.0079,0.0706,0.1722,0.3127,0.3285,0.2895,0.0,0.0,0.0,0.0,0.0,0.0,0.0,0.0,0.0,0.0,0.0,1.2176,0.785,0.38,-0.0054,-0.3607,-0.3455,0.0,-0.4663,-0.444,-0.4632,-0.5545,-0.7105,-0.8734,-1.0413,-1.0597,-1.1639,-1.3511,-1.3606,-1.4025,-1.4725,-1.4715,-1.4419,-1.3932,-1.3563,-1.2826,-1.1981,-1.1981,-1.1794,-1.1435,-1.131,-1.0856,-1.0218,-0.9378,-0.842,-0.7461,-0.7396,-0.7073,0.0,0.0,-0.6683,-0.6683,-0.6486,-0.6552,-0.6749,-0.6881,-0.6942,0.0,-0.7138,0.0,0.0,0.0,-0.4212,-0.3347,-0.2679,-0.1409,-0.0403,-0.0739,-0.0538,-0.0403,-0.0739,-0.0941,-0.1076,0.0,-0.121,-0.1277,-0.1143,-0.121,-0.1277,-0.1143,-0.1076,-0.1076,-0.1076,-0.1076,-0.1076,-0.1076,-0.1092,-0.1108,-0.112,-0.1155,-0.1185,-0.1211,-0.1229,-0.1244,-0.1335,-0.1335,-0.1335,-0.1335,-0.1335,-0.1335,-0.1335,-0.1335,-0.1257,-0.11,-0.0629,-0.0471,-0.0471,-0.0157,0.0,0.0,0.0,0.0235,0.0628,0.1332,0.1957,0.2426,0.0,0.0,0.0,0.0,0.0,0.0,0.0,0.0,0.0,0.0,0.0,0.0,0.0,0.0,-0.4283,-0.5653,0.0,0.0,0.0,-0.5214,-0.5046,-0.5542,-0.7072,-0.8589,-1.0151,-1.0711,-1.1802,-1.3408,-1.3733,-1.4145,-1.4469,-1.4666,-1.43,-1.3511,-1.3511,-1.2895,-1.1856,-1.1856,-1.174,-1.1498,-1.1108,-1.0534,-0.9831,-0.8801,-0.8037,-0.7657,-0.7661,-0.7335,0.0,0.0,-0.7073,-0.7007,-0.6811,-0.6876,-0.7073,-0.7204,-0.7466,-0.7657,-0.7073,0.0,0.0,-0.5885,-0.4885,-0.3951,-0.3147,-0.1878,-0.0941,-0.1076,-0.0806,-0.0605,-0.0807,-0.0874,-0.0874,-0.0874,-0.0874,-0.0941,-0.1076,-0.1076,-0.1076,-0.1076,-0.1076,-0.1076,-0.1076,-0.1076,-0.1079,-0.1087,-0.1108,-0.1128,-0.1145,-0.1187,-0.1215,-0.1224,-0.1245,-0.1335,-0.1335,-0.1335,-0.1335,-0.1335,-0.1335,-0.1335,-0.1335,-0.1335,-0.1335,-0.1257,-0.0864,-0.0629,-0.055,-0.0236,-0.0079,0.0,0.0,0.0,0.0,0.0,0.0784,0.1645,0.0,0.0,0.0,0.0,0.0,0.0,0.0,0.0,0.0,0.0,0.0,0.0,0.0,0.0,-0.5015,0.0,0.0,0.0,0.0,-0.5977,-0.5928,-0.5773,-0.7133,-0.8335,-0.9342,-1.11,-1.2381,-1.311,-1.4033,-1.4469,-1.4469,-1.3872,-1.3502,-1.3511,-1.3511,-1.313,-1.2451,-1.2451,-1.2027,-1.124,-1.0401,-0.9958,-0.9646,-0.8102,-0.7722,-0.7922,-0.7204,0.0,-0.6946,-0.733,-0.7461,-0.7461,-0.7456,-0.7456,0.0,-0.7857,-0.8187,-0.8252,0.0,0.0,-0.7195,-0.6152,-0.4815,-0.3613,-0.3282,-0.208,-0.1076,-0.1076,-0.1076,-0.0941,-0.0403,-0.0336,-0.0336,-0.0336,-0.0336,-0.0538,-0.1008,-0.1076,-0.1076,-0.1076,-0.1076,-0.1076,0.0,-0.1076,-0.1088,-0.1117,-0.1121,-0.1147,-0.1206,-0.1211,-0.1226,-0.1333,-0.1335,-0.1335,-0.1335,-0.1335,-0.1335,-0.1335,-0.1335,-0.1335,-0.1335,-0.1335,-0.1335,-0.1257,-0.1021,-0.0786,-0.055,-0.0393,-0.0157,0.0,0.0,0.0,0.0,0.0,0.0,0.0157,0.0,0.0,0.0,0.0,0.0,0.0,0.0,0.0,0.0,0.0,0.0,0.0,0.0,0.0,0.0,0.0,0.0,0.0,0.0,-0.6067,-0.5959,-0.6902,-0.7453,-0.8396,-0.9721,-1.1279,-1.2231,-1.2439,-1.3978,-1.4535,-1.419,-1.4164,-1.3932,-1.3511,-1.3009,-1.2458,-1.1919,-1.1732,-1.1288,-1.0598,-1.0148,-0.9378,-0.835,-0.8102,-0.7657,-0.7269,0.0,0.0,-0.7661,-0.7787,-0.7852,-0.7787,-0.7591,-0.7657,-0.7917,-0.8247,-0.8252,-0.8052,-0.7461,0.0,-0.6942,-0.635,-0.4948,-0.3678,-0.3547,-0.228,-0.1076,-0.1076,-0.0807,-0.0538,-0.0336,-0.0269,-0.0269,-0.0269,-0.0605,-0.0874,-0.1076,-0.1076,-0.1076,-0.1076,-0.1076,0.0,0.0,0.0,0.0,-0.112,-0.1158,-0.119,-0.1211,-0.1231,-0.1247,-0.1335,-0.1335,-0.1335,-0.1335,-0.1335,-0.1335,-0.1335,-0.1335,-0.1335,-0.1335,-0.1335,-0.1335,-0.1257,-0.1021,-0.0786,-0.055,-0.0393,-0.0157,0.0,0.0,0.0,0.0,0.0,0.0,0.0079,0.0,0.0,0.0,0.0,0.0,0.0,0.0,0.0,0.0,0.0,0.0,0.0,0.0,0.0,0.0,0.0,0.0,0.0,0.0,0.0,-0.727,-0.8469,-0.8593,-0.9316,-1.0902,-1.1844,-1.2474,-1.2717,-1.3699,-1.41,-1.4138,-1.3655,-1.3374,-1.313,-1.2589,-1.2104,-1.156,-1.124,-1.0919,-1.0598,-1.0021,-0.9192,-0.8291,-0.8231,-0.7847,0.0,0.0,-0.8052,-0.8182,-0.8182,-0.8182,-0.8117,-0.7917,-0.7987,-0.8182,-0.8317,-0.8187,-0.7922,-0.7396,-0.7073,-0.6815,-0.6416,-0.5213,-0.4013,-0.368,-0.2479,-0.1411,-0.1143,-0.0672,-0.0269,-0.0067,0.0,0.0,0.0,-0.047,-0.0874,-0.1076,-0.1076,-0.1076,-0.1076,-0.1085,-0.1099,0.0,0.0,0.0,-0.1153,-0.1189,-0.1217,-0.1228,-0.1247,-0.1335,-0.1335,-0.1335,-0.1335,-0.1335,-0.1335,-0.1335,-0.1335,-0.1335,-0.1335,-0.1335,-0.1335,-0.1335,-0.1257,-0.11,-0.0943,-0.0707,-0.055,-0.0316,-0.008,-0.008,-0.008,0.0,0.0,0.0,0.0,0.0,0.0,0.0,0.0,0.0,0.0,0.0,0.0,0.0,0.0,0.0,0.0,0.0,0.0,0.0,0.0,0.0,0.0,0.0,0.0,0.0,-1.0499,-1.0354,-1.1014,-1.2635,-1.2857,-1.3258,-1.3959,-1.3317,-1.3488,-1.438,-1.2613,-1.2067,-1.2602,-1.2343,-1.1996,-1.1685,-1.1122,-1.1052,-1.1178,-1.0028,-0.9454,-0.9204,-0.856,0.0,0.0,0.0,0.0,-0.8517,-0.8517,-0.8517,-0.8452,-0.8452,-0.8447,-0.8382,-0.8052,-0.7987,-0.7792,-0.7077,-0.6881,-0.6749,-0.6346,-0.5481,-0.455,-0.3687,-0.275,-0.1879,-0.121,-0.0672,-0.0134,0.0403,0.0,0.0538,0.0538,0.0067,-0.0538,-0.1008,-0.1076,-0.1076,0.0,0.0,0.0,0.0,0.0,0.0,-0.1214,0.0,-0.1227,-0.1334,-0.1335,-0.1335,-0.1335,-0.1335,-0.1335,-0.1335,-0.1335,-0.1335,-0.1335,-0.1335,-0.1335,-0.1335,-0.1335,-0.1335,-0.1335,-0.1335,-0.118,-0.0866,-0.0866,-0.0638,-0.0326,-0.0326,-0.0165,0.0,0.0,0.0,0.0,0.0,0.0,0.0,0.0,0.0,0.0,0.0,0.0,0.0,0.0,0.0,0.0,0.0,0.0,0.0,0.0,0.0,0.0,0.0,0.0,0.0,0.0,0.0,0.0,0.0,0.0,0.0,-1.4523,-1.458,-1.4761,-1.5049,-1.4468,-1.427,-1.4374,-1.3646,-1.3235,-1.3114,-1.2282,-1.167,-1.1219,0.0,-0.9945,-0.9436,0.0,0.0,0.0,0.0,0.0,0.0,0.0,0.0,0.0,0.0,-0.7787,-0.7722,-0.7657,-0.74,-0.7138,-0.6946,-0.6749,-0.6486,-0.635,-0.5547,-0.4613,-0.3813,-0.2815,-0.1879,-0.121,-0.0336,0.0336,0.047,0.047,0.0,0.1008,0.0,0.0,-0.0538,-0.0874,0.0,-0.1076,0.0,-0.113,-0.1153,-0.1189,0.0,0.0,-0.1245,-0.1249,-0.1335,-0.1335,-0.1335,-0.1335,-0.1335,-0.1335,-0.1335,-0.1335,-0.1335,-0.1335,-0.1335,-0.1335,-0.1335,-0.1335,-0.1335,-0.1335,-0.1335,-0.1191,-0.0968,-0.0968,-0.0736,-0.0334,-0.0334,-0.0251,0.0,0.0,0.0,0.0,0.0,0.0,0.0,0.0,0.0,0.0,0.0,0.0,0.0,0.0,0.0,0.0,0.0,0.0,0.0,0.0,0.0,0.0,0.0,0.0,0.0,0.0,0.0,0.0,0.0,0.0,0.0,0.0,0.0,0.0,-1.6093,-1.5049,-1.472,-1.4922,-1.4355,-1.3974,-1.365,-1.2736,0.0,0.0,0.0,0.0,0.0,0.0,0.0,0.0,0.0,0.0,0.0,0.0,0.0,-0.7722,-0.7591,-0.7521,-0.7456,-0.7265,0.0,-0.6881,-0.6749,-0.6552,-0.6416,-0.635,-0.5547,-0.4616,-0.3816,-0.2679,-0.1543,-0.0873,0.0134,0.0,0.0874,0.0672,0.0605,0.0,0.0,0.0,-0.0672,-0.0941,-0.108,0.0,-0.1123,0.0,-0.1183,-0.1214,-0.1239,0.0,-0.1335,-0.1335,-0.1335,-0.1335,-0.1335,-0.1335,-0.1335,-0.1335,-0.1335,-0.1335,-0.1335,-0.1335,-0.1335,-0.1335,-0.1335,-0.1335,-0.1335,-0.1336,0.0,-0.1207,-0.114,-0.1152,-0.0921,-0.0513,-0.0513,-0.0344,0.0,0.0,0.0,0.0,0.0,0.0,0.0,0.0,0.0,0.0,0.0,0.0,0.0,0.0,0.0,0.0,0.0,0.0,0.0,0.0,0.0,0.0,0.0,0.0,0.0,0.0,0.0,0.0,0.0,0.0,0.0,0.0,0.0,0.0,0.0,0.0,0.0,0.0,0.0,0.0,0.0,0.0,0.0,0.0,0.0,0.0,0.0,0.0,0.0,0.0,0.0,0.0,0.0,0.0,-0.7326,-0.7396,-0.726,-0.726,-0.7195,-0.6741,-0.6679,-0.6679,-0.635,-0.6284,-0.6284,-0.6145,-0.5411,-0.4483,-0.3551,-0.2278,-0.114,-0.0403,0.0,0.1277,0.1277,0.0941,0.0605,0.0739,0.0,-0.0941,-0.0874,-0.1008,-0.1087,-0.1117,-0.1148,-0.1179,-0.1209,-0.1239,-0.1335,-0.1335,-0.1335,-0.1335,-0.1335,-0.1335,-0.1335,-0.1335,-0.1335,-0.1335,-0.1335,-0.1335,-0.1335,-0.1335,-0.1335,-0.1335,-0.1335,-0.1335,-0.1338,-0.1264,-0.1291,-0.1307,-0.1316,-0.1343,-0.1028,-0.0699,-0.0699,-0.0442,0.0,0.0,0.0,0.0,0.0,0.0,0.0,0.0,0.0,0.0,0.0,0.0,0.0,0.0,1.6577,1.344,0.0,0.0,0.0,0.0,0.0,0.0,0.0,0.0,0.0,0.0,0.0,0.0,0.0,0.0,0.0,0.0,0.0,0.0,0.0,0.0,0.0,0.0,0.0,0.0,0.0,0.0,0.0,0.0,0.0,0.0,0.0,0.0,0.0,0.0,0.0,0.0,0.0,0.0,-0.64,-0.6876,-0.6145,-0.5943,-0.5811,-0.5345,-0.5481,-0.5815,-0.5749,-0.5749,-0.5749,-0.5683,-0.4948,-0.388,-0.2809,-0.2076,0.0,0.0,0.0672,0.1143,0.1277,0.121,0.1344,0.1817,0.0,0.0,0.0,0.0,-0.1087,0.0,0.0,0.0,0.0,-0.1239,0.0,0.0,-0.1335,-0.1335,-0.1335,-0.1335,-0.1335,-0.1335,-0.1335,-0.1335,-0.1335,-0.1335,-0.1335,-0.1335,-0.1335,-0.1335,-0.1335,-0.1335,-0.1271,-0.1295,-0.13,0.0,-0.1375,-0.138,-0.1138,-0.0714,-0.0714,-0.0447,0.0,0.0,0.0,0.0,0.0,0.0,0.0,0.0,0.0,0.0,0.0,0.0,2.043,2.0408,1.8802,1.6592,1.3791,0.8757,0.0,0.0,0.0,0.0,0.0,0.0,0.0,0.0,0.0,0.0,0.0,0.0,0.0,0.0,0.0,0.0,0.0,0.0,0.0,0.0,0.0,0.0,0.0,0.0,0.0,0.0,0.0,0.0,0.0,0.0,0.0,0.0,0.0,0.0,0.0,0.0,-0.547,-0.5203,-0.5014,-0.4951,-0.4885,-0.4616,-0.4815,-0.515,-0.4951,-0.5084,-0.515,-0.5087,-0.4217,-0.3213,-0.2412,0.0,0.0,0.0,0.1143,0.1547,0.1748,0.148,0.0,0.0,0.0,0.0,0.0,0.0,0.0,0.0,0.0,0.0,0.0,-0.1249,-0.1335,-0.1335,-0.1335,-0.1335,-0.1335,-0.1335,-0.1335,-0.1335,-0.1335,-0.1335,-0.1335,-0.1335,-0.1335,-0.1335,-0.1335,-0.1335,-0.1335,-0.1335,-0.1274,-0.1303,-0.1319,-0.135,-0.1391,-0.1407,-0.1155,-0.0718,-0.0718,-0.0449,0.0,0.0,0.0,0.0,0.0,0.0,0.0,0.0,0.0,0.0,0.0,2.0512,2.0502,2.0457,2.0462,1.9635,1.7444,1.2172,0.6687,0.0,0.0,0.0,0.0,0.0,0.0,0.0,0.0,0.0,0.0,0.0,0.0,0.0,0.0,0.0,0.0,0.0,0.0,0.0,0.0,0.0,0.0,0.0,0.0,0.0,0.0,0.0,0.0,0.0,0.0,0.0,0.0,0.0,0.0,0.0,-0.4478,-0.354,-0.3682,-0.3682,-0.368,-0.3749,-0.388,-0.4008,-0.3747,-0.3877,-0.401,-0.3949,-0.308,-0.2144,-0.1677,-0.0537,0.0,0.0,0.1547,0.1884,0.2154,0.0,0.1546,0.0,0.1142,0.0,0.0,0.0,0.0,0.0,0.0,0.0,0.0,-0.1335,0.0,-0.1335,-0.1335,-0.1335,-0.1335,-0.1335,-0.1335,-0.1335,-0.1335,-0.1335,-0.1335,-0.1335,-0.1335,-0.1335,-0.1335,-0.1335,-0.1335,-0.1335,-0.1277,-0.1313,-0.1337,-0.1367,-0.1401,-0.1336,-0.1076,-0.0718,-0.0628,-0.0359,0.0,0.0,0.0,0.0,0.0,0.0,0.0,0.0,0.0,0.0,0.0,2.055,2.0521,2.0579,2.0473,2.0337,2.0134,1.5082,0.9089,0.0,0.0,0.0,0.0,0.0,0.0,0.0,0.0,0.0,0.0,0.0,0.0,0.0,0.0,0.0,0.0,0.0,0.0,0.0,0.0,0.0,0.0,0.0,0.0,0.0,0.0,0.0,0.0,0.0,0.0,0.0,0.0,0.0,0.0,0.0,0.0,-0.2684,-0.2016,-0.1743,-0.1671,-0.2009,0.0,0.0,-0.1603,-0.1603,-0.1603,-0.1603,-0.0938,-0.0201,0.0201,0.0,0.0,0.1681,0.1748,0.1748,0.2154,0.2154,0.2285,0.0,0.0,0.1276,0.0,0.0,0.0,0.0,0.0,0.0,0.0,-0.1335,-0.1335,-0.1335,-0.1335,-0.1335,-0.1335,-0.1335,-0.1335,-0.1335,-0.1335,-0.1335,-0.1335,-0.1335,-0.1335,-0.1335,-0.1335,-0.1335,-0.1335,-0.1335,-0.1289,-0.126,-0.1263,-0.138,0.0,-0.1165,-0.0987,-0.0718,-0.0538,-0.0269,0.0,0.0,0.0,0.0,0.0,0.0,0.0,0.0,0.0,0.0,1.9811,2.0204,1.9999,1.8467,1.8467,1.8604,1.8636,1.544,1.109,0.0,0.0,0.0,0.0,0.0,0.0,0.0,0.0,0.0,0.0,0.0,0.0,0.0,0.0,0.0,0.0,0.0,0.0,0.0,0.0,0.0,0.0,0.0,0.0,0.0,0.0,0.0,0.0,0.0,0.0,0.0,0.0,0.0,0.0,0.0,0.0,0.0,-0.1277,-0.047,0.0,0.0,-0.0871,-0.0803,-0.0603,-0.067,-0.0803,-0.0803,-0.0402,0.0067,0.0403,0.0,0.1143,0.1749,0.2218,0.242,0.2221,0.2889,0.342,0.3215,0.0,0.0,0.0,0.0,0.0,0.0,0.0,0.0,0.0,0.0,-0.1335,-0.1335,-0.1335,-0.1335,-0.1335,-0.1335,-0.1335,-0.1335,-0.1335,-0.1335,-0.1335,-0.1335,-0.1335,-0.1335,-0.1335,-0.1335,-0.1335,-0.1335,-0.129,-0.1263,-0.1263,-0.1381,0.0,-0.1166,-0.0987,-0.0718,-0.0448,-0.0269,0.0,0.0,0.0,0.0,0.0,0.0,0.0,0.0,0.0,1.9573,1.9252,1.9769,1.9276,1.6752,1.6866,1.7185,1.7144,1.5323,1.2602,0.8866,0.0,0.0,0.0,0.0,0.0,0.0,0.0,0.0,0.0,0.0,0.0,-1.3564,-1.2211,0.0,0.0,0.0,0.0,0.0,0.0,0.0,0.0,0.0,0.0,0.0,0.0,0.0,0.0,0.0,0.0,0.0,0.0,0.0,0.0,0.0,0.0,0.0,0.0,0.0,0.0,0.0,0.0067,0.0268,0.0538,0.047,0.0268,0.0268,0.047,0.0739,0.0,0.0,0.1546,0.215,0.2688,0.2956,0.2822,0.3623,0.4217,0.3882,0.0,0.4151,0.3875,0.0,0.0,0.0,0.0,-0.0531,0.0,-0.1178,-0.1335,-0.1335,-0.1335,-0.1335,-0.1335,-0.1335,-0.1335,-0.1335,-0.1335,-0.1335,-0.1335,-0.1335,-0.1335,-0.1335,-0.1335,-0.1335,-0.1335,-0.1335,-0.129,-0.1263,-0.1263,-0.1295,0.0,-0.1076,-0.0807,-0.0628,-0.0359,-0.018,0.0,0.0,0.0,0.0,0.0,0.0,0.0,0.0,0.0,0.0,0.0,1.92,1.8381,1.6111,1.6317,1.6648,1.652,1.5069,1.3566,1.227,0.0,0.0,0.0,0.0,0.0,0.0,0.0,0.0,0.0,0.0,0.0,-1.3215,-1.2395,-1.1814,-1.1416,0.0,0.0,0.0,0.0,0.0,0.0,0.0,0.0,0.0,0.0,0.0,0.0,0.0,0.0,0.0,0.0,0.0,0.0,0.0,0.0,0.0,0.0,0.0,0.0,0.0,0.1143,0.1951,0.2154,0.2154,0.2154,0.2154,0.2154,0.2154,0.0,0.0,0.2151,0.3017,0.3086,0.3291,0.4087,0.4287,0.4553,0.5279,0.4749,0.0,0.4478,0.0,0.0,0.0,0.0,-0.0372,-0.0313,-0.0943,-0.1335,-0.1335,-0.1335,0.0,-0.1335,-0.1335,-0.1335,-0.1335,-0.1335,-0.1335,-0.1335,-0.1335,-0.1335,-0.1335,-0.1335,-0.1335,-0.1335,-0.1335,-0.129,-0.1263,-0.1263,-0.1208,0.0,-0.0807,-0.0628,-0.0359,-0.009,0.0,0.0,0.0,0.0,0.0,0.0,0.0,0.0,0.0,0.0,0.0,0.0,1.8601,1.7954,1.5457,1.4217,1.4273,1.6103,1.4648,1.3518,1.3442,0.0,0.0,0.0,0.0,0.0,0.0,0.0,0.0,0.0,0.0,-1.1132,-1.1023,-0.9445,-0.858,-0.8429,-0.7906,-0.7913,0.0,0.0,0.0,0.0,0.0,0.0,0.0,0.0,0.0,0.0,0.0,0.0,0.0,0.0,0.0,0.0,0.0,0.0,0.0,0.0,0.0,0.0,0.288,0.0,0.0,0.3418,0.3153,0.2885,0.2885,0.2554,0.2287,0.2751,0.0,0.3017,0.3818,0.435,0.455,0.4353,0.5087,0.5683,0.5411,0.5617,0.0,0.0,0.0,0.0,0.1764,0.0073,-0.0985,0.0,0.0,-0.1335,-0.1335,-0.1335,-0.1335,-0.1335,-0.1335,-0.1335,-0.1335,-0.1335,-0.1335,-0.1335,-0.1335,-0.1335,-0.1335,-0.1335,-0.1335,-0.1335,-0.1335,-0.1279,-0.1318,-0.1339,-0.1199,-0.1056,-0.0803,-0.0538,-0.0359,-0.009,0.0,0.0,0.0,0.0,0.0,0.0,0.0,0.0,0.0,0.0,0.0,0.0,1.7937,1.6971,1.3615,1.2406,1.2586,1.454,1.3878,1.3828,1.5173,0.0,0.0,0.0,0.0,0.0,0.0,0.0,0.0,0.0,-1.0687,-0.9776,-0.9511,-0.8171,-0.745,-0.7187,-0.6858,-0.6858,-0.7133,-0.6539,0.0,0.0,0.0,0.0,0.0,0.0,0.0,-0.3174,0.0,0.0,0.0,0.0,0.0,0.0,0.0,0.0,0.0,0.0,0.0,0.0,0.0,0.5137,0.5071,0.0,0.3885,0.3618,0.3618,0.3286,0.0,0.0,0.0,0.3818,0.4616,0.5147,0.5345,0.5213,0.5885,0.6284,0.5815,0.6148,0.6148,0.0,0.0,0.0,0.1416,0.0,0.0,0.0,-0.1335,-0.1335,-0.1335,-0.1335,-0.1335,-0.1335,-0.1335,-0.1335,-0.1335,-0.1335,-0.1335,-0.1335,-0.1335,-0.1335,-0.1335,-0.1335,-0.1335,-0.1335,-0.1335,-0.1274,-0.1304,-0.1251,-0.1109,0.0,-0.0712,-0.0448,-0.0269,-0.009,0.0,0.0,0.0,0.0,0.0,0.0,0.0,0.0,0.0,0.0,0.0,0.0,0.0,0.0,1.1372,1.1126,1.1696,1.2625,1.3159,1.4551,1.7353,0.0,0.0,0.0,0.0,0.0,0.0,0.0,0.0,0.0,-0.9828,-0.9356,-0.8626,-0.8271,-0.7806,-0.7122,-0.6907,-0.6696,-0.6534,-0.6381,-0.6109,-0.5837,-0.4959,-0.4629,-0.4622,-0.3234,-0.2625,0.0,0.0,0.0,0.0,0.0,0.0,0.0,0.0,0.0,0.0,0.0,0.0,0.0,0.0,0.0,0.0,0.0,0.4486,0.0,0.0,0.0,0.0,0.0,0.0,0.0,0.5547,0.5675,0.5873,0.6605,0.6609,0.6482,0.642,0.642,0.6148,0.0,0.4616,0.0,0.0,0.0447,0.0,-0.1176,-0.1335,-0.1335,-0.1335,-0.1335,-0.1335,-0.1335,-0.1335,-0.1335,-0.1335,-0.1335,-0.1335,-0.1335,-0.1335,-0.1335,-0.1335,-0.1335,-0.1335,-0.1335,-0.1257,-0.1273,0.0,-0.1082,-0.0851,-0.0696,-0.0444,-0.0269,0.0,0.0,0.0,0.0,0.0,0.0,0.0,0.0,0.0,0.0,0.0,0.0,0.0,0.0,0.0,0.0,0.0,1.2146,1.2256,1.5574,1.5189,1.6009,0.0,0.0,0.0,0.0,0.0,0.0,0.0,0.0,0.0,0.0,-0.9386,-0.8305,-0.7929,-0.6902,-0.605,-0.5441,-0.5504,-0.5614,-0.5837,-0.5344,-0.4908,-0.4577,-0.3796,-0.3461,-0.3347,-0.279,-0.2068,0.0,0.0,0.0,0.0,0.1119,0.1953,0.0,0.0,0.0,0.0,0.0,0.0,0.0,0.0,0.7825,0.7757,0.6972,0.0,0.5156,0.514,0.474,0.4478,0.0,0.0,0.0,0.0,0.0,0.0,0.0,0.7447,0.719,0.6482,0.642,0.5951,0.4752,0.0,0.0,0.0507,0.0073,-0.0449,-0.1252,-0.1335,-0.1335,-0.1335,-0.1335,-0.1335,-0.1335,-0.1335,-0.1335,-0.1335,-0.1335,-0.1335,-0.1335,-0.1335,-0.1335,-0.1335,-0.1335,-0.1335,-0.1257,-0.11,-0.1025,-0.0952,-0.0813,-0.0665,-0.0425,-0.0434,-0.0266,0.0,0.0,0.0,0.0,0.0,0.0,0.0,0.0,0.0,0.0,0.0,0.0,0.0,0.0,0.0,0.0,0.0,0.0,0.0,0.0,0.0,0.0,0.0,0.0,0.0,0.0,0.0,0.0,0.0,0.0,0.0,-0.9703,-0.8094,-0.7154,-0.6993,-0.6213,-0.5513,-0.4897,-0.4677,-0.4677,-0.4849,-0.4242,-0.3796,-0.3463,-0.3021,-0.2742,-0.2517,-0.2069,0.0,0.0,0.0,0.0,0.0,0.2122,0.301,0.0,0.4395,0.5282,0.6276,0.0,0.0,0.0,0.0,0.8617,0.8608,0.7742,0.6911,0.6342,0.6384,0.5796,0.554,0.6588,0.0,0.0,0.0,0.0,0.0,0.0,0.0,0.6666,0.6416,0.5885,0.0,0.0,0.0,0.1503,0.0996,0.0362,-0.037,0.0,-0.1249,-0.1335,-0.1335,-0.1335,-0.1335,-0.1335,-0.1335,-0.1335,-0.1335,-0.1335,-0.1335,-0.1335,-0.1335,-0.1335,-0.1335,-0.1335,-0.1335,-0.1257,-0.1021,-0.0864,-0.0865,-0.0645,-0.041,-0.0332,-0.0255,-0.0174,0.0,0.0,0.0,0.0,0.0,0.0,0.0,0.0,0.0,0.0,0.0,0.0,0.0,0.0,0.0,0.0,0.0,0.0,0.0,0.0,0.0,0.0,0.0,0.0,0.0,0.0,0.0,0.0,0.0,0.0,-0.7275,-0.7147,-0.622,-0.5751,-0.5756,-0.5324,-0.4944,-0.456,-0.4006,-0.3788,-0.3744,-0.313,-0.2794,-0.2625,-0.235,-0.2069,-0.1675,-0.1007,0.0,0.0,0.0,0.0,0.0,0.0,0.0,0.0,0.5324,0.6091,0.6949,0.7982,0.0,0.0,0.0,0.0,0.0,0.8158,0.7742,0.7587,0.7377,0.6863,0.6741,0.7907,0.0,0.0,0.0,0.0,0.0,0.0,0.685,0.0,0.0,0.0,0.0,0.4151,0.3021,0.2039,0.1463,0.0788,0.0,-0.1133,-0.1239,-0.1335,-0.1335,-0.1335,-0.1335,-0.1335,-0.1335,-0.1335,-0.1335,-0.1335,-0.1335,-0.1335,-0.1335,-0.1335,-0.1335,-0.1335,-0.1335,-0.1257,-0.1021,-0.0864,-0.0865,0.0,0.0,-0.0245,-0.0083,0.0,0.0,0.0,0.0,0.0,0.0,0.0,0.0,0.0,0.0,0.0,0.0,0.0,0.0,0.0,0.0,0.0,0.0,0.0,0.0,0.0,0.0,0.0,0.0,0.0,0.0,0.0,0.0,0.0,0.0,-0.5567,-0.6284,-0.4698,-0.4041,-0.373,-0.3747,-0.2581,-0.2367,-0.3049,-0.2777,-0.2672,-0.2679,-0.2124,-0.2011,-0.2232,-0.1455,-0.0557,0.0442,0.0941,0.0,0.0,0.0,0.0,0.0,0.0,0.0,0.0,0.566,0.6529,0.767,0.8459,0.0,0.0,0.0,0.0,0.0,0.9367,0.8768,0.8037,0.6872,0.6482,0.6482,0.6679,0.0,0.0,0.0,0.0,0.0,0.0,0.7642,0.6985,0.0,0.0,0.4087,0.0,0.0,0.1835,0.0768,0.0,0.0,-0.1133,-0.1239,-0.1335,-0.1335,-0.1335,-0.1335,-0.1335,-0.1335,-0.1335,-0.1335,-0.1335,-0.1335,-0.1335,-0.1335,-0.1335,-0.1335,-0.1335,-0.1335,-0.1257,-0.0864,-0.0628,-0.0629,0.0,-0.008,-0.0081,0.0,0.0,0.0,0.0,0.0,0.0,0.0,0.0,0.0,0.0,0.0,0.0,0.0,0.0,0.0,0.0,0.0,0.0,0.0,0.0,0.0,0.0,0.0,0.0,0.0,0.0,0.0,0.0,0.0,0.0,-0.1144,-0.3104,-0.3707,-0.272,-0.1929,-0.181,-0.2477,-0.1538,-0.1323,-0.1832,-0.1614,-0.1227,-0.0783,-0.1064,-0.1231,-0.1174,-0.0728,0.0223,0.1384,0.0,0.0,0.0,0.0,0.0,0.0,0.0,0.0,0.0,0.0,0.7859,0.8778,0.9547,0.0,0.0,0.0,0.0,0.0,0.9655,0.9041,0.8227,0.7143,0.6626,0.6474,0.6772,0.0,0.0,0.0,0.0,0.0,0.0,0.0,0.5463,0.3949,0.0,0.3616,0.3218,0.2621,0.1892,0.0,0.0,0.0,-0.111,-0.1215,-0.1239,-0.1334,-0.1335,-0.1335,-0.1335,-0.1335,-0.1335,-0.1335,-0.1335,-0.1257,-0.11,-0.11,-0.1178,-0.1335,-0.1178,-0.11,-0.11,-0.0628,-0.0471,-0.0393,0.0,0.0,0.0,0.0,0.0,0.0,0.0,0.0,0.0,0.0,0.0,0.0,0.0,0.0,0.0,0.0,0.0,0.0,0.0,0.0,0.0,0.0,0.0,0.0,0.0,0.0,0.0,0.0,0.0,0.0,0.0,0.0,0.5556,0.1517,0.0796,0.0188,-0.0404,0.0265,0.0163,-0.088,-0.011,0.0,-0.0557,-0.0279,0.0112,0.0505,-0.0056,-0.0224,-0.0056,0.0336,0.1226,0.2275,0.0,0.0,0.0,0.0,0.0,0.0,0.0,0.0,0.0,0.0,0.0,0.0,0.0,0.0,0.0,1.0729,1.0562,1.0168,0.9813,0.9144,0.8302,0.762,0.0,0.6474,0.6677,0.6441,0.0,0.0,0.0,0.0,0.0,0.503,0.0,0.2621,0.2885,0.3149,0.3017,0.2554,0.2017,0.1409,0.0826,0.0071,-0.1091,-0.1194,-0.1224,-0.1333,-0.1335,-0.1335,-0.1335,-0.1335,-0.1335,-0.1335,-0.1257,-0.11,-0.0864,-0.0864,-0.0943,-0.11,-0.0943,-0.0864,-0.0786,-0.0471,-0.0314,-0.0314,-0.0079,0.0,0.0,0.0,0.0,0.0,0.0,0.0,0.0,0.0,0.0,0.0,0.0,0.0,0.0,0.0,0.0,0.0,0.0,0.0,0.0,0.0,0.0,0.0,0.0,0.0,0.0,0.0,0.0,0.0,0.0,0.0,1.0318,0.7585,0.7128,0.5663,0.2916,0.262,0.2289,0.1928,0.3214,0.2841,0.0953,0.1399,0.1064,0.0112,0.1004,0.1173,0.0897,0.2119,0.3111,0.388,0.4051,0.0,0.0,0.0,0.0,0.0,0.0,0.0,0.0,0.0,0.0,0.0,0.0,0.0,1.0076,1.1154,1.0723,0.9998,1.0408,0.956,0.844,0.8179,0.7263,0.0,0.5456,0.5387,0.0,0.574,0.0,0.0,0.0,0.3887,0.3282,0.3149,0.3151,0.295,0.2354,0.0,0.1817,0.0739,0.0551,0.0071,-0.1091,-0.1194,-0.1224,-0.1333,-0.1335,-0.1335,-0.1335,-0.1335,-0.1335,-0.1335,-0.1021,-0.0943,-0.0864,-0.0707,-0.0628,-0.0629,-0.0628,-0.0628,-0.0628,-0.0393,-0.0314,-0.0314,-0.0079,0.0,0.0,0.0,0.0,0.0,0.0,0.0,0.0,0.0,0.0,0.0,0.0,0.0,0.0,0.0,0.0,0.0,0.0,0.0,0.0,0.0,0.0,0.0,0.0,0.0,0.0,0.0,0.0,0.0,0.0,0.0,1.1038,0.8882,0.8557,0.7893,0.684,0.5726,0.4476,0.3011,0.3741,0.3729,0.306,0.3608,0.344,0.2726,0.2881,0.2609,0.2063,0.2672,0.339,0.4161,0.433,0.5214,0.0,0.0,0.0,0.0,0.0,0.0,0.0,0.0,1.0108,1.0854,1.1819,1.1778,1.14,1.1593,1.1296,1.085,1.067,0.9491,0.8302,0.8249,0.7254,0.0,0.0,0.4541,0.4576,0.4188,0.3842,0.0,0.0,0.0,0.2552,0.2552,0.2552,0.2487,0.2221,0.1884,0.1344,0.0605,0.0204,-0.0276,-0.1064,-0.1166,-0.1196,-0.1227,-0.1246,-0.1335,-0.1335,-0.1178,-0.1021,-0.1021,-0.0864,-0.0629,-0.055,-0.0471,-0.0314,-0.0236,-0.0393,-0.0393,-0.0393,-0.0236,-0.0079,-0.0079,0.0,0.0,0.0,0.0,0.0,0.0,0.0,0.0,0.0,0.0,0.0,0.0,0.0,0.0,0.0,0.0,0.0,0.0,0.0,0.0,0.0,0.0,0.0,0.0,0.0,0.0,0.0,0.0,0.0,0.0,0.0,1.2603,1.2564,1.0924,1.0442,0.9997,0.9484,0.8201,0.6712,0.496,0.4839,0.4656,0.4488,0.4922,0.4867,0.4426,0.447,0.4091,0.3495,0.3773,0.4106,0.4494,0.4608,0.5433,0.0,0.0,0.0,0.0,0.0,0.0,0.0,0.0,1.0787,1.1427,1.2234,1.2393,1.2167,1.1834,1.1351,1.0901,1.0345,0.9075,0.7894,0.0,0.0,0.0,0.4446,0.422,0.4053,0.3102,0.2898,0.0,0.0,0.0,0.0,0.0,0.2221,0.2154,0.1951,0.1547,0.1008,0.0336,-0.0067,-0.0544,-0.1048,-0.114,-0.1169,-0.1209,-0.1231,-0.1247,-0.1178,-0.1021,-0.0864,-0.0786,-0.0628,-0.0471,-0.0314,-0.0236,-0.0157,0.0,-0.0157,-0.0236,-0.0236,-0.0079,0.0,0.0,0.0,0.0,0.0,0.0,0.0,0.0,0.0,0.0,0.0,0.0,0.0,0.0,0.0,0.0,0.0,0.0,0.0,0.0,0.0,0.0,0.0,0.0,0.0,0.0,0.0,0.0,0.0,0.0,0.0,0.0,1.3908,1.5255,1.5617,1.4456,1.3597,1.2304,1.0587,0.974,0.8941,0.819,0.6985,0.595,0.514,0.514,0.4907,0.4501,0.5562,0.5684,0.514,0.5756,0.5651,0.5109,0.5277,0.5336,0.5445,0.0,0.0,0.0,0.0,0.0,0.0,0.0,1.0787,1.1427,1.2224,0.0,1.2052,1.1795,1.0901,0.991,0.9424,0.8254,0.0,0.0,0.0,0.0,0.4647,0.4289,0.3919,0.2491,0.0,0.2221,0.2221,0.0,0.0,0.2221,0.2221,0.2018,0.1412,0.1277,0.0874,-0.0202,-0.0336,-0.0544,-0.1047,-0.1121,-0.1146,-0.1206,-0.1211,-0.1148,-0.0941,-0.0864,-0.0786,-0.0628,-0.0393,-0.0314,-0.0314,-0.0079,0.0,0.0,0.0,0.0,0.0,0.0,0.0,0.0,0.0,0.0,0.0,0.0,0.0,0.0,0.0,0.0,0.0,0.0,0.0,0.0,0.0,0.0,0.0,0.0,0.0,0.0,0.0,0.0,0.0,0.0,0.0,0.0,0.0,0.0,0.0,0.0,0.0,0.0,0.0,1.5932,1.6115,1.521,1.4544,1.3746,1.2776,1.1369,0.9838,0.8184,0.7269,0.6886,0.7052,0.7326,0.7208,0.6865,0.7326,0.6902,0.5923,0.6416,0.615,0.5504,0.6263,0.6588,0.6647,0.0,0.0,0.0,0.0,0.0,0.0,0.0,0.0,0.0,1.1769,0.0,1.2924,1.1945,1.1811,1.172,1.05,0.9091,0.0,0.8093,0.0,0.0,0.0,0.4303,0.0,0.0,0.2221,0.2221,0.2221,0.0,0.0,0.2221,0.2221,0.2018,0.1412,0.1008,0.047,-0.0202,-0.0605,-0.0944,-0.1088,-0.1108,-0.1128,-0.1147,-0.1187,-0.1139,-0.0918,-0.0778,-0.0628,-0.0393,-0.0157,-0.0079,-0.0079,0.0,0.0,0.0,0.0,0.0,0.0,0.0,0.0,0.0,0.0,0.0,0.0,0.0,0.0079,0.0236,0.0079,0.0,0.0,0.0157,0.0236,0.0236,0.0,0.0,0.0,0.0,0.0,0.0,0.0,0.0,0.0,0.0,0.0,0.0,0.0,0.0,0.0,0.0,0.0,0.0,0.0,0.0,1.7245,1.6723,1.5734,1.4583,1.32,1.1942,1.0717,0.9534,0.8391,0.8127,0.8659,0.858,0.8573,0.8659,0.8527,0.8096,0.7439,0.7283,0.6858,0.6322,0.6918,0.7139,0.7139,0.0,0.0,0.0,0.0,0.0,0.0,0.0,0.0,0.0,1.1769,0.0,1.2848,1.1906,1.1621,1.1373,0.9982,0.0,0.0,0.7527,0.6362,0.5014,0.4092,0.0,0.0,0.0,0.0,0.2221,0.2221,0.2221,0.0,0.2221,0.2018,0.1614,0.1076,0.0538,0.0,-0.0538,-0.0874,-0.1076,-0.1076,-0.1093,-0.1108,-0.112,-0.1083,-0.0964,-0.0756,-0.0614,-0.0389,-0.0157,-0.0079,0.0,0.0,0.0,0.0,0.0,0.0,0.0,0.0,0.0,0.0,0.0,0.0,0.0079,0.0157,0.0157,0.0157,0.0314,0.0236,0.0157,0.0157,0.0314,0.0393,0.0471,0.0,0.0,0.0,0.0,0.0,0.0,0.0,0.0,0.0,0.0,0.0,0.0,0.0,0.0,0.0,0.0,0.0,0.0,0.0,0.0,1.8622,1.8501,1.6892,1.4935,1.2657,1.1936,1.1623,1.1671,1.0007,0.9427,0.9865,0.9263,0.9263,0.9762,0.9211,0.9106,0.9354,0.8302,0.7664,0.7391,0.7396,0.7295,0.7246,0.7735,0.0,0.0,0.0,0.0,0.0,0.0,0.0,0.0,1.2063,1.2332,1.2261,1.172,1.0885,0.9787,0.8495,0.0,0.0,0.6199,0.5624,0.0,0.3435,0.2627,0.2221,0.2221,0.0,0.2221,0.2221,0.2221,0.2154,0.2154,0.1681,0.1076,0.0538,0.0,-0.047,-0.1008,-0.1076,-0.1076,-0.1076,-0.1076,-0.1087,-0.1045,-0.0979,-0.0787,-0.06,-0.0378,-0.0229,0.0,0.0,0.0,0.0,0.0,0.0,0.0,0.0,0.0,0.0,0.0,0.0,0.0,0.0,0.0157,0.0314,0.0314,0.0314,0.0393,0.055,0.0471,0.0314,0.055,0.0628,0.0628,0.0,0.0,0.0,0.0,0.0,0.0,0.0,0.0,0.0,0.0,0.0,0.0,0.0,0.0,0.0,0.0,0.0,0.0,0.0,0.0,1.8897,1.8516,1.6928,1.5523,1.4318,1.3433,1.2946,1.2896,1.0776,0.9907,1.0261,1.021,1.0064,0.9814,1.0064,0.9953,0.954,0.919,0.8712,0.8224,0.8096,0.8002,0.7949,0.7901,0.8109,0.0,0.0,0.0,0.0,0.0,0.0,0.0,1.1972,1.2565,1.2957,1.2208,1.1496,1.0669,0.9372,0.8086,0.0,0.0,0.5738,0.4159,0.2758,0.2288,0.2221,0.2221,0.2221,0.2221,0.2221,0.2221,0.2018,0.1547,0.1412,0.0941,0.0,-0.0202,-0.047,-0.1008,-0.1076,-0.1076,-0.1076,-0.1076,-0.1012,-0.0883,-0.0901,-0.0774,-0.0356,-0.0296,-0.0228,0.0,0.0,0.0,0.0,0.0,0.0,0.0,0.0,0.0,0.0,0.0,0.0,0.0,0.0,0.0236,0.055,0.0393,0.0471,0.0786,0.0628,0.055,0.055,0.0786,0.0864,0.0864,0.0,0.0,0.0,0.0,0.0,0.0,0.0,0.0,0.0,0.0,0.0,0.0,0.0,0.0,0.0,0.0,0.0,0.0,0.0,0.0,0.0,1.8589,1.7411,1.6333,1.5399,1.4473,1.4113,1.4247,1.2892,0.0,0.0,0.0,0.0,1.0694,0.0,1.0356,0.9946,0.9658,0.9138,0.8554,0.8368,0.8321,0.8268,0.8008,0.8109,0.8421,0.8685,0.0,0.0,0.0,0.0,0.0,0.0,0.0,1.2735,1.2183,1.1632,1.0885,0.9122,0.0,0.0,0.6129,0.0,0.3485,0.2421,0.2221,0.2221,0.2221,0.2221,0.2221,0.2221,0.1951,0.1681,0.1344,0.0874,0.0336,-0.0202,-0.0538,-0.0806,-0.1076,-0.1076,-0.1076,-0.1076,-0.1009,-0.0943,-0.0809,-0.0683,-0.0553,-0.028,-0.0216,-0.0074,0.0,0.0,0.0,0.0,0.0,0.0,0.0,0.0,0.0,0.0,0.0,0.0,0.0,0.0079,0.0314,0.0628,0.0628,0.0707,0.0864,0.0943,0.0864,0.0786,0.1021,0.11,0.11,0.0,0.0,0.0,0.0,0.0,0.0,0.0,0.0,0.0,0.0,0.0,0.0,0.0,0.0,0.0,0.0,0.0,0.0,0.0,0.0,0.0,0.0,1.8055,1.7249,1.6427,1.5647,1.5313,1.5462,0.0,0.0,0.0,0.0,0.0,1.1891,0.0,1.0872,1.0669,1.002,0.9458,0.904,0.8633,0.8474,0.8527,0.8215,0.8321,0.8633,0.9204,0.9517,0.9873,1.0964,0.0,0.0,0.0,0.0,1.2543,1.2222,1.1753,1.0836,0.879,0.0,0.7116,0.468,0.3685,0.0,0.2354,0.2221,0.2221,0.2221,0.2221,0.2154,0.2085,0.1614,0.121,0.1076,0.0269,-0.0336,-0.0403,-0.0807,-0.1076,-0.1076,-0.1076,-0.1076,-0.1076,-0.0943,-0.0809,-0.0742,-0.0472,-0.0272,-0.0278,-0.007,0.0,0.0,0.0,0.0,0.0,-0.0156,-0.0156,0.0,0.0,0.0079,0.0079,0.0079,0.0079,0.0079,0.0236,0.0471,0.0629,0.0864,0.0943,0.1021,0.1178,0.1178,0.1021,0.1178,0.1257,0.1178,0.0,0.0,0.0,0.0,0.0,0.0,0.0,0.0,0.0,0.0,0.0,0.0,0.0,0.0,0.0,0.0,0.0,0.0,2.0507,0.0,0.0,1.9745,1.8732,1.8126,1.8013,1.7659,1.7026,1.6166,0.0,0.0,0.0,0.0,0.0,1.2878,0.0,0.0,1.1968,1.0779,1.0533,1.0804,0.9197,0.8837,0.9256,0.9106,0.9106,0.9361,0.9865,1.0482,1.1065,1.1217,1.184,0.0,0.0,0.0,1.3645,1.3382,1.2273,1.092,0.0,0.0,0.5147,0.0,0.3282,0.3017,0.0,0.0,0.2221,0.0,0.2221,0.2018,0.1547,0.1344,0.1008,0.0067,-0.0202,-0.047,-0.0941,-0.1076,-0.1076,-0.1076,-0.1076,-0.1076,-0.1076,-0.0943,-0.0742,-0.0539,-0.0404,-0.0203,-0.0068,0.0,0.0,0.0,0.0,0.0,0.0,-0.076,-0.0768,0.0,0.0157,0.0314,0.055,0.055,0.0393,0.0236,0.0471,0.0707,0.0864,0.0864,0.1021,0.1257,0.1257,0.1257,0.1257,0.1021,0.0943,0.0864,0.0,0.0,0.0,0.0,0.0,0.0,0.0,0.0,0.0,0.0,0.0,0.0,0.0,0.0,0.0,2.0321,2.0344,2.0395,2.0488,2.0426,2.023,1.9913,1.9163,1.8713,1.8638,1.8411,1.813,0.0,0.0,0.0,0.0,1.5799,1.4563,0.0,0.0,0.0,0.0,1.1259,1.0947,1.0685,0.951,0.9256,0.948,0.0,0.0,0.0,0.0,0.0,1.128,1.2114,1.2715,1.3094,1.3497,0.0,0.0,0.0,1.2749,0.0,0.8873,0.6694,0.4806,0.0,0.2885,0.2554,0.2288,0.0,0.2221,0.2221,0.2221,0.2087,0.1884,0.1277,0.0672,0.0202,-0.0336,-0.0807,-0.1076,-0.1076,-0.1076,-0.1076,-0.1076,-0.1076,-0.0942,-0.0741,-0.0539,-0.0404,-0.0202,-0.0067,0.0,0.0,0.0,0.0,-0.0426,-0.065,-0.0593,-0.1426,-0.1684,-0.1255,-0.0627,-0.0235,-0.0079,0.055,0.0629,0.0471,0.0707,0.0786,0.0943,0.11,0.1178,0.1335,0.1335,0.1335,0.1257,0.1178,0.11,0.11,0.0,0.0,0.0,0.0,0.0,0.0,0.0,0.0,0.0,0.0,0.0,0.0,0.0,0.0,0.0,0.0,2.0299,2.0355,2.046,2.0485,2.0453,2.0332,1.9869,1.9676,1.9794,1.9427,0.0,0.0,0.0,0.0,1.893,1.7083,1.5656,0.0,1.3294,0.0,0.0,0.0,0.0,0.0,0.0,0.0,0.0,0.0,0.0,0.0,0.0,0.0,0.0,0.0,0.0,0.0,1.3621,1.3841,0.0,0.0,0.0,0.0,0.0,0.0,0.5124,0.3808,0.295,0.2421,0.0,0.0,0.2221,0.0,0.2221,0.2221,0.2221,0.1277,0.047,0.0336,-0.047,-0.1076,-0.1076,-0.1076,-0.1076,-0.1076,-0.1076,-0.0942,-0.0809,-0.0607,-0.0404,-0.0337,-0.0135,0.0,0.0,0.0,0.0,0.0,-0.0555,-0.0914,-0.1083,-0.1861,-0.2137,-0.2097,-0.1172,-0.0549,-0.0079,0.0629,0.0943,0.0786,0.0943,0.1021,0.1021,0.1257,0.1335,0.1335,0.1335,0.1335,0.1257,0.1257,0.1178,0.1178,0.0,0.0,0.0,0.0,0.0,0.0,0.0,0.0,0.0,0.0,0.0,0.0,0.0,2.0021,2.006,2.0184,2.0269,2.0332,2.0398,2.046,2.0796,2.1487,2.1172,0.0,2.2185,2.14,0.0,0.0,0.0,0.0,1.9169,1.8101,1.7003,1.5794,1.3643,1.2676,1.2578,0.0,0.0,0.0,0.0,0.0,0.0,0.0,0.0,0.0,0.0,0.0,0.0,0.0,0.0,0.0,0.0,0.0,0.0,0.0,0.0,0.0,0.0,0.7418,0.0,0.459,0.0,0.0,0.0,0.0,0.0,0.2221,0.2221,0.2221,0.2221,0.1277,0.0336,-0.0202,-0.0739,-0.1076,-0.1076,-0.1076,-0.1076,-0.1076,-0.0943,-0.0809,-0.0809,-0.0472,-0.0337,-0.027,-0.0135,0.0,0.0,0.0,0.0,0.0,-0.0068,-0.041,-0.1123,-0.1697,-0.189,-0.1742,-0.0776,0.0236,0.1178,0.1257,0.1257,0.1257,0.1257,0.1257,0.1257,0.1257,0.1335,0.1335,0.1335,0.1335,0.1257,0.1021,0.0943,0.0864,0.0,0.0,0.0,0.0,0.0,0.0,0.0,0.0,0.0,0.0,0.0,0.0,0.0,2.0143,2.015,2.0211,2.0258,2.032,2.0409,2.0951,2.1262,2.1282,2.1701,2.2027,2.2206,2.1567,0.0,0.0,0.0,2.0146,1.969,1.8464,1.7208,1.5936,1.431,1.3256,1.2695,1.2604,0.0,0.0,0.0,0.0,0.0,0.0,0.0,0.0,0.0,0.0,0.0,0.0,0.0,0.0,0.0,0.0,0.0,0.0,0.0,0.0,0.0,0.0,0.0,0.5384,0.4397,0.3739,0.3017,0.2487,0.2221,0.2221,0.2221,0.2221,0.2221,0.1277,0.047,0.0269,-0.0538,-0.1076,-0.1076,-0.1076,-0.1076,-0.0943,-0.0876,-0.0742,-0.0472,-0.0337,-0.027,-0.0135,-0.0067,0.0,0.0,0.0,0.0,0.0,-0.0471,-0.1226,-0.2375,-0.2137,-0.2193,-0.2339,-0.0991,-0.0077,0.047,0.1021,0.1335,0.1335,0.1335,0.1335,0.1335,0.1335,0.1335,0.1335,0.1335,0.1335,0.1257,0.1178,0.1178,0.11,0.0,0.0,0.0,0.0,0.0,0.0,0.0,0.0,0.0,0.0,0.0,0.0,0.0,0.0,2.0203,2.0224,2.0539,2.0764,2.0837,2.1609,2.2079,2.2075,2.2491,2.2712,2.2653,2.207,0.0,0.0,0.0,0.0,0.0,1.9104,1.7862,1.6261,1.5516,1.4348,0.0,0.0,0.0,1.328,0.0,0.0,1.1604,0.0,0.0,0.0,0.0,0.0,0.0,0.0,0.0,0.0,0.0,0.0,0.0,0.0,0.0,0.0,0.9564,0.0,0.0,0.0,0.0,0.4857,0.3941,0.0,0.2755,0.2421,0.2354,0.2354,0.2221,0.1412,0.0739,0.0538,-0.0403,-0.1076,-0.1076,-0.1076,-0.1009,-0.0809,-0.0742,-0.0607,-0.0337,-0.027,-0.0135,0.0,0.0,0.0,0.0,0.0,0.0,0.0,-0.074,-0.1491,-0.2343,-0.2087,-0.1921,-0.184,-0.0749,0.0,0.0387,0.1017,0.1335,0.1335,0.1335,0.1335,0.1335,0.1335,0.1335,0.1335,0.1335,0.1257,0.1178,0.1178,0.1178,0.11,0.0,0.0,0.0,0.0,0.0,0.0,0.0,0.0,0.0,0.0,0.0,0.0,0.0,0.0,0.0,2.037,2.1144,2.1662,2.1733,2.2424,2.3183,2.3944,2.3645,2.3508,2.3703,2.3069,0.0,0.0,0.0,0.0,0.0,0.0,1.8972,1.6954,1.7131,1.5868,1.3545,0.0,1.3854,1.4335,0.0,1.1027,1.2342,0.0,0.0,0.0,0.8683,0.886,0.0,0.9424,0.0,0.0,0.0,0.0,0.0,0.0,0.0,0.0,0.0,0.0,0.0,0.0,0.0,0.0,0.513,0.0,0.3749,0.2885,0.2686,0.2621,0.2288,0.1748,0.1143,0.0672,-0.0336,-0.1076,-0.1076,-0.1076,-0.1009,-0.0809,-0.0607,-0.0472,-0.0337,-0.0135,0.0,0.0,0.0,0.0,0.0,0.0,0.0,0.0,-0.0673,-0.1008,-0.0806,-0.1378,-0.1118,-0.021,-0.0074,0.0454,0.1213,0.1243,0.1335,0.1335,0.1335,0.1335,0.1335,0.1335,0.1335,0.1335,0.1335,0.1178,0.0943,0.0943,0.0943,0.0864,0.0,0.0,0.0,0.0,0.0,0.0,0.0,0.0,0.0,0.0,0.0,0.0,0.0,0.0,2.1539,2.2127,2.241,2.2542,2.2569,2.3251,2.3686,2.3709,2.4119,2.4144,2.3725,2.3083,0.0,0.0,0.0,0.0,0.0,0.0,0.0,0.0,1.7591,1.6717,1.5192,1.4925,0.0,0.0,1.2099,1.1494,0.0,0.0,0.0,0.0,0.0,0.7298,0.8581,0.0,0.8698,1.0501,0.0,0.0,0.0,0.0,0.0,0.0,1.0155,0.0,0.0,0.0,0.0,0.0,0.0,0.0,0.0,0.3749,0.3151,0.2755,0.2891,0.2485,0.2014,0.1879,0.0873,0.0,-0.0269,-0.0336,-0.0336,-0.0404,-0.0404,-0.027,-0.0067,0.0,0.0,0.0,0.0,0.0,0.0,0.0,0.0,0.0,-0.0067,-0.0337,-0.0806,-0.0203,0.0,-0.021,0.0498,0.095,0.1212,0.1221,0.1236,0.1335,0.1335,0.1335,0.1335,0.1335,0.1335,0.1335,0.1335,0.1257,0.1178,0.1178,0.1178,0.1178,0.0,0.0,0.0,0.0,0.0,0.0,0.0,0.0,0.0,0.0,0.0,0.0,0.0,0.0,0.0,2.2907,2.3247,2.3426,2.3357,2.4058,2.4342,2.4072,2.4247,2.4046,2.3333,2.2856,0.0,0.0,0.0,0.0,0.0,0.0,0.0,0.0,0.0,0.0,0.0,0.0,0.0,0.0,1.2361,0.0,0.0,0.8592,0.7652,0.0,0.0,0.0,0.8205,0.6515,0.7488,0.0,0.0,0.0,0.0,0.0,0.0,0.0,0.0,0.0,0.0,0.0,0.0,0.0,0.6724,0.5862,0.513,0.0,0.4148,0.3751,0.3556,0.3286,0.3017,0.2753,0.2082,0.1411,0.0738,0.0671,0.0671,0.0605,0.0336,0.0269,0.0471,0.0202,0.0,0.0,0.0,0.0,0.0,0.0,0.0,0.0,0.0135,0.0067,-0.0269,0.0337,0.0543,0.0344,0.0836,0.114,0.1174,0.12,0.1221,0.1239,0.1251,0.1335,0.1335,0.1335,0.1335,0.1335,0.1335,0.1257,0.11,0.11,0.11,0.11,0.0,0.0,0.0,0.0,0.0,0.0,0.0,0.0,0.0,0.0,0.0,0.0,0.0,0.0,0.0,0.0,2.3925,2.4277,2.4141,2.4728,2.4938,2.4671,2.4193,2.3584,2.281,2.2528,0.0,0.0,0.0,0.0,0.0,0.0,0.0,0.0,0.0,0.0,0.0,0.0,0.0,1.4827,1.2112,1.1388,0.0,0.0,0.7777,0.7962,0.6641,0.6972,0.7767,0.6063,0.6523,0.0,0.0,0.0,0.0,0.0,1.1115,0.0,0.0,0.0,0.0,0.0,0.0,0.0,0.7647,0.719,0.6601,0.0,0.5342,0.5077,0.4348,0.4215,0.4084,0.3558,0.3426,0.3021,0.1878,0.1743,0.1743,0.1878,0.1276,0.0874,0.1076,0.0404,0.0,0.0,0.0,0.0,0.0,0.0,0.0,0.0,0.0067,0.0202,0.0472,0.0539,0.074,0.1076,0.1103,0.1118,0.1123,0.1176,0.1205,0.1213,0.1241,0.1254,0.1335,0.1335,0.1335,0.1335,0.1335,0.1178,0.0943,0.0943,0.0943,0.0943,0.0,0.0,0.0,0.0,0.0,0.0,0.0,0.0,0.0,0.0,0.0,0.0,0.0,0.0,0.0,0.0,2.509,2.5065,2.5046,2.4933,2.475,2.4469,2.4244,2.3726,2.2811,2.247,0.0,0.0,0.0,0.0,0.0,0.0,0.0,0.0,0.0,0.0,0.0,0.0,0.0,1.2819,1.2112,0.0,1.0822,0.8398,0.6859,0.5866,0.5011,0.4878,0.5206,0.599,0.6976,0.8091,0.0,0.0,0.0,0.0,0.0,0.0,0.0,0.0,0.0,0.0,0.0,0.0,0.8549,0.7952,0.7423,0.0,0.5807,0.5345,0.5484,0.5554,0.5488,0.5422,0.502,0.422,0.2684,0.2484,0.235,0.2079,0.1478,0.1076,0.1076,0.0404,0.0,0.0,0.0,0.0,0.0,0.0,0.0,0.0,0.027,0.0404,0.0337,0.074,0.0942,0.0876,0.1015,0.1097,0.1121,0.1133,0.1166,0.1212,0.1218,0.1234,0.1335,0.1335,0.1335,0.1335,0.1335,0.1257,0.1257,0.1257,0.1257,0.1257,0.0,0.0,0.0,0.0,0.0,0.0,0.0,0.0,0.0,0.0,0.0,0.0,0.0,0.0,0.0,0.0,0.0,0.0,0.0,0.0,2.4503,2.4172,2.3569,2.3032,2.255,2.2192,0.0,0.0,0.0,0.0,0.0,0.0,0.0,0.0,0.0,0.0,0.0,0.0,1.6218,1.406,1.2279,0.0,0.9099,0.7562,0.6539,0.5749,0.4686,0.4084,0.3949,0.5394,0.6314,0.0,0.0,0.8404,0.9122,0.0,1.0262,1.0262,0.0,0.0,0.0,1.0332,0.0,0.0,0.0,0.886,0.8597,0.8161,0.7697,0.7363,0.7302,0.7055,0.6732,0.6465,0.5877,0.5223,0.442,0.3823,0.3424,0.3222,0.2549,0.2013,0.1612,0.0941,0.0404,0.0,0.0,0.0,0.0,0.0,0.0,0.0,0.0135,0.027,0.027,0.0606,0.0808,0.0809,0.1009,0.1084,0.1099,0.1114,0.1138,0.1168,0.1183,0.1206,0.1234,0.1157,0.1088,0.11,0.1257,0.1335,0.1335,0.1335,0.1335,0.1335,2.0876,0.0,0.0,0.0,0.0,0.0,0.0,0.0,0.0,0.0,0.0,0.0,0.0,0.0,0.0,0.0,0.0,0.0,0.0,0.0,0.0,2.3683,2.2946,2.2471,2.2283,2.1999,2.1666,0.0,0.0,0.0,0.0,0.0,0.0,0.0,0.0,0.0,0.0,0.0,0.0,1.4566,0.0,1.0082,0.8388,0.7293,0.6666,0.621,0.4683,0.3751,0.3482,0.48,0.5727,0.6326,0.6972,0.7692,0.0,0.0,0.0,0.0,0.0,0.0,0.0,0.0,0.0,0.9958,0.0,0.0,0.0,0.9646,0.9582,0.0,0.0,0.0,0.0,0.0,0.0,0.0,0.0,0.5355,0.0,0.4498,0.3687,0.2948,0.2347,0.1678,0.1008,0.0269,0.0202,0.0135,0.0,0.0,0.0,0.0,0.0067,0.0135,0.0337,0.0472,0.0674,0.0876,0.1009,0.1076,0.1076,0.1101,0.1115,0.1123,0.1147,0.1174,0.1203,0.0983,0.0919,0.0937,0.1176,0.1257,0.1257,0.1257,0.1335,0.1335,2.2612,2.2676,0.0,0.0,0.0,0.0,0.0,0.0,0.0,0.0,0.0,0.0,0.0,0.0,0.0,0.0,0.0,0.0,2.327,0.0,0.0,0.0,2.3232,2.3054,2.2232,2.2346,2.213,2.1542,0.0,0.0,0.0,0.0,0.0,0.0,1.8227,0.0,0.0,0.0,1.2814,0.0,1.0719,1.1323,0.0,0.9307,0.7658,0.6306,0.414,0.3485,0.3889,0.0,0.6183,0.7558,0.0,0.7957,0.8076,0.9442,0.0,0.0,0.0,0.0,0.0,0.0,1.1469,0.0,0.0,0.0,1.064,1.0078,0.0,0.0,0.0,0.0,0.0,0.0,0.0,0.0,0.8329,0.685,0.5557,0.509,0.3951,0.3149,0.3082,0.2414,0.1678,0.1008,0.1008,0.0673,0.0067,0.0,0.0,0.0,0.0202,0.0337,0.0472,0.0674,0.0876,0.1076,0.1076,0.1076,0.1076,0.1079,0.1095,0.1121,0.1125,0.1143,0.1174,0.0975,0.091,0.0915,0.0935,0.0943,0.0943,0.1178,0.1335,0.1335,2.3073,2.2921,0.0,0.0,0.0,0.0,0.0,0.0,0.0,0.0,0.0,0.0,0.0,0.0,0.0,0.0,0.0,2.269,0.0,0.0,0.0,0.0,0.0,0.0,2.1962,2.1794,2.1608,2.1383,2.1798,0.0,0.0,0.0,0.0,0.0,1.7066,0.0,1.4369,0.0,1.265,0.0,0.0,0.0,0.0,0.7767,0.5847,0.4872,0.4082,0.3687,0.3493,0.0,0.5203,0.0,0.0,0.0,0.0,0.0,0.0,0.0,0.0,0.0,0.0,0.0,0.0,0.0,1.1094,0.0,1.1545,0.0,0.0,0.0,0.0,0.0,0.0,0.0,0.9627,0.0,0.0,0.0,0.7298,0.0,0.0,0.0,0.3877,0.288,0.2013,0.1275,0.1142,0.0807,0.0067,0.0135,0.0202,0.0202,0.0337,0.0472,0.0472,0.0674,0.0809,0.0943,0.1076,0.1076,0.1076,0.1076,0.1082,0.1095,0.1095,0.1042,0.0998,0.0793,0.0658,0.0594,0.0686,0.0776,0.0943,0.1178,0.1335,0.1335,2.3784,0.0,0.0,0.0,0.0,0.0,0.0,0.0,0.0,0.0,0.0,0.0,2.5369,2.4908,0.0,0.0,2.1953,2.1394,0.0,0.0,2.0916,0.0,0.0,0.0,0.0,0.0,2.1405,2.1328,2.1699,0.0,0.0,0.0,0.0,0.0,0.0,1.4266,1.2652,0.0,0.0,1.0918,1.1394,1.0609,0.8966,0.6298,0.4749,0.3956,0.422,0.3889,0.3424,0.3623,0.4746,0.0,0.5415,0.0,0.0,0.0,0.0,0.0,0.9779,0.0,0.0,0.0,0.0,0.0,0.0,0.0,0.0,0.0,0.0,0.0,0.0,0.0,0.0,0.0,0.0,1.0332,0.0,0.9748,0.0,0.0,0.0,0.0,0.0,0.388,0.3015,0.2075,0.1811,0.1276,0.0404,0.0337,0.0337,0.0337,0.0472,0.0539,0.0607,0.0742,0.0809,0.0876,0.1009,0.1076,0.1076,0.1076,0.1076,0.1076,0.1076,0.1021,0.0832,0.0629,0.0496,0.0361,0.0593,0.0758,0.0926,0.1173,0.1335,0.1335,2.5207,2.5224,0.0,0.0,0.0,0.0,0.0,0.0,0.0,0.0,0.0,0.0,0.0,0.0,0.0,0.0,0.0,1.9389,1.7144,0.0,1.776,0.0,0.0,2.0093,0.0,0.0,2.1927,2.1589,2.1458,2.118,0.0,0.0,0.0,0.0,0.0,1.4274,1.3576,1.1372,0.9074,0.7003,0.753,0.6339,0.442,0.0,0.5602,0.4287,0.4287,0.0,0.0,0.4743,0.5661,0.0,0.0,0.0,0.0,0.0,0.0,0.0,0.0,0.0,0.0,1.1226,0.0,0.0,0.0,0.0,1.1677,0.0,0.0,0.0,0.0,0.0,0.0,0.0,0.0,0.0,0.0,0.0,0.0,0.0,0.0,0.0,0.0,0.5822,0.5286,0.4015,0.3416,0.2614,0.1344,0.0741,0.0472,0.0472,0.0472,0.0607,0.0809,0.0809,0.0876,0.1076,0.1076,0.1076,0.1076,0.1076,0.1076,0.1076,0.1076,0.101,0.0812,0.0763,0.0701,0.0492,0.0794,0.0876,0.0956,0.1235,0.1335,0.1335,0.0,0.0,0.0,0.0,0.0,0.0,0.0,2.5225,0.0,0.0,0.0,0.0,0.0,2.2487,2.1421,0.0,0.0,1.6675,1.6182,1.6541,0.0,0.0,0.0,1.9282,0.0,0.0,1.9978,1.9901,1.985,1.9759,0.0,0.0,0.0,0.0,0.0,1.3938,0.0,0.0,0.0,0.0,0.0,0.6371,0.5279,0.0,0.4888,0.4159,0.4425,0.4422,0.0,0.4492,0.515,0.5804,0.5352,0.5873,0.6658,0.6203,0.6396,0.0,0.0,0.0,0.7042,0.8924,0.0,0.0,0.0,0.0,0.0,0.0,0.0,0.0,0.0,0.0,0.0,0.0,0.0,0.0,0.0,0.0,0.0,0.0,0.0,0.0,0.0,0.0,0.5547,0.4411,0.3885,0.295,0.1543,0.1478,0.1211,0.0742,0.0808,0.0942,0.1009,0.1009,0.1009,0.1076,0.1076,0.1076,0.1076,0.1076,0.1076,0.1076,0.1076,0.101,0.081,0.0816,0.0683,0.0548,0.0773,0.0923,0.0929,0.1129,0.1227,0.123,2.4884,0.0,0.0,0.0,0.0,0.0,0.0,0.0,0.0,0.0,2.4037,0.0,2.2021,0.0,1.9737,0.0,1.5796,1.4764,1.4521,1.434,0.0,1.3399,1.5797,0.0,0.0,0.0,0.0,1.7955,1.8661,1.8987,0.0,0.0,0.0,0.0,0.0,1.4148,1.1526,0.0,0.892,0.0,0.0,0.5997,0.0,0.0,0.4625,0.4688,0.0,0.4625,0.4561,0.4431,0.4761,0.5153,0.4561,0.5223,0.6009,0.5352,0.5617,0.6137,0.64,0.6009,0.0,0.7293,0.7474,0.0,0.9093,0.0,0.0,0.0,0.0,0.0,0.0,0.0,0.0,0.0,0.0,0.0,0.0,1.1864,0.0,0.0,0.0,0.0,0.0,0.0,0.6203,0.5338,0.455,0.3685,0.2547,0.2146,0.1745,0.1279,0.1144,0.1076,0.1076,0.1076,0.1076,0.1076,0.1076,0.1076,0.1076,0.1076,0.1076,0.1076,0.1076,0.101,0.0809,0.0876,0.0809,0.0608,0.0892,0.0967,0.0973,0.1173,0.1202,0.1216,0.0,0.0,0.0,0.0,2.5263,0.0,0.0,0.0,2.5124,0.0,2.3704,2.2561,2.2771,2.0194,1.7957,1.6716,1.5172,1.3593,1.2104,1.1706,0.0,0.0,1.1024,1.1194,0.9196,0.0,0.0,0.0,1.7912,1.8881,1.8881,0.0,0.0,0.0,1.7279,0.0,1.1031,1.0875,0.8477,0.4764,0.4957,0.502,0.502,0.4486,0.4882,0.5741,0.4888,0.4625,0.4625,0.4558,0.4558,0.4625,0.4558,0.4694,0.4764,0.4434,0.4431,0.4758,0.5418,0.5547,0.5668,0.6339,0.6456,0.0,0.0,0.0,0.7629,0.0,0.0,0.0,0.0,0.0,0.0,0.0,0.0,0.0,0.0,0.0,0.0,0.0,0.0,0.0,0.0,0.8236,0.7326,0.6736,0.5543,0.4619,0.0,0.2885,0.2213,0.2146,0.1478,0.1143,0.1143,0.1143,0.1076,0.1076,0.1076,0.1076,0.1076,0.1076,0.1076,0.1076,0.1076,0.101,0.0809,0.1009,0.101,0.0809,0.1009,0.1076,0.1083,0.1142,0.1184,0.1216,2.5353,2.6012,2.6578,0.0,2.6117,2.5951,0.0,0.0,0.0,0.0,2.174,2.0146,1.8568,1.7139,1.5609,1.3925,1.2135,0.0,0.0,0.0,0.0,0.6641,0.9575,1.0472,0.8587,1.2489,0.0,1.4744,0.0,0.0,1.7711,0.0,0.0,0.0,0.0,0.0,1.1182,1.0719,0.8047,0.4161,0.382,0.4015,0.4408,0.0,0.4013,0.4674,0.4289,0.4492,0.4888,0.4225,0.4359,0.4694,0.4159,0.4361,0.4764,0.4697,0.4697,0.4761,0.496,0.4556,0.4215,0.5055,0.4779,0.4509,0.0,0.0,0.0,0.0,0.0,0.0,0.0,0.0,0.0,0.0,0.0,0.0,0.0,0.0,0.0,1.0982,0.0,0.0,0.9716,0.8812,0.7837,0.6929,0.6334,0.5474,0.4287,0.0,0.3482,0.2948,0.2213,0.1812,0.1812,0.1344,0.1076,0.1076,0.1076,0.1076,0.1076,0.1076,0.1076,0.1076,0.1076,0.1076,0.1009,0.1076,0.1076,0.1009,0.1076,0.1076,0.108,0.1119,0.1166,0.1213,2.6019,0.0,0.0,2.7268,0.0,0.0,2.6014,2.544,0.0,2.2889,2.1447,0.0,1.7704,1.5807,1.3806,1.1574,1.016,0.0,0.806,0.0,0.0,0.6628,0.7866,0.8047,0.7062,1.003,0.0,1.2674,0.0,0.0,1.6976,0.0,0.0,0.0,0.0,1.51,0.0,0.9668,0.7168,0.4616,0.3616,0.348,0.0,0.3013,0.3147,0.3744,0.3351,0.3623,0.409,0.3625,0.3892,0.4361,0.4028,0.4425,0.503,0.4831,0.4894,0.4894,0.4831,0.4159,0.3551,0.3678,0.3074,0.2671,0.3522,0.3784,0.3985,0.0,0.5439,0.5971,0.0,0.0,0.0,0.0,0.0,0.0,0.0,0.0,0.0,0.0,1.011,0.0,0.9658,0.8947,0.8102,0.7256,0.699,0.6268,0.0,0.0,0.4411,0.3685,0.2681,0.208,0.208,0.1411,0.1076,0.1076,0.1076,0.1076,0.1076,0.1076,0.1076,0.1076,0.1076,0.1076,0.1076,0.1076,0.1076,0.1076,0.1076,0.1076,0.1078,0.1095,0.1131,0.1174,0.0,0.0,0.0,0.0,0.0,0.0,0.0,2.4982,0.0,2.2843,0.0,1.9483,1.7868,1.4974,1.2196,0.9882,0.0,0.8264,0.796,0.6645,0.6256,0.7173,0.592,0.5093,0.5093,0.7053,0.8857,0.0,0.0,0.0,0.0,0.0,0.0,0.0,0.0,0.0,0.0,0.8154,0.5952,0.5001,0.3547,0.2948,0.2882,0.2213,0.2348,0.2882,0.2213,0.2417,0.3023,0.2889,0.3357,0.3892,0.3892,0.4492,0.5226,0.4964,0.5027,0.509,0.4894,0.4156,0.3284,0.2616,0.1746,0.1209,0.1938,0.2136,0.2336,0.3203,0.459,0.5321,0.0,0.0,0.0,0.0,0.0,0.0,0.0,0.0,0.0,0.0,0.0,0.0,0.0,0.8952,0.8361,0.7652,0.7582,0.6929,0.0,0.0,0.5134,0.4486,0.3082,0.2347,0.2214,0.1544,0.121,0.1076,0.1076,0.1076,0.1076,0.1076,0.1076,0.1076,0.1076,0.1076,0.1076,0.1076,0.1076,0.1076,0.1076,0.1076,0.1076,0.1076,0.1093,0.1119,0.0,0.0,0.0,0.0,0.0,2.3759,2.2088,2.0881,1.994,1.9384,1.6829,1.4869,1.4557,1.1882,0.9989,0.9485,0.7797,0.0,0.0,0.0,0.0,0.427,0.4015,0.3685,0.3347,0.5799,0.7942,0.0,0.0,0.0,0.0,0.0,0.0,0.0,0.0,0.0,0.9406,0.6806,0.0,0.2613,0.1812,0.1478,0.1478,0.1344,0.1412,0.1613,0.1344,0.208,0.3084,0.2482,0.275,0.3351,0.3351,0.3887,0.4622,0.516,0.5296,0.5359,0.5292,0.4154,0.2947,0.2813,0.1612,0.0472,0.0605,0.0673,0.0874,0.1544,0.2547,0.3613,0.4677,0.0,0.0,0.0,0.0,0.0,0.0,0.0,0.0,0.0,0.0,0.8888,0.0,0.0,0.9022,0.8361,0.8296,0.7707,0.0,0.0,0.5873,0.0,0.4353,0.0,0.0,0.0,0.1679,0.1076,0.1076,0.1076,0.1076,0.1076,0.1076,0.1076,0.1076,0.1076,0.1076,0.1076,0.1076,0.1076,0.1076,0.1076,0.1076,0.1076,0.1079,0.1088,0.0,0.0,0.0,0.0,0.0,0.0,0.0,1.683,1.5753,1.6902,1.5866,1.4486,1.3093,1.1048,0.9243,0.7787,0.678,0.5877,0.5024,0.4824,0.4489,0.3758,0.3487,0.3284,0.3082,0.4317,0.6181,0.865,0.0,0.0,0.0,0.0,0.0,0.0,0.0,1.173,0.0,0.0,0.0,0.2674,0.1543,0.1143,0.121,0.121,0.1277,0.1277,0.121,0.1612,0.208,0.1678,0.208,0.2614,0.2614,0.3416,0.4353,0.4755,0.5093,0.5296,0.4957,0.3882,0.2813,0.2479,0.1412,0.0404,0.0404,0.0404,0.0606,0.1411,0.2214,0.3413,0.5401,0.6396,0.0,0.0,0.0,0.0,0.0,0.0,0.0,0.0,0.0,0.0,0.0,0.0,0.0,0.0,0.0,0.0,0.0,0.0,0.6075,0.0,0.0,0.0,0.3215,0.0,0.1745,0.1076,0.1076,0.1076,0.1076,0.1076,0.1076,0.1076,0.1076,0.1076,0.1076,0.1076,0.1076,0.1076,0.1076,0.1076,0.1076,0.1076,0.1076,0.1078,0.0,2.6895,0.0,0.0,2.0867,0.0,1.5956,1.3386,1.2453,1.4447,1.4772,1.3928,1.1563,1.0086,0.8361,0.6001,0.5811,0.5348,0.4359,0.4095,0.3825,0.3424,0.3086,0.2817,0.2683,0.2817,0.432,0.0,0.0,0.0,0.0,0.0,0.0,0.0,0.0,0.0,0.0,0.0,0.3833,0.2869,0.161,0.121,0.1344,0.1344,0.1344,0.1344,0.1277,0.121,0.1143,0.1143,0.1478,0.1879,0.2079,0.3015,0.4087,0.4287,0.4821,0.5226,0.4486,0.3616,0.2813,0.2146,0.1277,0.0539,0.0539,0.0539,0.0741,0.1545,0.2347,0.3678,0.5997,0.6268,0.0,0.0,0.0,0.0,0.0,0.0,0.0,0.0,0.0,0.0,0.8231,0.0,0.0,0.0,0.0,0.0,0.5752,0.0,0.0,0.0,0.0,0.4154,0.3418,0.0,0.2147,0.1344,0.1344,0.121,0.1076,0.1076,0.1076,0.1076,0.1076,0.1076,0.1076,0.1076,0.1076,0.1076,0.1076,0.1076,0.1076,0.1076,0.1076,0.1076,0.0,0.0,0.0,0.0,0.0,0.0,1.3167,1.1375,1.053,1.1359,1.0552,0.9491,0.8409,0.7084,0.5924,0.4998,0.4815,0.4154,0.275,0.3355,0.3153,0.1613,0.168,0.1547,0.101,0.1679,0.293,0.0,0.0,0.9949,0.0,0.0,0.0,0.0,0.0,0.0,0.0,0.4531,0.3245,0.1478,0.1344,0.1412,0.1547,0.1345,0.1412,0.1547,0.121,0.121,0.1277,0.1143,0.1143,0.1276,0.1879,0.2681,0.3418,0.4087,0.4821,0.5226,0.4486,0.3751,0.3015,0.228,0.1412,0.0742,0.0742,0.0742,0.0809,0.0876,0.2082,0.3813,0.5997,0.5881,0.5885,0.0,0.0,0.0,0.0,0.0,0.719,0.6597,0.0,0.0,0.0,0.8102,0.8161,0.0,0.863,0.0,0.0,0.0,0.0,0.5428,0.5362,0.4957,0.422,0.4154,0.3416,0.2013,0.2013,0.1678,0.1076,0.1076,0.1076,0.1076,0.1076,0.1076,0.1076,0.1076,0.1076,0.1076,0.1076,0.1076,0.1076,0.1076,0.1076,0.1076,0.0,0.0,0.0,0.0,0.0,0.0,0.0,0.9064,0.8259,0.7634,0.7777,0.7399,0.5905,0.5262,0.4607,0.3816,0.3687,0.3355,0.282,0.2686,0.2418,0.1813,0.1479,0.1211,0.101,0.1277,0.2206,0.0,0.0,0.0,0.0,0.0,0.0,0.0,0.0,0.5704,0.3911,0.2924,0.2138,0.148,0.148,0.1614,0.1749,0.1547,0.1547,0.1547,0.1277,0.121,0.1143,0.1143,0.1076,0.1143,0.1411,0.1946,0.2681,0.3416,0.4154,0.4556,0.3818,0.3416,0.2948,0.1812,0.121,0.101,0.101,0.101,0.1076,0.1479,0.2817,0.4284,0.555,0.5557,0.5557,0.6083,0.0,0.0,0.0,0.0,0.0,0.0,0.0,0.6342,0.0,0.7447,0.7712,0.7451,0.0,0.0,0.0,0.0,0.0,0.5428,0.0,0.5024,0.4287,0.4287,0.3751,0.2748,0.228,0.1946,0.1678,0.1276,0.1076,0.1076,0.1076,0.1076,0.1076,0.1076,0.1076,0.1076,0.1076,0.1076,0.1076,0.1076,0.1076,0.1076,1.6229,0.0,1.4864,0.0,1.0545,0.9547,0.7311,0.6576,0.5855,0.4463,0.5045,0.5176,0.401,0.3946,0.3616,0.2755,0.2889,0.2822,0.2354,0.2084,0.1882,0.1746,0.1344,0.0,0.1076,0.1076,0.161,0.2737,0.5006,0.0,0.0,0.0,0.0,0.0,0.4739,0.3777,0.2939,0.1812,0.148,0.1681,0.1681,0.1749,0.1884,0.1681,0.1547,0.148,0.1277,0.121,0.1076,0.1076,0.1076,0.1143,0.1344,0.1879,0.2547,0.3282,0.3885,0.4151,0.3416,0.3015,0.2614,0.1411,0.1076,0.1076,0.1076,0.1076,0.1344,0.2214,0.3416,0.4556,0.5292,0.5428,0.5491,0.5686,0.0,0.0,0.0,0.5686,0.0,0.0,0.5686,0.5881,0.6334,0.6859,0.7125,0.0,0.0,0.0,0.0,0.0,0.0,0.0,0.0,0.0,0.4622,0.4622,0.4287,0.3551,0.3015,0.2614,0.2414,0.1946,0.1612,0.1411,0.1411,0.1276,0.1076,0.1076,0.1076,0.1076,0.1076,0.1076,0.1076,0.1076,0.1076,0.1076,1.2017,1.1705,1.065,0.7495,0.6936,0.6278,0.4339,0.3872,0.3336,0.2078,0.1945,0.2213,0.2956,0.3023,0.2688,0.1951,0.2554,0.2354,0.0944,0.1613,0.1746,0.0,0.0,0.1076,0.1076,0.1076,0.1076,0.1143,0.0,0.0,0.4466,0.0,0.5963,0.4404,0.3914,0.2806,0.1344,0.1547,0.1681,0.1884,0.1884,0.1884,0.1884,0.1681,0.148,0.1277,0.1143,0.1076,0.1076,0.1076,0.1076,0.121,0.1879,0.2614,0.3349,0.4084,0.4287,0.4151,0.3416,0.2681,0.1946,0.1276,0.1076,0.1076,0.1076,0.1076,0.1478,0.2882,0.3751,0.4556,0.5292,0.5428,0.562,0.6268,0.0,0.0,0.0,0.0,0.0,0.6396,0.6396,0.6396,0.64,0.64,0.0,0.0,0.0,0.0,0.0,0.0,0.0,0.5428,0.5428,0.0,0.5362,0.5362,0.5024,0.4287,0.4287,0.3885,0.3215,0.3149,0.2748,0.2079,0.2079,0.1745,0.1076,0.1076,0.1076,0.1076,0.1076,0.1076,0.1076,0.1076,0.1076,0.1076,0.8474,0.7838,0.6907,0.5124,0.4397,0.3796,0.3209,0.3143,0.2876,0.2012,0.2012,0.1946,0.1746,0.168,0.1613,0.0,0.1546,0.1479,0.0,0.1277,0.1277,0.1009,0.0605,0.0605,0.1076,0.0605,0.0605,0.1076,0.0,0.0,0.0,0.4238,0.3716,0.2268,0.2142,0.1946,0.1681,0.1614,0.1817,0.2087,0.1817,0.1749,0.1884,0.1547,0.1344,0.1277,0.1143,0.1076,0.1076,0.1076,0.1076,0.121,0.1879,0.2281,0.2681,0.3951,0.3951,0.3482,0.3282,0.2681,0.1946,0.1276,0.1076,0.121,0.1678,0.2547,0.3416,0.3885,0.4556,0.5093,0.5359,0.5428,0.5491,0.5686,0.5557,0.0,0.5686,0.0,0.5686,0.5686,0.5686,0.5686,0.5686,0.6141,0.0,0.0,0.0,0.0,0.0,0.0,0.0,0.0,0.5428,0.0,0.5428,0.5428,0.5292,0.5024,0.4556,0.3885,0.3215,0.2681,0.2347,0.2079,0.1612,0.1276,0.1076,0.1076,0.1076,0.1076,0.1076,0.1076,0.1076,0.1076,0.1076,0.1076,0.5515,0.4854,0.4196,0.3485,0.2681,0.221,0.2277,0.1876,0.1475,0.1411,0.1276,0.1074,0.0739,0.0941,0.0,0.1076,0.1076,0.1076,0.1076,0.1076,0.1076,0.1076,0.0672,0.047,0.0672,0.0269,0.0,0.0672,0.194,0.2539,0.2539,0.2539,0.2075,0.121,0.1277,0.1412,0.1681,0.1614,0.1748,0.1951,0.1817,0.1681,0.1681,0.148,0.1344,0.121,0.1143,0.1076,0.1076,0.1076,0.1076,0.1276,0.2213,0.248,0.2748,0.3951,0.3751,0.3215,0.3215,0.248,0.1612,0.121,0.1276,0.1678,0.2347,0.3418,0.4287,0.4287,0.4891,0.5428,0.5428,0.5428,0.5428,0.5428,0.5428,0.5428,0.5428,0.0,0.5491,0.0,0.0,0.0,0.0,0.5947,0.6079,0.0,0.0,0.0,0.0,0.0,0.0,0.5428,0.5428,0.5428,0.5428,0.5428,0.5428,0.5362,0.4957,0.4486,0.402,0.3551,0.3215,0.2882,0.248,0.2147,0.1879,0.1879,0.1745,0.1478,0.1478,0.1344,0.1076,0.1076,0.1076,0.1076,0.3218,0.2817,0.235,0.0,0.1811,0.0,0.1408,0.0134,-0.0605,0.0269,-0.0067,-0.0269,-0.0067,0.0538,0.0941,0.0941,0.0,0.0,0.0,0.1008,0.1008,0.1076,0.1076,0.0739,0.0067,0.0,0.0,0.0067,0.0739,0.1076,0.1076,0.1076,0.1076,0.1143,0.1277,0.1277,0.1344,0.148,0.1614,0.1614,0.1749,0.1614,0.1344,0.148,0.1412,0.1143,0.1143,0.1076,0.1076,0.1076,0.1143,0.1411,0.2681,0.3215,0.3416,0.4154,0.3885,0.3282,0.3215,0.2213,0.1143,0.1143,0.1745,0.2414,0.3082,0.3818,0.4353,0.4353,0.4891,0.5428,0.5428,0.5428,0.5428,0.5428,0.5428,0.5428,0.5428,0.5428,0.562,0.0,0.0,0.0,0.6268,0.5752,0.5428,0.0,0.0,0.0,0.0,0.0,0.628,0.5428,0.5428,0.5428,0.5428,0.5428,0.5428,0.5428,0.5428,0.5428,0.5428,0.5359,0.4957,0.4287,0.422,0.3818,0.3215,0.3215,0.2748,0.208,0.208,0.1678,0.1076,0.1076,0.1076,0.1076,0.0,0.0,0.1479,0.1613,0.0403,-0.047,-0.0269,-0.1006,-0.1543,-0.1141,-0.1073,-0.1006,-0.0873,-0.0672,-0.0605,-0.0605,-0.0067,0.0269,0.0269,0.0269,0.0471,0.0876,0.0471,0.0403,0.0606,0.0202,0.0269,0.0807,0.1008,0.1076,0.1076,0.1076,0.1143,0.1277,0.1277,0.1412,0.1547,0.1412,0.148,0.1614,0.1345,0.1412,0.1547,0.1412,0.1344,0.1277,0.1277,0.121,0.1076,0.1076,0.1411,0.1946,0.2281,0.3149,0.4154,0.4891,0.4622,0.3885,0.3351,0.2547,0.1879,0.1879,0.2815,0.3685,0.3282,0.422,0.516,0.516,0.5292,0.5428,0.5428,0.5428,0.5428,0.5428,0.5428,0.5428,0.5428,0.5428,0.5425,0.0,0.5491,0.5491,0.562,0.5491,0.5425,0.0,0.0,0.0,0.555,0.5749,0.5752,0.5428,0.5428,0.5428,0.5428,0.5428,0.5428,0.5428,0.5428,0.5428,0.5362,0.4821,0.4486,0.4287,0.3685,0.3351,0.3215,0.3215,0.2748,0.208,0.208,0.1678,0.1076,0.1076,0.1076,0.1076,0.1544,0.1076,0.0673,0.0875,-0.0202,-0.1008,-0.0605,-0.1611,-0.2147,-0.1544,-0.1677,-0.1744,-0.1612,-0.1276,-0.1344,-0.2016,-0.0806,-0.0134,-0.047,-0.0269,-0.0134,-0.0067,-0.0403,-0.0403,-0.0067,-0.0336,-0.0134,0.0605,0.0941,0.1076,0.1076,0.1076,0.1143,0.121,0.121,0.1277,0.1345,0.1277,0.1277,0.148,0.1345,0.1412,0.1614,0.148,0.1412,0.1344,0.1545,0.1411,0.1143,0.1478,0.1812,0.2146,0.248,0.3416,0.4353,0.4758,0.4353,0.3685,0.3282,0.2414,0.1812,0.2414,0.3485,0.4287,0.422,0.4821,0.5428,0.5428,0.5428,0.5428,0.5428,0.5428,0.5428,0.5428,0.5428,0.5428,0.5428,0.5428,0.5428,0.5428,0.5428,0.5428,0.5428,0.5428,0.5425,0.5488,0.5488,0.0,0.5617,0.5617,0.5554,0.5428,0.5491,0.5488,0.5488,0.5488,0.5488,0.5488,0.5428,0.5428,0.5362,0.4957,0.4821,0.4758,0.4353,0.422,0.422,0.422,0.3751,0.3082,0.2748,0.2147,0.1545,0.121,0.1076,0.1076,0.0672,0.0269,-0.0067,0.0269,-0.0605,-0.1209,-0.0671,-0.2014,-0.2755,-0.1748,-0.215,-0.2484,-0.235,-0.1813,-0.1882,-0.3159,-0.1477,-0.0604,-0.1276,-0.0873,-0.0806,-0.1142,-0.1275,-0.1275,-0.1143,-0.1008,-0.0672,-0.0134,0.0672,0.1076,0.0941,0.1076,0.1076,0.1076,0.1143,0.1143,0.1143,0.1143,0.121,0.1344,0.1547,0.1614,0.1614,0.1614,0.1547,0.1412,0.2013,0.1813,0.1344,0.2013,0.2347,0.2547,0.3149,0.3885,0.4486,0.4486,0.3885,0.3149,0.3082,0.2214,0.1678,0.2748,0.3751,0.4622,0.5093,0.5296,0.5428,0.5428,0.5428,0.5428,0.5428,0.5428,0.5428,0.5428,0.5425,0.5428,0.5428,0.0,0.5428,0.5428,0.5428,0.5428,0.5428,0.5428,0.5428,0.5428,0.5428,0.5491,0.5617,0.5617,0.562,0.5495,0.5554,0.5617,0.5617,0.5617,0.5617,0.5617,0.5491,0.5428,0.5428,0.5428,0.5428,0.5428,0.5428,0.5428,0.5428,0.5428,0.4957,0.422,0.3482,0.2748,0.2013,0.1344,0.1076,0.1076,-0.0672,-0.0874,-0.0807,-0.0403,-0.1679,-0.2552,-0.2149,-0.3019,-0.3558,-0.3228,-0.3228,-0.3228,-0.3092,-0.2958,-0.3025,-0.3431,-0.2552,-0.208,-0.2216,-0.2283,-0.208,-0.1543,-0.1408,-0.1275,-0.1277,-0.0538,-0.0403,-0.0941,0.0403,0.0806,0.0202,0.0807,0.1076,0.1076,0.121,0.1277,0.1277,0.148,0.1547,0.1547,0.1614,0.1681,0.1884,0.1884,0.1748,0.1614,0.235,0.235,0.208,0.2815,0.3418,0.3951,0.4087,0.4622,0.5226,0.5226,0.4287,0.3082,0.2414,0.2547,0.2748,0.2348,0.3751,0.5093,0.4556,0.4957,0.5428,0.5428,0.5428,0.5428,0.5428,0.5428,0.5425,0.555,0.5488,0.5425,0.555,0.0,0.5428,0.5428,0.5428,0.5428,0.5428,0.5488,0.5554,0.5428,0.5693,0.5756,0.5617,0.5752,0.5822,0.5826,0.5822,0.5822,0.5822,0.5683,0.5617,0.5617,0.5491,0.5428,0.5428,0.5428,0.5428,0.5428,0.5428,0.5428,0.5428,0.5428,0.4957,0.422,0.3482,0.2748,0.2013,0.1344,0.1076,0.1076,-0.1478,-0.1276,-0.1008,-0.1208,-0.2149,-0.2753,-0.2417,-0.322,-0.3692,-0.3362,-0.3431,-0.3498,-0.3362,-0.3362,-0.3429,-0.3627,-0.3357,-0.3155,-0.3155,-0.2887,-0.2686,-0.2619,-0.2551,-0.2283,-0.1813,-0.0604,-0.0134,-0.0538,0.0202,0.0538,0.0605,0.0941,0.1076,0.1076,0.1143,0.121,0.1277,0.1412,0.1547,0.1749,0.1749,0.1884,0.2018,0.1951,0.2017,0.2217,0.2484,0.2616,0.2748,0.3082,0.3685,0.4287,0.4287,0.4821,0.5226,0.4422,0.3751,0.2948,0.1879,0.2347,0.3149,0.2748,0.4084,0.5296,0.4957,0.516,0.5428,0.5428,0.5428,0.5428,0.5428,0.5428,0.5428,0.5491,0.5425,0.0,0.5491,0.5425,0.5428,0.5428,0.5428,0.5428,0.5488,0.555,0.5617,0.569,0.5826,0.5888,0.5947,0.6017,0.6086,0.6156,0.6086,0.6086,0.6086,0.5885,0.5686,0.5617,0.5491,0.5428,0.5428,0.5428,0.5428,0.5428,0.5428,0.5428,0.5428,0.5428,0.5226,0.4821,0.4087,0.3351,0.2614,0.1879,0.1411,0.1076,-0.2213,-0.1812,-0.1544,-0.2013,-0.2551,-0.2887,-0.2619,-0.3222,-0.3558,-0.3226,-0.3226,-0.3228,-0.3226,-0.3295,-0.336,-0.3489,-0.3689,-0.3758,-0.3556,-0.2954,-0.2889,-0.3498,-0.3295,-0.2822,-0.1946,-0.0671,-0.0067,-0.0269,0.0067,0.047,0.0874,0.1008,0.1076,0.1076,0.121,0.1277,0.1345,0.148,0.1681,0.1951,0.1951,0.2085,0.2221,0.2218,0.2418,0.2753,0.2883,0.3151,0.3482,0.3685,0.4087,0.4556,0.4556,0.4957,0.516,0.3818,0.3349,0.2948,0.1879,0.2482,0.3485,0.3485,0.4422,0.5428,0.5428,0.5428,0.5428,0.5428,0.5428,0.5428,0.5428,0.5428,0.5425,0.5425,0.0,0.5428,0.5495,0.5495,0.5491,0.5495,0.5495,0.5557,0.5683,0.5683,0.5815,0.5888,0.5958,0.6086,0.621,0.6214,0.628,0.642,0.6284,0.6214,0.6214,0.6086,0.5885,0.5683,0.5557,0.5495,0.5425,0.5495,0.5495,0.5495,0.5495,0.5495,0.5425,0.5425,0.5428,0.5296,0.4622,0.3818,0.3082,0.2348,0.1678,0.1076,-0.2948,-0.3082,-0.2948,-0.2684,-0.3222,-0.3558,-0.3226,-0.3226,-0.3226,-0.3226,-0.2753,-0.2417,-0.2281,-0.2551,-0.2686,-0.2551,-0.3288,-0.3491,-0.282,-0.2551,-0.2753,-0.3498,-0.2753,-0.1947,-0.121,-0.0403,-0.0336,-0.1008,0.0336,0.0672,0.0067,0.0806,0.1076,0.1143,0.1412,0.1547,0.1614,0.1951,0.2154,0.2154,0.2154,0.2154,0.2288,0.2885,0.295,0.2887,0.4151,0.4417,0.4353,0.5024,0.5292,0.5296,0.5296,0.5359,0.5226,0.4422,0.3751,0.3149,0.3082,0.3618,0.422,0.422,0.4821,0.5428,0.5428,0.5428,0.5428,0.5428,0.5428,0.5428,0.5428,0.5428,0.5425,0.555,0.0,0.0,0.5826,0.5686,0.5686,0.5822,0.5892,0.5892,0.5888,0.6017,0.6083,0.5892,0.6218,0.6284,0.6214,0.635,0.6416,0.642,0.6416,0.6416,0.6416,0.6214,0.6083,0.5888,0.5892,0.5756,0.5617,0.5756,0.5892,0.5892,0.5892,0.5756,0.5617,0.5617,0.5488,0.5296,0.4622,0.3818,0.3082,0.2348,0.1678,0.1076,-0.3556,-0.3355,-0.3155,-0.3424,-0.3692,-0.3758,-0.3625,-0.3558,-0.3357,-0.2753,-0.2619,-0.2417,-0.1878,-0.1945,-0.2012,-0.1878,-0.2146,-0.2144,-0.1878,-0.1678,-0.1746,-0.2016,-0.1276,-0.094,-0.1076,-0.0403,-0.0134,-0.0403,0.0134,0.0538,0.0807,0.1076,0.1277,0.1412,0.1547,0.1681,0.1817,0.1951,0.2087,0.2221,0.2221,0.2221,0.2288,0.2952,0.3349,0.3551,0.4082,0.4683,0.5084,0.4957,0.5093,0.5428,0.5428,0.5428,0.5359,0.509,0.4489,0.3951,0.4422,0.4422,0.4287,0.4287,0.4824,0.5428,0.5428,0.5428,0.5428,0.5428,0.5491,0.5488,0.5425,0.5491,0.5488,0.5491,0.0,0.5554,0.5686,0.5752,0.5822,0.5888,0.5888,0.5954,0.6083,0.6148,0.6214,0.6222,0.635,0.635,0.635,0.635,0.642,0.642,0.642,0.635,0.628,0.6214,0.6083,0.5888,0.5888,0.5888,0.5818,0.5888,0.5888,0.5888,0.5888,0.5888,0.5752,0.5752,0.5756,0.5624,0.4885,0.4217,0.3487,0.2751,0.2014,0.1412,-0.3961,-0.3694,-0.3493,-0.3894,-0.3892,-0.3825,-0.3825,-0.3625,-0.3222,-0.2551,-0.2216,-0.1812,-0.1275,-0.1408,-0.1475,-0.114,-0.1408,-0.1408,-0.0939,-0.0604,-0.0538,-0.0739,-0.0269,-0.0134,-0.0403,0.0067,0.0336,0.0336,0.0403,0.0739,0.1277,0.1345,0.148,0.1614,0.1681,0.1749,0.1884,0.1951,0.222,0.2487,0.2487,0.2487,0.2621,0.3485,0.3882,0.4082,0.4483,0.5017,0.5547,0.5087,0.516,0.5428,0.5428,0.5226,0.5024,0.5024,0.4688,0.442,0.4891,0.4824,0.4622,0.4622,0.5024,0.5428,0.5428,0.5428,0.5425,0.5425,0.5554,0.5617,0.5557,0.5554,0.562,0.5557,0.5554,0.5617,0.5749,0.5885,0.602,0.602,0.609,0.6086,0.628,0.628,0.6284,0.642,0.642,0.642,0.642,0.642,0.642,0.642,0.642,0.635,0.628,0.628,0.6148,0.602,0.602,0.602,0.602,0.602,0.609,0.609,0.609,0.602,0.602,0.602,0.5954,0.5822,0.5084,0.442,0.3692,0.2954,0.2217,0.1614,-0.4028,-0.4164,-0.4164,-0.3892,-0.3892,-0.3961,-0.3825,-0.3155,-0.2686,-0.2686,-0.1411,-0.047,-0.0336,-0.1074,-0.114,-0.0067,-0.1477,-0.1678,-0.0067,0.0672,0.0806,0.0067,0.0,0.0336,0.1076,0.1076,0.1076,0.1076,0.121,0.1277,0.1277,0.1547,0.1614,0.1614,0.1817,0.1884,0.1884,0.2154,0.2619,0.3215,0.3215,0.3215,0.3351,0.4619,0.4619,0.4148,0.5422,0.5752,0.5617,0.5617,0.5488,0.5428,0.5428,0.4891,0.4287,0.4287,0.4287,0.4287,0.4287,0.4824,0.5428,0.5428,0.5428,0.5428,0.5428,0.5428,0.5425,0.555,0.5617,0.5683,0.5888,0.5752,0.5683,0.5888,0.5752,0.5749,0.6145,0.621,0.628,0.635,0.642,0.642,0.642,0.642,0.642,0.642,0.642,0.642,0.642,0.642,0.642,0.642,0.642,0.642,0.642,0.642,0.635,0.6214,0.635,0.635,0.6214,0.635,0.642,0.642,0.642,0.635,0.6214,0.6214,0.6083,0.5822,0.5084,0.442,0.3692,0.2954,0.2217,0.1614,-0.4028,-0.4164,-0.4233,-0.3961,-0.4097,-0.4164,-0.3961,-0.3422,-0.2817,-0.2213,-0.1276,-0.0471,0.0202,0.0135,0.0269,0.0739,0.0336,0.0269,0.0739,0.1008,0.1076,0.0941,0.0807,0.0941,0.121,0.121,0.1277,0.148,0.2016,0.2083,0.1748,0.2285,0.2353,0.2018,0.2087,0.2087,0.2153,0.2686,0.2952,0.3088,0.3754,0.382,0.3756,0.4755,0.4885,0.4683,0.5554,0.5752,0.5617,0.5617,0.5488,0.5428,0.5428,0.5226,0.5093,0.5093,0.5093,0.5093,0.5093,0.5226,0.5428,0.5428,0.5428,0.5428,0.5428,0.5488,0.555,0.5617,0.5815,0.6013,0.5888,0.5951,0.6017,0.5888,0.5951,0.6079,0.621,0.628,0.635,0.642,0.642,0.642,0.642,0.642,0.642,0.642,0.642,0.642,0.642,0.642,0.642,0.642,0.642,0.642,0.642,0.642,0.635,0.635,0.635,0.635,0.635,0.635,0.642,0.642,0.642,0.635,0.635,0.635,0.6017,0.5481,0.4752,0.4018,0.3284,0.2621,0.222,0.2018,-0.4028,-0.4164,-0.4233,-0.4028,-0.4164,-0.4164,-0.3756,-0.3151,-0.248,-0.161,-0.0806,-0.0067,0.0539,0.0539,0.0673,0.1076,0.1076,0.1076,0.1076,0.1412,0.1679,0.1746,0.2013,0.1879,0.1412,0.168,0.1882,0.2016,0.2818,0.3019,0.2751,0.2954,0.3088,0.3021,0.2755,0.2755,0.309,0.3485,0.3751,0.4018,0.455,0.4553,0.4422,0.5156,0.5153,0.4882,0.555,0.5686,0.5617,0.5617,0.5488,0.5428,0.5428,0.5428,0.5428,0.5428,0.5428,0.5428,0.5428,0.5428,0.5428,0.5428,0.5428,0.5425,0.5491,0.5554,0.5617,0.5815,0.6013,0.6148,0.6086,0.6152,0.6148,0.6086,0.6152,0.6214,0.628,0.635,0.642,0.642,0.642,0.642,0.642,0.642,0.642,0.642,0.642,0.642,0.642,0.642,0.642,0.642,0.642,0.642,0.642,0.642,0.642,0.642,0.642,0.642,0.642,0.642,0.642,0.642,0.642,0.642,0.642,0.642,0.6148,0.5683,0.4686,0.4018,0.3551,0.2554,0.2221,0.2221,-0.4095,-0.4097,-0.4164,-0.3961,-0.4028,-0.3894,-0.3218,-0.248,-0.1678,-0.0873,0.0,0.0607,0.0809,0.0404,0.0336,0.1008,0.1076,0.1076,0.1076,0.188,0.235,0.2417,0.3213,0.3082,0.1882,0.2484,0.2818,0.282,0.3685,0.4082,0.4015,0.3616,0.3751,0.4287,0.3616,0.3685,0.4287,0.4353,0.4752,0.5411,0.5477,0.5348,0.5219,0.5756,0.5484,0.4948,0.5415,0.5617,0.5617,0.5617,0.5488,0.5428,0.5428,0.5428,0.5428,0.5428,0.5428,0.5428,0.5428,0.5428,0.5428,0.5425,0.5428,0.5425,0.555,0.5617,0.5749,0.6145,0.6214,0.628,0.635,0.6284,0.628,0.635,0.6284,0.628,0.635,0.642,0.642,0.642,0.642,0.642,0.642,0.642,0.642,0.642,0.642,0.642,0.642,0.642,0.642,0.642,0.642,0.642,0.642,0.642,0.642,0.642,0.642,0.642,0.642,0.642,0.642,0.642,0.642,0.642,0.642,0.635,0.6284,0.6086,0.4752,0.4154,0.3954,0.2688,0.2221,0.2221,-0.4233,-0.3825,-0.342,-0.3351,-0.295,-0.2482,-0.2213,-0.1544,-0.0941,-0.0605,0.0202,0.0742,0.0809,0.0808,0.0941,0.1076,0.1076,0.1076,0.1076,0.1344,0.188,0.2618,0.2885,0.3286,0.3687,0.3685,0.3818,0.3954,0.4749,0.4815,0.422,0.4683,0.468,0.4287,0.4154,0.4151,0.4353,0.4948,0.515,0.5219,0.5885,0.6017,0.5756,0.6017,0.5951,0.5686,0.5617,0.5617,0.5617,0.5491,0.5428,0.5428,0.5428,0.5428,0.5428,0.5428,0.5428,0.5428,0.5428,0.5428,0.5428,0.555,0.555,0.555,0.5617,0.5815,0.6079,0.621,0.628,0.635,0.642,0.635,0.635,0.642,0.635,0.635,0.642,0.642,0.642,0.642,0.642,0.642,0.642,0.642,0.642,0.642,0.642,0.642,0.642,0.642,0.642,0.642,0.642,0.642,0.642,0.642,0.642,0.642,0.642,0.642,0.642,0.642,0.642,0.642,0.642,0.642,0.635,0.5815,0.5282,0.4686,0.3751,0.3086,0.2622,0.2287,0.2221,0.2221,-0.43,-0.3689,-0.3215,-0.3215,-0.2547,-0.1878,-0.141,-0.0941,-0.0471,0.0067,0.0539,0.0809,0.0943,0.1009,0.1076,0.1076,0.1411,0.1612,0.1746,0.248,0.3215,0.382,0.4287,0.4818,0.5286,0.5216,0.5014,0.4815,0.5547,0.5683,0.5286,0.5348,0.5345,0.5286,0.4951,0.5017,0.5352,0.5683,0.5815,0.5752,0.6218,0.6284,0.6086,0.6148,0.6083,0.5888,0.5752,0.5752,0.5686,0.5156,0.5226,0.5491,0.5428,0.5428,0.5425,0.5491,0.5425,0.5425,0.5491,0.5488,0.5488,0.555,0.5749,0.5881,0.5881,0.6079,0.6214,0.628,0.635,0.642,0.642,0.642,0.642,0.642,0.642,0.642,0.642,0.642,0.642,0.642,0.642,0.642,0.642,0.642,0.642,0.642,0.642,0.642,0.642,0.642,0.642,0.642,0.642,0.642,0.642,0.642,0.642,0.642,0.642,0.642,0.642,0.642,0.642,0.642,0.642,0.642,0.635,0.6017,0.5481,0.4749,0.4018,0.3284,0.2619,0.2287,0.2221,0.2221,-0.43,-0.3689,-0.3084,-0.3015,-0.228,-0.141,-0.0672,-0.0403,0.0,0.0741,0.0876,0.0943,0.1076,0.121,0.1276,0.1276,0.1946,0.2415,0.2549,0.3882,0.4815,0.5087,0.5818,0.6284,0.642,0.642,0.6148,0.5543,0.6148,0.642,0.6416,0.5815,0.5881,0.635,0.5815,0.5881,0.642,0.642,0.635,0.6218,0.6218,0.6083,0.5881,0.6013,0.5951,0.5822,0.5756,0.5756,0.562,0.5024,0.5223,0.5617,0.5491,0.5495,0.5491,0.562,0.5554,0.5491,0.562,0.5683,0.5683,0.5683,0.5947,0.6214,0.6214,0.6214,0.628,0.635,0.642,0.642,0.642,0.642,0.642,0.642,0.642,0.642,0.642,0.642,0.642,0.642,0.642,0.642,0.642,0.642,0.642,0.642,0.642,0.642,0.642,0.642,0.642,0.642,0.642,0.642,0.642,0.642,0.642,0.642,0.642,0.642,0.642,0.642,0.642,0.642,0.642,0.635,0.6218,0.6083,0.5613,0.4945,0.422,0.3553,0.2952,0.2421,0.2221,0.2221,-0.4233,-0.3491,-0.2618,-0.2146,-0.1275,-0.0403,0.0472,0.0607,0.0741,0.1009,0.1076,0.1076,0.1076,0.1612,0.1946,0.1946,0.2817,0.3351,0.3353,0.3816,0.4417,0.5087,0.5348,0.5815,0.6416,0.642,0.635,0.6284,0.635,0.642,0.642,0.6284,0.6284,0.642,0.6284,0.6284,0.642,0.642,0.6083,0.5547,0.5547,0.515,0.4619,0.5279,0.5477,0.5415,0.5286,0.5087,0.5017,0.5554,0.5756,0.5888,0.5822,0.5822,0.5822,0.5822,0.5822,0.5822,0.5822,0.5888,0.5888,0.6083,0.6148,0.6214,0.635,0.635,0.635,0.642,0.642,0.642,0.642,0.642,0.642,0.642,0.642,0.642,0.642,0.642,0.642,0.642,0.642,0.642,0.642,0.642,0.642,0.642,0.642,0.642,0.642,0.642,0.642,0.642,0.642,0.642,0.642,0.642,0.642,0.642,0.642,0.642,0.642,0.642,0.642,0.642,0.642,0.6083,0.5481,0.4818,0.4151,0.3416,0.2755,0.2421,0.2354,0.2221,0.2221,0.2221,-0.3424,-0.2684,-0.1878,-0.1208,-0.0739,-0.0134,0.0674,0.0876,0.1009,0.1076,0.1076,0.1076,0.1076,0.1678,0.228,0.2817,0.362,0.4223,0.4353,0.4948,0.5415,0.5818,0.5885,0.6083,0.642,0.642,0.642,0.642,0.642,0.642,0.642,0.642,0.6214,0.5815,0.5815,0.5617,0.5219,0.5219,0.5084,0.4815,0.4815,0.4815,0.4948,0.5279,0.5613,0.5881,0.5415,0.5481,0.5683,0.5488,0.5752,0.6017,0.5954,0.5888,0.5888,0.602,0.602,0.5954,0.6017,0.6083,0.6083,0.6148,0.628,0.6412,0.6937,0.7003,0.7003,0.7003,0.7003,0.7003,0.7003,0.7003,0.6872,0.6482,0.642,0.642,0.642,0.642,0.642,0.642,0.642,0.642,0.642,0.642,0.642,0.642,0.642,0.642,0.642,0.642,0.642,0.642,0.642,0.642,0.642,0.642,0.642,0.642,0.642,0.642,0.642,0.642,0.6214,0.5815,0.5815,0.5415,0.4749,0.442,0.3885,0.3151,0.2885,0.2554,0.2221,0.2221,0.2221,0.2221]},{"header":{"parameterUnit":"m.s-1","parameterCategory":1,"la1":30.6,"la2":28.766,"lo1":-90.7593,"lo2":-88.6598,"dy":0.0162,"dx":0.0183,"nx":116,"ny":114,"refTime":"2023-09-11T06:00:00:Z","depth":0,"parameterNumber":3,"parameterNumberName":"V-component_of_WINDS"},"data":[0.0,0.0,0.0,0.0,0.0,0.0,0.0,0.0,0.0,0.0,0.0,0.0,0.0,0.0,0.0,0.0,0.0,0.0,0.0,0.0,0.0,0.0,0.0,0.0,0.0,0.0,0.0,0.0,0.0,0.0,0.0,0.0,0.0,0.0,0.0,0.0,0.0,0.0,0.0,0.0,0.0,0.0,0.0,0.0,0.0,0.0,0.0,0.0,0.0,0.0,0.0,0.0,0.0,0.0,0.0,0.0,0.0,0.0,0.0,0.0,0.0,0.0,0.0,0.0,0.0,0.0,0.0,0.0,0.0,0.0,0.0,0.0,0.0,0.0,0.0,0.0,0.0,0.0,0.0,0.0,0.0,0.0,0.0,0.0,0.0,0.0,0.0,0.0,0.0,0.0,0.0,0.0,0.0,0.0,0.0,0.0,0.0,0.0,0.0,0.0,0.0,0.0,0.0,0.0,0.0,0.0,0.0,0.0,0.0,0.0,0.0,0.0,0.0,0.0,0.0,0.0,0.0,0.0,0.0,0.0,0.0,0.0,0.0,0.0,0.0,0.0,0.0,0.0,0.0,0.0,0.0,0.0,0.0,0.0,0.0,0.0,0.0,0.0,0.0,0.0,0.0,0.0,0.0,0.0,0.0,0.0,0.0,0.0,0.0,0.0,0.0,0.0,0.0,0.0,0.0,0.0,0.0,0.0,0.0,0.0,0.0,0.0,0.0,0.0,0.0,0.0,0.0,0.0,0.0,0.0,0.0,0.0,0.0,0.0,0.0,0.0,0.0,0.0,0.0,0.0,0.0,0.0,0.0,0.0,0.0,0.0,0.0,0.0,0.0,0.0,0.0,0.0,0.0,0.0,0.0,0.0,0.0,0.0,0.0,0.0,0.0,0.0,0.0,0.0,0.0,0.0,0.0,0.0,0.0,0.0,0.0,0.0,0.0,0.0,0.0,0.0,0.0,0.0,0.0,0.0,0.0,0.0,0.0,0.0,0.0,0.0,0.0,0.0,0.0,0.0,0.0,0.0,0.0,0.0,0.0,0.0,0.0,0.0,0.0,0.0,0.0,0.0,0.0,0.0,0.0,0.0,0.0,0.0,0.0,0.0,0.0,0.0,0.0,0.0,0.0,0.0,0.0,0.0,0.0,0.0,0.0,0.0,0.0,0.0,0.0,0.0,0.0,0.0,0.0,0.0,0.0,0.0,0.0,0.0,0.0,0.0,0.0,0.0,0.0,0.0,0.0,0.0,0.0,0.0,0.0,0.0,0.0,0.0,0.0,0.0,0.0,0.0,0.0,0.0,0.0,0.0,0.0,0.0,0.0,0.0,0.0,0.0,0.0,0.0,0.0,0.0,0.0,0.0,0.0,0.0,0.0,0.0,0.0,0.0,0.0,0.0,0.0,0.0,0.0,0.0,0.0,0.0,0.0,0.0,0.0,0.0,0.0,0.0,0.0,0.0,0.0,0.0,0.0,0.0,0.0,0.0,0.0,0.0,0.0,0.0,0.0,0.0,0.0,0.0,0.0,0.0,0.0,0.0,0.0,0.0,0.0,0.0,0.0,0.0,0.0,0.0,0.0,0.0,0.0,0.0,0.0,0.0,0.0,0.0,0.0,0.0,0.0,0.0,0.0,0.0,0.0,0.0,0.0,0.0,0.0,0.0,0.0,0.0,0.0,0.0,0.0,0.0,0.0,0.0,0.0,0.0,0.0,0.0,0.0,0.0,0.0,0.0,0.0,0.0,0.0,0.0,0.0,0.0,0.0,0.0,0.0,0.0,0.0,0.0,0.0,0.0,0.0,0.0,0.0,0.0,0.0,0.0,0.0,0.0,0.0,0.0,0.0,0.0,0.0,0.0,0.0,0.0,0.0,0.0,0.0,0.0,0.0,0.0,0.0,0.0,0.0,0.0,0.0,0.0,0.0,0.0,0.0,0.0,0.0,0.0,0.0,0.0,0.0,0.0,0.0,0.0,0.0,0.0,0.0,0.0,0.0,0.0,0.0,0.0,0.0,0.0,0.0,0.0,0.0,0.0,0.0,0.0,0.0,0.0,0.0,0.0,0.0,0.0,0.0,0.0,0.0,0.0,0.0,0.0,0.0,0.0,0.0,0.0,0.0,0.0,0.0,0.0,0.0,0.0,0.0,0.0,0.0,0.0,0.0,0.0,0.0,0.0,0.0,0.0,0.0,0.0,0.0,0.0,0.0,0.0,0.0,0.0,0.0,0.0,0.0,0.0,0.0,0.0,0.0,0.0,0.0,0.0,0.0,0.0,0.0,0.0,0.0,0.0,0.0,0.0,0.0,0.0,0.0,0.0,0.0,0.0,0.0,0.0,0.0,0.0,0.0,0.0,0.0,0.0,0.0,0.0,0.0,0.0,0.0,0.0,0.0,0.0,0.0,0.0,0.0,0.0,0.0,0.0,0.0,0.0,0.0,0.0,0.0,0.0,0.0,0.0,0.0,0.0,0.0,0.0,0.0,0.0,0.0,0.0,0.0,0.0,0.0,0.0,0.0,0.0,0.0,0.0,0.0,0.0,0.0,0.0,0.0,0.0,0.0,0.0,0.0,0.0,0.0,0.0,0.0,0.0,0.0,0.0,0.0,0.0,0.0,0.0,0.0,0.0,0.0,0.0,0.0,0.0,0.0,0.0,0.0,0.0,0.0,0.0,0.0,0.0,0.0,0.0,0.0,0.0,0.0,0.0,0.0,0.0,0.0,0.0,0.0,0.0,0.0,0.0,0.0,0.0,0.0,0.0,0.0,0.0,0.0,0.0,0.0,0.0,0.0,0.0,0.0,0.0,0.0,0.0,0.0,0.0,0.0,0.0,0.0,0.0,0.0,0.0,0.0,0.0,0.0,0.0,0.0,0.0,0.0,0.0,0.0,0.0,0.0,0.0,0.0,0.0,0.0,0.0,0.0,0.0,0.0,0.0,0.0,0.0,0.0,0.0,0.0,0.0,0.0,0.0,0.0,0.0,0.0,0.0,0.0,0.0,0.0,0.0,0.0,0.0,0.0,0.0,0.0,0.0,0.0,0.0,0.0,0.0,0.0,0.0,0.0,0.0,0.0,0.0,0.0,0.0,0.0,0.0,0.0,0.0,0.0,0.0,0.0,0.0,0.0,0.0,0.0,0.0,0.0,0.0,0.0,0.0,0.0,0.0,0.0,0.0,0.0,0.0,0.0,0.0,0.0,0.0,0.0,0.0,0.0,0.0,0.0,0.0,0.0,0.0,0.0,0.0,0.0,0.0,0.0,0.0,0.0,0.0,0.0,0.0,0.0,0.0,0.0,0.0,0.0,0.0,0.0,0.0,0.0,0.0,0.0,0.0,0.0,0.0,0.0,0.0,0.0,0.0,0.0,0.0,0.0,0.0,0.0,0.0,0.0,0.0,0.0,0.0,0.0,0.0,0.0,0.0,0.0,0.0,0.0,0.0,0.0,0.0,0.0,0.0,0.0,0.0,0.0,0.0,0.0,0.0,0.0,0.0,0.0,0.0,0.0,0.0,0.0,0.0,0.0,0.0,0.0,0.0,0.0,0.0,0.0,0.0,0.0,0.0,0.0,0.0,0.0,0.0,0.0,0.0,0.0,0.0,0.0,0.0,0.0,0.0,0.0,0.0,0.0,0.0,0.0,0.0,0.0,0.0,0.0,0.0,0.0,0.0,0.0,0.0,0.0,0.0,0.0,0.0,0.0,0.0,0.0,0.0,0.0,0.0,0.0,0.0,0.0,0.0,0.0,0.0,0.0,0.0,0.0,0.0,0.0,0.0,0.0,0.0,0.0,0.0,0.0,0.0,0.0,0.0,0.0,0.0,0.0,0.0,0.0,0.0,0.0,0.0,0.0,0.0,0.0,0.0,0.0,0.0,0.0,0.0,0.0,0.0,0.0,0.0,0.0,0.0,0.0,0.0,0.0,0.0,0.0,0.0,0.0,0.0,0.0,0.0,0.0,0.0,0.0,0.0,0.0,0.0,0.0,0.0,0.0,0.0,0.0,0.0,0.0,0.0,0.0,0.0,0.0,0.0,0.0,0.0,0.0,0.0,0.0,0.0,0.0,0.0,0.0,0.0,0.0,0.0,0.0,0.0,0.0,0.0,0.0,0.0,0.0,0.0,0.0,0.0,0.0,0.0,0.0,0.0,0.0,0.0,0.0,0.0,0.0,0.0,0.0,0.0,0.0,0.0,0.0,0.0,0.0,0.0,0.0,0.0,0.0,0.0,0.0,0.0,0.0,0.0,0.0,0.0,0.0,0.0,0.0,0.0,0.0,0.0,0.0,0.0,0.0,0.0,0.0,0.0,0.0,0.0,0.0,0.0,0.0,0.0,0.0,0.0,0.0,0.0,0.0,0.0,0.0,0.0,0.0,0.0,0.0,0.0,0.0,0.0,0.0,0.0,0.0,0.0,0.0,0.0,0.0,0.0,0.0,0.0,0.0,0.0,0.0,0.0,0.0,0.0,0.0,0.0,0.0,0.0,0.0,0.0,0.0,0.0,0.0,0.0,0.0,0.0,0.0,0.0,0.0,0.0,0.0,0.0,0.0,0.0,0.0,0.0,0.0,0.0,0.0,0.0,0.0,0.0,0.0,0.0,0.0,0.0,0.0,0.0,0.0,0.0,0.0,0.0,0.0,0.0,0.0,0.0,0.0,0.0,0.0,0.0,0.0,0.0,0.0,0.0,0.0,0.0,0.0,0.0,0.0,0.0,0.0,0.0,0.0,0.0,0.0,0.0,0.0,0.0,0.0,0.0,0.0,0.0,0.0,0.0,0.0,0.0,0.0,0.0,0.0,0.0,0.0,0.0,0.0,0.0,0.0,0.0,0.0,0.0,0.0,0.0,0.0,0.0,0.0,0.0,0.0,0.0,0.0,0.0,0.0,0.0,0.0,0.0,0.0,0.0,0.0,0.0,0.0,0.0,0.0,0.0,0.0,0.0,0.0,0.0,0.0,0.0,0.0,0.0,0.0,0.0,0.0,0.0,0.0,0.0,0.0,0.0,0.0,0.0,0.0,0.0,0.0,0.0,0.0,0.0,0.0,0.0,0.0,0.0,0.0,0.0,0.0,0.0,0.0,0.0,0.0,0.0,0.0,0.0,0.0,0.0,0.0,0.0,0.0,0.0,0.0,0.0,0.0,0.0,0.0,0.0,0.0,0.0,0.0,0.0,0.0,0.0,0.0,0.0,0.0,0.0,0.0,0.0,0.0,0.0,0.0,0.0,0.0,0.0,0.0,0.0,0.0,0.0,0.0,0.0,0.0,0.0,0.0,0.0,0.0,0.0,0.0,0.0,0.0,0.0,0.0,0.0,0.0,0.0,0.0,0.0,0.0,0.0,0.0,0.0,0.0,0.0,0.0,0.0,0.0,0.0,0.0,0.0,0.0,0.0,0.0,0.0,0.0,0.0,0.0,0.0,0.0,0.0,0.0,0.0,0.0,0.0,0.0,0.0,0.0,0.0,0.0,0.0,0.0,0.0,0.0,0.0,0.0,0.0,0.0,0.0,0.0,0.0,0.0,0.0,0.0,0.0,0.0,0.0,0.0,0.0,0.0,0.0,0.0,0.0,0.0,0.0,0.0,0.0,0.0,0.0,0.0,0.0,0.0,0.0,0.0,0.0,0.0,0.0,0.0,0.0,0.0,0.0,0.0,0.0,0.0,0.0,0.0,0.0,0.0,0.0,0.0,0.0,0.0,0.0,0.0,0.0,0.0,0.0,0.0,0.0,0.0,0.0,0.0,0.0,0.0,0.0,0.0,0.0,0.0,0.0,0.0,0.0,0.0,0.0,0.0,0.0,0.0,0.0,0.0,0.0,0.0,0.0,0.0,0.0,0.0,0.0,0.0,0.0,0.0,0.0,0.0,0.0,0.0,0.0,0.0,0.0,0.0,0.0,0.0,0.0,0.0,0.0,0.0,0.0,0.0,0.0,0.0,0.0,0.0,0.0,0.0,0.0,0.0,0.0,0.0,0.0,0.0,0.0,0.0,0.0,0.0,0.0,0.0,0.0,0.0,0.0,0.0,0.0,0.0,0.0,0.0,0.0,0.0,0.0,0.0,0.0,0.0,0.0,0.0,0.0,0.0,0.0,0.0,0.0,2.7475,0.0,0.0,0.0,0.0,0.0,0.0,0.0,0.0,0.0,0.0,0.0,0.0,0.0,0.0,0.0,0.0,0.0,0.0,0.0,0.0,0.0,0.0,0.0,0.0,0.0,0.0,0.0,0.0,0.0,0.0,0.0,0.0,0.0,0.0,0.0,0.0,0.0,0.0,0.0,2.5717,2.5837,2.6294,2.7022,2.7419,2.748,0.0,0.0,0.0,0.0,0.0,0.0,0.0,0.0,0.0,0.0,0.0,0.0,0.0,0.0,0.0,0.0,0.0,0.0,0.0,0.0,0.0,0.0,0.0,0.0,0.0,0.0,0.0,0.0,0.0,0.0,0.0,0.0,0.0,0.0,0.0,0.0,0.0,0.0,0.0,0.0,0.0,0.0,0.0,0.0,0.0,0.0,0.0,0.0,0.0,0.0,0.0,0.0,0.0,0.0,0.0,0.0,0.0,0.0,0.0,0.0,0.0,0.0,0.0,0.0,0.0,0.0,0.0,0.0,0.0,0.0,0.0,2.8256,0.0,0.0,0.0,0.0,0.0,0.0,0.0,0.0,0.0,0.0,0.0,0.0,0.0,0.0,0.0,0.0,0.0,0.0,0.0,0.0,0.0,0.0,0.0,0.0,0.0,0.0,0.0,0.0,0.0,0.0,0.0,0.0,0.0,0.0,0.0,0.0,0.0,0.0,2.6321,2.6527,2.746,2.8778,2.9117,2.8611,2.8544,0.0,0.0,0.0,0.0,0.0,0.0,0.0,0.0,0.0,0.0,0.0,0.0,0.0,0.0,0.0,0.0,0.0,0.0,0.0,0.0,0.0,0.0,0.0,0.0,0.0,0.0,0.0,0.0,0.0,0.0,0.0,0.0,0.0,0.0,0.0,0.0,0.0,0.0,0.0,0.0,0.0,0.0,0.0,0.0,0.0,0.0,0.0,0.0,0.0,0.0,0.0,0.0,0.0,0.0,0.0,0.0,0.0,0.0,0.0,0.0,0.0,0.0,0.0,3.0196,3.0196,3.0292,3.0305,3.0318,3.0286,3.0037,2.9984,3.0034,2.9746,0.0,0.0,0.0,0.0,0.0,0.0,0.0,0.0,0.0,0.0,0.0,0.0,0.0,0.0,0.0,0.0,0.0,0.0,0.0,0.0,0.0,0.0,2.201,2.2556,2.2463,2.2634,0.0,0.0,0.0,0.0,0.0,0.0,0.0,2.6094,2.6705,2.6903,2.7531,2.8301,2.9178,2.9336,2.9724,3.027,3.0206,3.0173,3.0173,0.0,0.0,0.0,0.0,0.0,0.0,0.0,0.0,0.0,0.0,0.0,0.0,0.0,0.0,0.0,0.0,0.0,0.0,0.0,0.0,0.0,0.0,0.0,0.0,0.0,0.0,0.0,0.0,0.0,0.0,0.0,0.0,0.0,0.0,0.0,0.0,0.0,0.0,0.0,0.0,0.0,2.7837,2.7846,0.0,0.0,0.0,0.0,0.0,0.0,0.0,0.0,0.0,0.0,0.0,0.0,0.0,3.0364,3.0402,3.0362,3.0329,3.0302,3.0283,3.0285,3.0292,3.0359,3.0394,3.0386,3.046,0.0,3.0253,3.0207,0.0,0.0,0.0,0.0,0.0,0.0,0.0,0.0,0.0,0.0,0.0,0.0,0.0,0.0,0.0,0.0,0.0,0.0,0.0,0.0,0.0,2.1252,2.2029,2.266,2.2799,2.295,2.3229,0.0,0.0,0.0,0.0,0.0,2.6081,2.6593,2.7105,2.7629,2.8963,2.9552,2.9452,2.9872,3.0256,3.0602,3.054,3.0479,3.0439,3.0451,0.0,0.0,0.0,0.0,0.0,0.0,0.0,0.0,0.0,0.0,0.0,0.0,0.0,0.0,0.0,0.0,0.0,0.0,0.0,0.0,0.0,0.0,0.0,0.0,0.0,0.0,0.0,0.0,0.0,0.0,0.0,0.0,0.0,0.0,0.0,0.0,0.0,0.0,0.0,2.9187,2.9231,2.9312,2.9651,2.9844,0.0,0.0,0.0,0.0,0.0,0.0,0.0,0.0,0.0,3.0507,3.0481,3.0498,3.0568,3.0563,3.0546,3.0519,3.0519,3.051,3.053,3.053,3.0511,3.053,3.0578,3.0559,3.0466,3.039,3.0299,3.0194,0.0,0.0,0.0,0.0,2.9676,2.9765,0.0,0.0,0.0,0.0,0.0,0.0,0.0,0.0,0.0,0.0,0.0,0.0,2.0395,2.1327,2.2079,2.2747,2.3042,2.3294,2.3484,0.0,0.0,0.0,0.0,2.5788,2.6823,2.7329,2.7984,2.8845,3.0043,3.0288,2.9635,3.0203,3.0443,3.0428,3.0352,3.0352,3.0398,3.0451,3.0419,3.0328,0.0,0.0,0.0,0.0,0.0,0.0,0.0,0.0,0.0,0.0,0.0,0.0,0.0,0.0,0.0,0.0,0.0,0.0,0.0,0.0,0.0,0.0,0.0,0.0,0.0,0.0,0.0,0.0,0.0,0.0,0.0,0.0,0.0,0.0,0.0,0.0,0.0,3.0337,3.0372,3.0472,3.0488,3.0458,0.0,0.0,0.0,0.0,0.0,0.0,3.0497,3.0494,3.0559,3.0658,3.0601,3.0613,3.0726,3.0734,3.0716,3.0704,3.0691,3.0704,3.069,3.0626,3.0602,3.0602,3.0597,3.0598,3.0598,3.049,3.0394,3.033,3.033,3.0286,3.0215,3.0013,2.9994,3.0095,0.0,0.0,0.0,0.0,0.0,0.0,0.0,0.0,0.0,0.0,0.0,1.9016,1.9756,2.1236,2.2334,2.2753,2.3082,2.3599,2.4298,2.4422,2.4732,2.5348,2.6213,2.6792,2.6991,2.8555,2.9773,3.056,3.0477,3.0369,3.025,3.017,3.0061,2.9924,2.9874,3.0056,3.0398,3.0402,3.041,3.0379,3.026,0.0,0.0,0.0,0.0,0.0,0.0,0.0,0.0,0.0,0.0,0.0,0.0,0.0,0.0,0.0,0.0,0.0,0.0,0.0,0.0,0.0,0.0,0.0,0.0,0.0,0.0,0.0,0.0,0.0,0.0,0.0,0.0,0.0,0.0,0.0,0.0,0.0,0.0,3.069,3.0732,0.0,0.0,0.0,0.0,3.0609,3.0646,3.0723,3.0774,3.0774,3.0782,3.0793,3.0793,3.0793,3.0795,3.0799,3.0758,3.07,3.07,3.0704,3.069,3.0626,3.0602,3.0602,3.0597,3.0598,3.0598,3.0598,3.051,3.0386,3.0386,3.0285,3.0122,3.0234,3.0202,3.0122,0.0,0.0,0.0,0.0,0.0,0.0,0.0,0.0,0.0,1.6219,1.7822,1.914,1.9912,2.1553,2.2695,2.2905,2.3351,2.3826,2.4312,2.4593,2.5196,2.6184,2.6635,2.7414,2.8589,2.9698,3.036,3.0561,3.0412,3.0263,3.0094,2.9975,2.9858,2.9758,2.9744,2.9813,2.9954,3.0138,3.0228,3.0273,3.0304,3.0286,0.0,0.0,0.0,0.0,0.0,0.0,0.0,0.0,0.0,0.0,0.0,0.0,0.0,0.0,0.0,0.0,0.0,0.0,0.0,0.0,0.0,0.0,0.0,0.0,0.0,0.0,0.0,0.0,0.0,0.0,0.0,0.0,0.0,0.0,0.0,0.0,0.0,3.0763,3.0782,0.0,3.0681,3.0747,3.0779,3.073,3.0756,3.0779,3.08,3.0796,3.0793,3.0796,3.0797,3.0797,3.0797,3.0793,3.0788,3.0765,3.0757,3.0752,3.0765,3.0743,3.0711,3.0659,3.0625,3.0892,3.1371,3.1371,3.1043,3.054,3.054,3.049,3.0428,3.0488,3.0458,3.0417,0.0,0.0,0.0,0.0,0.0,0.0,0.0,0.0,0.0,1.5971,1.7664,1.9031,1.9859,2.1553,2.2747,2.3034,2.3617,2.41,2.4516,2.4818,2.5512,2.6685,2.7376,2.8416,2.983,3.0358,3.0537,3.0432,3.0232,3.0042,2.9858,2.971,2.9605,2.9532,2.9514,2.9533,2.9626,2.9756,2.995,3.0128,3.0279,3.0273,3.0199,0.0,0.0,0.0,0.0,0.0,0.0,0.0,0.0,0.0,0.0,0.0,0.0,0.0,0.0,0.0,0.0,0.0,0.0,0.0,0.0,0.0,0.0,0.0,0.0,0.0,0.0,0.0,0.0,0.0,0.0,0.0,0.0,0.0,0.0,0.0,3.072,3.0752,3.0797,3.078,3.0743,3.0761,3.0797,3.08,3.0798,3.0796,3.0796,3.08,3.0801,3.0801,3.0801,3.0801,3.0801,3.08,3.08,3.08,3.0798,3.0953,3.1245,3.1218,3.1334,3.1573,3.1529,3.1792,3.2279,3.2279,3.1942,3.1449,3.1449,3.1449,3.1449,3.1449,3.1449,3.1439,0.0,0.0,0.0,0.0,0.0,0.0,0.0,0.0,1.4321,1.6441,1.7692,1.8743,1.9612,2.1266,2.2548,2.3152,2.3814,2.4431,2.4965,2.5147,2.573,2.6834,2.8505,2.9765,3.0582,3.0472,3.0351,3.0275,2.9973,2.9732,2.9589,2.9395,2.9249,2.9178,2.913,2.9222,2.9392,2.9314,2.9551,2.9992,3.0123,3.0199,3.0194,0.0,0.0,0.0,0.0,0.0,0.0,0.0,0.0,0.0,0.0,0.0,0.0,0.0,0.0,0.0,0.0,0.0,0.0,0.0,0.0,0.0,0.0,0.0,0.0,0.0,0.0,0.0,0.0,0.0,0.0,0.0,0.0,0.0,3.0613,3.0652,3.0703,3.0703,3.0762,3.0792,3.08,3.0796,3.0801,3.0801,3.0801,3.0801,3.0801,3.0801,3.0801,3.0801,3.0801,3.0801,3.0801,3.0795,3.0818,3.0838,3.0839,3.1305,3.2145,3.2061,3.2502,3.3295,3.3301,3.3273,3.325,3.3242,3.3225,3.3189,3.3121,3.3102,3.3102,3.3102,3.3102,3.3102,0.0,0.0,0.0,0.0,0.0,0.0,0.0,1.4261,1.5353,1.6786,1.7905,1.8957,2.0008,2.142,2.26,2.3348,2.3909,2.446,2.5026,2.5782,2.6984,2.8686,2.918,2.973,3.0453,3.0422,3.0247,2.9931,2.9796,2.9607,2.937,2.9286,2.9178,2.9044,2.904,2.9062,2.9112,2.9249,2.9377,2.9533,2.9836,2.9969,3.0,0.0,0.0,0.0,0.0,0.0,0.0,0.0,0.0,0.0,0.0,0.0,0.0,0.0,0.0,0.0,0.0,0.0,0.0,0.0,0.0,0.0,0.0,0.0,0.0,0.0,0.0,0.0,0.0,0.0,0.0,0.0,0.0,3.0639,3.0672,3.0728,3.0762,3.0779,3.079,3.0804,3.0792,3.0806,3.0801,3.0801,3.0801,3.0801,3.0801,3.0801,3.0801,3.0801,3.0801,3.0801,3.0801,3.0806,3.112,3.1745,3.1749,3.2199,3.3039,3.3021,3.3144,3.3371,3.3369,3.3695,3.4216,3.4158,3.4481,3.4854,3.3587,3.3102,3.3102,3.3102,3.3102,3.3179,0.0,0.0,0.0,0.0,0.0,0.0,0.0,1.4446,1.5487,1.7107,1.8177,1.9241,2.0525,2.1766,2.2797,2.3642,2.4044,2.4512,2.5149,2.6155,2.7363,2.8812,2.92,2.9698,3.0329,3.029,3.0103,2.9761,2.9495,2.9256,2.9052,2.9003,2.8929,2.881,2.8947,2.8975,2.8975,2.9115,2.9163,2.9206,2.9608,2.9822,2.9921,3.0128,3.0204,3.0204,3.0204,3.0199,3.0194,3.0199,0.0,0.0,0.0,0.0,0.0,0.0,0.0,0.0,0.0,0.0,0.0,0.0,0.0,0.0,0.0,0.0,0.0,0.0,0.0,0.0,0.0,0.0,0.0,0.0,3.0726,3.0704,3.0738,3.0778,3.08,3.0804,3.0801,3.0801,3.0801,3.0801,3.0801,3.0801,3.0801,3.0801,3.0801,3.0801,3.0801,3.0801,3.0801,3.0977,3.1348,3.1348,3.1777,3.2636,3.2636,3.3105,3.3944,3.3944,3.4132,3.4492,3.4492,3.4738,3.5143,3.509,3.5353,0.0,0.0,0.0,0.0,0.0,3.4195,3.4253,0.0,0.0,0.0,0.0,0.0,0.0,0.0,1.4435,1.5295,1.7395,1.8517,1.9641,2.1098,2.2141,2.3056,2.3905,2.4206,2.4669,2.5427,2.6269,2.7157,2.8087,2.8819,2.9525,3.0216,3.0122,2.9908,2.9588,2.9114,2.8819,2.8652,2.8682,2.8619,2.8492,2.8834,2.8952,2.8905,2.8952,2.8994,2.9021,2.9395,2.9681,2.9888,3.0094,3.0204,3.0204,3.0204,3.0185,3.0199,3.0204,0.0,0.0,0.0,0.0,0.0,0.0,0.0,0.0,0.0,0.0,0.0,0.0,0.0,0.0,0.0,0.0,0.0,0.0,0.0,0.0,0.0,0.0,0.0,0.0,3.0799,3.0798,3.0798,3.0798,3.0801,3.0804,3.0801,3.0801,3.0801,3.0801,3.0801,3.0801,3.0801,3.0801,3.0801,0.0,0.0,0.0,0.0,3.1368,3.2246,3.2246,3.2675,3.3554,3.3554,3.4003,3.4842,3.4842,3.5279,3.5991,3.5991,3.5976,3.5918,3.5896,3.5853,3.578,3.5727,3.5706,3.5706,3.5695,3.5704,3.5704,0.0,0.0,0.0,0.0,0.0,0.0,0.0,1.5262,1.6528,1.797,1.9082,2.0224,2.1552,2.2399,2.314,2.3871,2.4437,2.5303,2.6518,2.6037,2.6679,2.8873,2.8299,2.853,2.9794,2.9832,2.9569,2.8979,2.8911,2.87,2.8316,2.8558,2.8576,2.8342,2.8749,2.8881,2.881,2.8834,2.8858,2.8952,2.9166,2.9416,2.9698,3.0064,3.0204,3.0204,3.0204,3.0199,3.0194,3.0199,3.0213,3.0188,3.0234,0.0,0.0,0.0,0.0,0.0,0.0,0.0,0.0,0.0,0.0,0.0,0.0,0.0,0.0,0.0,0.0,0.0,0.0,0.0,0.0,3.081,3.0798,3.0801,3.08,3.0798,3.0793,3.0801,3.0801,3.0801,3.0801,3.0801,3.0801,3.0801,3.0801,3.0801,3.0801,3.0801,3.1114,3.1836,3.1856,3.2265,3.3144,3.3144,3.3593,3.4452,0.0,0.0,3.5759,3.5759,3.5845,3.5991,3.5991,3.5995,3.5975,3.5923,3.5853,3.5786,3.5737,3.5687,3.5697,3.5697,3.5704,3.5704,0.0,0.0,0.0,0.0,0.0,0.0,0.0,1.514,1.6458,1.8366,1.9466,2.0655,2.2289,2.2949,2.3582,2.428,2.4876,2.5437,2.6007,2.5648,2.6139,2.7771,2.7684,2.8004,2.8876,2.9472,2.9379,2.8603,2.8603,2.8332,2.7844,2.8065,2.812,2.8065,2.8438,2.8651,2.8761,2.8785,2.881,2.8881,2.9119,2.9293,2.9455,2.9769,2.9953,3.0049,3.0049,3.0109,3.0213,3.0199,3.0213,3.0188,3.0188,3.0207,3.0207,0.0,0.0,0.0,0.0,0.0,0.0,0.0,0.0,0.0,0.0,0.0,0.0,0.0,0.0,3.0796,0.0,0.0,3.0797,3.0797,3.08,3.08,3.08,3.0793,3.0804,3.0801,3.0801,3.0801,3.0801,3.0801,3.0801,3.0801,3.0801,3.0801,3.0801,3.1211,3.1641,3.209,3.2519,3.3163,3.4042,3.4042,3.4491,3.5349,3.5349,3.5584,3.5991,3.5991,3.5999,3.6007,3.6007,3.5992,3.5996,3.5955,3.5927,3.5893,3.5831,3.5768,3.5693,3.5741,3.5718,3.5706,0.0,0.0,0.0,0.0,0.0,0.0,0.0,0.0,0.0,1.8433,1.978,2.1176,2.2898,2.3491,2.408,2.4832,2.518,2.5334,2.524,2.5324,2.5685,2.6429,2.7115,2.7667,2.7992,2.9007,2.9114,2.8264,2.8174,2.7901,2.7409,2.7517,2.7595,2.7701,2.8047,2.8342,2.8576,2.8644,2.8694,2.881,2.903,2.9123,2.9166,2.9455,2.9698,2.9924,2.9937,3.0064,3.0204,3.0204,3.0199,3.0207,3.0207,3.0207,3.0194,3.018,3.0234,0.0,0.0,0.0,0.0,0.0,0.0,0.0,0.0,0.0,3.0797,3.0799,3.0793,3.0808,3.0798,3.08,3.08,3.08,3.08,3.0796,3.0797,3.0808,3.0799,3.0801,3.0801,3.0801,3.0801,3.0801,3.0801,3.0801,3.0801,3.088,3.1036,3.1719,3.2265,3.2597,3.33,3.4061,3.494,3.4959,3.531,3.5991,3.5991,3.5991,3.5991,3.5991,3.5996,3.6005,3.6007,3.5991,3.5995,3.5996,3.5996,3.5996,3.5948,3.5845,3.5748,3.5762,3.5745,3.5737,0.0,0.0,0.0,0.0,0.0,0.0,0.0,0.0,0.0,1.7946,2.0226,2.2044,2.2923,2.3584,2.4321,2.5171,2.5013,2.5017,2.5356,2.529,2.5544,2.6293,2.6855,2.7308,2.7651,2.8462,2.8529,2.7771,2.766,2.7409,2.7055,2.7321,2.7382,2.7276,2.7695,2.7964,2.8156,2.8183,2.8386,2.8718,2.881,2.8881,2.8957,2.923,2.957,2.9921,3.0094,3.0171,3.0204,3.0204,3.0185,3.0199,3.0199,3.0199,3.0185,3.0132,0.0,3.0171,2.9984,3.0071,3.0266,3.0452,3.0561,3.0614,0.0,0.0,3.08,3.08,3.08,3.08,3.08,3.0795,3.0806,3.0806,3.0796,3.0791,3.0801,3.0791,3.0807,3.0799,3.0801,3.0801,3.0801,3.0801,3.0801,3.0801,3.0801,3.1133,3.1914,3.2051,3.2812,3.4354,3.4491,3.4979,3.5857,3.5857,3.5893,3.5991,3.5991,3.5991,3.5991,3.5991,3.5996,3.6005,3.5992,3.5995,3.5995,3.5996,3.5996,3.5996,3.5996,3.595,3.5857,3.5742,3.5748,3.5781,0.0,0.0,0.0,0.0,0.0,0.0,0.0,0.0,0.0,0.0,0.0,2.208,2.3633,2.4334,2.4746,2.4877,2.4977,0.0,2.5157,2.5178,2.5302,2.5538,2.6061,2.6488,2.6777,2.7606,2.7926,2.7701,2.7589,2.7378,2.712,2.7103,2.7261,2.7491,2.7654,2.7982,2.8396,2.8396,2.8474,2.8662,2.8712,2.8845,2.9056,2.9297,2.9607,2.9924,2.994,3.0038,0.0,0.0,3.0147,3.0147,3.019,3.0176,3.0132,3.0102,3.0068,0.0,3.0022,0.0,0.0,0.0,3.0452,3.0559,3.0625,3.0729,3.0798,3.0792,3.0796,3.0798,3.0792,3.0806,3.0801,0.0,3.0796,3.0794,3.0799,3.0796,3.0794,3.0799,3.0801,3.0801,3.0801,3.0801,3.0801,3.0801,3.127,3.1719,3.207,3.3066,3.3944,3.4686,3.5193,3.5623,3.5991,3.5991,3.5991,3.5991,3.5991,3.5991,3.5991,3.5991,3.5994,3.5999,3.601,3.5993,3.5993,3.5996,3.5996,3.5996,3.5996,3.5976,3.5951,3.5893,3.5845,3.5816,0.0,0.0,0.0,0.0,0.0,0.0,0.0,0.0,0.0,0.0,0.0,0.0,0.0,0.0,2.4928,2.4733,0.0,0.0,0.0,2.5069,2.5083,2.4998,2.5502,2.5857,2.5936,2.6848,2.7305,2.7338,2.7395,2.7317,2.7213,2.7152,2.7324,2.7701,2.7701,2.7971,2.8448,2.8448,2.8518,2.8637,2.8749,2.8943,2.9169,2.9476,2.9734,2.9874,2.9893,2.9975,0.0,0.0,3.0038,3.0053,3.0098,3.0083,3.0038,3.0007,2.9943,2.9874,3.0038,0.0,0.0,3.0273,3.0411,3.0527,3.0581,3.0704,3.0806,3.0801,3.079,3.0795,3.081,3.0808,3.0808,3.0808,3.0808,3.0806,3.0801,3.0801,3.0801,3.0801,3.0801,3.0801,3.0801,3.0801,3.0899,3.1133,3.1738,3.2304,3.2792,3.4003,3.4803,3.5057,3.5662,3.5991,3.5991,3.5991,3.5991,3.5991,3.5991,3.5991,3.5991,3.5991,3.5991,3.5994,3.6005,3.601,3.5992,3.5995,3.5996,3.5996,3.5996,3.5996,3.5996,3.5996,3.5948,3.588,0.0,0.0,0.0,0.0,0.0,0.0,0.0,0.0,0.0,0.0,0.0,0.0,0.0,0.0,2.4651,0.0,0.0,0.0,0.0,2.4898,2.493,2.5006,2.5506,2.5652,2.5324,2.6309,2.6703,2.644,2.6957,2.7213,2.7213,2.7522,2.7683,2.7701,2.7701,2.784,2.8129,2.8129,2.8334,2.8718,2.8971,2.9126,2.9251,2.9716,2.9857,2.9825,3.0007,0.0,3.0087,2.9956,2.9924,2.9924,2.9905,2.9905,0.0,2.9842,2.9774,2.9756,0.0,0.0,2.9969,3.024,3.0402,3.0529,3.0586,3.0711,3.0801,3.0801,3.0801,3.0806,3.0798,3.0799,3.0799,3.0799,3.0799,3.0796,3.0804,3.0801,3.0801,3.0801,3.0801,3.0801,0.0,3.0801,3.1153,3.1992,3.209,3.2831,3.453,3.4666,3.5096,3.5932,3.5991,3.5991,3.5991,3.5991,3.5991,3.5991,3.5991,3.5991,3.5991,3.5991,3.5991,3.5994,3.6001,3.6007,3.5992,3.5994,3.5996,3.5996,3.5996,3.5996,3.5996,3.5996,3.5996,3.5996,0.0,0.0,0.0,0.0,0.0,0.0,0.0,0.0,0.0,0.0,0.0,0.0,0.0,0.0,0.0,0.0,0.0,0.0,0.0,2.4796,2.4822,2.4678,2.4762,2.4912,2.516,2.5038,2.5217,2.5789,2.6014,2.6221,2.6409,2.7065,2.7491,2.7701,2.7897,2.8147,2.8422,2.85,2.8658,2.892,2.906,2.9297,2.9607,2.9716,2.9874,2.9991,0.0,0.0,2.9893,2.9841,2.9823,2.9841,2.9891,2.9874,2.9806,2.9737,2.9756,2.979,2.9924,0.0,3.0068,3.0199,3.0381,3.0502,3.0537,3.0677,3.0801,3.0801,3.081,3.0796,3.0799,3.08,3.08,3.08,3.0795,3.0808,3.0801,3.0801,3.0801,3.0801,3.0801,0.0,0.0,0.0,0.0,3.207,3.3163,3.4081,3.4666,3.5252,3.5701,3.5991,3.5991,3.5991,3.5991,3.5991,3.5991,3.5991,3.5991,3.5991,3.5991,3.5991,3.5991,3.5994,3.6001,3.6007,3.5992,3.5994,3.5996,3.5996,3.5996,3.5996,3.5996,3.5996,3.5996,3.5996,0.0,0.0,0.0,0.0,0.0,0.0,0.0,0.0,0.0,0.0,0.0,0.0,0.0,0.0,0.0,0.0,0.0,0.0,0.0,0.0,2.4348,2.3916,2.3934,2.3955,2.3922,2.3885,2.4091,2.4559,2.5099,2.5569,2.5905,2.68,2.742,2.784,2.811,2.8344,2.8612,2.8718,2.8821,2.892,2.9104,2.9377,2.9644,2.9681,2.9805,0.0,0.0,2.979,2.9755,2.9755,2.9755,2.9773,2.9806,2.9808,2.9755,2.9738,2.9774,2.9825,2.994,3.0038,3.0117,3.0185,3.0337,3.0479,3.0521,3.0642,3.0768,3.0799,3.0793,3.08,3.0801,3.0801,3.0801,3.0801,3.0797,3.0808,3.0801,3.0801,3.0801,3.0801,3.1075,3.1485,0.0,0.0,0.0,3.3027,3.4061,3.4842,3.5154,3.5701,3.5991,3.5991,3.5991,3.5991,3.5991,3.5991,3.5991,3.5991,3.5991,3.5991,3.5991,3.5991,3.5991,3.5994,3.5999,3.6003,3.6009,3.5992,3.619,3.6465,3.6465,3.664,3.6934,3.6934,3.6934,3.6836,0.0,0.0,0.0,0.0,0.0,0.0,0.0,0.0,0.0,0.0,0.0,0.0,0.0,0.0,0.0,0.0,0.0,0.0,0.0,0.0,0.0,2.2774,2.3119,2.2834,2.1775,2.2841,2.3197,2.2668,2.4149,2.5102,2.5547,2.6594,2.7424,2.7976,2.8219,2.8432,2.8562,2.8785,2.8791,2.8743,2.9123,2.9314,2.9414,2.9608,0.0,0.0,0.0,0.0,2.9701,2.9701,2.9701,2.972,2.972,2.9701,2.9719,2.979,2.9808,2.9859,3.0057,3.0102,3.0132,3.018,3.0309,3.0443,3.0579,3.0658,3.0724,3.0796,3.0793,3.08,3.0798,0.0,3.0796,3.0796,3.0801,3.0796,3.0804,3.0801,3.0801,0.0,0.0,0.0,0.0,0.0,0.0,3.4764,0.0,3.5135,3.5952,3.5991,3.5991,3.5991,3.5991,3.5991,3.5991,3.5991,3.5991,3.5991,3.5991,3.5991,3.5991,3.5991,3.5991,3.5991,3.5991,3.6035,3.6064,3.6064,3.6576,3.7362,3.7362,3.7871,3.8594,3.8594,3.8594,3.8359,0.0,0.0,0.0,0.0,0.0,0.0,0.0,0.0,0.0,0.0,0.0,0.0,0.0,0.0,0.0,0.0,0.0,0.0,0.0,0.0,0.0,0.0,0.0,0.0,0.0,0.0,0.0,2.123,2.2344,2.2948,2.3063,2.4934,2.5877,2.6065,2.722,2.7747,2.7805,2.8246,2.8525,2.8664,0.0,2.9089,2.9258,0.0,0.0,0.0,0.0,0.0,0.0,0.0,0.0,0.0,0.0,2.9841,2.9857,2.9874,2.9959,3.0022,3.0087,3.0132,3.019,3.0199,3.0297,3.0414,3.0505,3.0633,3.0724,3.0796,3.0799,3.0799,3.0797,3.0797,0.0,3.0804,3.0801,0.0,3.0796,3.0808,0.0,3.0801,0.0,3.2363,3.3007,3.4061,0.0,0.0,3.5662,3.5779,3.5991,3.5991,3.5991,3.5991,3.5991,3.5991,3.5991,3.5991,3.5991,3.5991,3.5991,3.5991,3.5991,3.5991,3.5991,3.5991,3.5991,3.6367,3.6979,3.6979,3.7473,3.828,3.828,3.8398,3.8594,3.8594,3.8594,3.8535,0.0,0.0,0.0,0.0,0.0,0.0,0.0,0.0,0.0,0.0,0.0,0.0,0.0,0.0,0.0,0.0,0.0,0.0,0.0,0.0,0.0,0.0,0.0,0.0,0.0,0.0,0.0,0.0,0.0,0.0,2.2251,2.3621,2.4377,2.4711,2.6031,2.6701,2.6934,2.7786,0.0,0.0,0.0,0.0,0.0,0.0,0.0,0.0,0.0,0.0,0.0,0.0,0.0,2.9857,2.9891,2.9888,2.9905,2.9972,0.0,3.0102,3.0132,3.0176,3.0185,3.0199,3.0297,3.0433,3.0524,3.0625,3.0723,3.0788,3.08,0.0,3.0808,3.0793,3.0795,0.0,0.0,0.0,3.0793,3.0806,3.0938,0.0,3.2148,0.0,3.3886,3.4764,3.5467,0.0,3.5991,3.5991,3.5991,3.5991,3.5991,3.5991,3.5991,3.5991,3.5991,3.5991,3.5991,3.5991,3.5991,3.5991,3.5991,3.5991,3.5991,3.601,0.0,3.6855,3.7326,3.7717,3.8387,3.9176,3.9176,3.9393,3.9746,3.9746,3.9746,3.9746,0.0,0.0,0.0,0.0,0.0,0.0,0.0,0.0,0.0,0.0,0.0,0.0,0.0,0.0,0.0,0.0,0.0,0.0,0.0,0.0,0.0,0.0,0.0,0.0,0.0,0.0,0.0,0.0,0.0,0.0,0.0,0.0,0.0,0.0,0.0,0.0,0.0,0.0,0.0,0.0,0.0,0.0,0.0,0.0,0.0,0.0,0.0,0.0,0.0,0.0,2.9937,2.994,2.9953,2.9953,2.9969,3.0094,3.0128,3.0128,3.0199,3.0213,3.0213,3.0202,3.0302,3.0453,3.0576,3.0658,3.0721,3.0798,0.0,3.0794,3.0794,3.0806,3.0795,3.0792,0.0,3.0806,3.0808,3.0804,3.1114,3.1992,3.2871,3.3749,3.4627,3.5486,3.5991,3.5991,3.5991,3.5991,3.5991,3.5991,3.5991,3.5991,3.5991,3.5991,3.5991,3.5991,3.5991,3.5991,3.5991,3.5991,3.5991,3.5991,3.6049,3.6208,3.697,3.7438,3.7692,3.8453,3.9264,4.0052,4.0052,4.0525,4.1191,4.1191,4.1191,4.1191,0.0,0.0,0.0,0.0,0.0,0.0,0.0,0.0,0.0,0.0,0.6782,1.0932,0.0,0.0,0.0,0.0,0.0,0.0,0.0,0.0,0.0,0.0,0.0,0.0,0.0,0.0,0.0,0.0,0.0,0.0,0.0,0.0,0.0,0.0,0.0,0.0,0.0,0.0,0.0,0.0,0.0,0.0,0.0,0.0,0.0,0.0,0.0,0.0,0.0,0.0,3.0109,3.0083,3.0202,3.0222,3.0248,3.0314,3.0309,3.0267,3.0279,3.0279,3.0279,3.0292,3.0381,3.0496,3.0574,3.0652,0.0,0.0,3.0793,3.0799,3.0794,3.0796,3.0791,3.0806,0.0,0.0,0.0,0.0,3.1114,0.0,0.0,0.0,0.0,3.5486,0.0,0.0,3.5991,3.5991,3.5991,3.5991,3.5991,3.5991,3.5991,3.5991,3.5991,3.5991,3.5991,3.5991,3.5991,3.5991,3.5991,3.5991,3.6384,3.7087,3.7223,0.0,3.937,3.9527,4.0101,4.0892,4.0892,4.1013,4.1191,4.1191,4.1191,4.1191,0.0,0.0,0.0,0.0,0.0,0.0,0.0,0.0,0.2826,0.2551,0.4514,0.7,0.9792,1.3293,0.0,0.0,0.0,0.0,0.0,0.0,0.0,0.0,0.0,0.0,0.0,0.0,0.0,0.0,0.0,0.0,0.0,0.0,0.0,0.0,0.0,0.0,0.0,0.0,0.0,0.0,0.0,0.0,0.0,0.0,0.0,0.0,0.0,0.0,0.0,0.0,3.0251,3.0279,3.037,3.04,3.0411,3.0433,3.0402,3.0367,3.04,3.0378,3.0367,3.0398,3.0491,3.0574,3.0647,0.0,0.0,0.0,3.0799,3.0801,3.079,3.0804,0.0,0.0,0.0,0.0,0.0,0.0,0.0,0.0,0.0,0.0,0.0,3.5759,3.5991,3.5991,3.5991,3.5991,3.5991,3.5991,3.5991,3.5991,3.5991,3.5991,3.5991,3.5991,3.5991,3.5991,3.5991,3.5991,3.5991,3.5991,3.6482,3.7321,3.777,3.8668,3.9839,4.0288,4.0726,4.1107,4.1107,4.113,4.1191,4.1191,4.1191,4.1191,0.0,0.0,0.0,0.0,0.0,0.0,0.0,0.2655,0.2881,0.2921,0.3149,0.3595,0.4228,0.8965,1.371,0.0,0.0,0.0,0.0,0.0,0.0,0.0,0.0,0.0,0.0,0.0,0.0,0.0,0.0,0.0,0.0,0.0,0.0,0.0,0.0,0.0,0.0,0.0,0.0,0.0,0.0,0.0,0.0,0.0,0.0,0.0,0.0,0.0,0.0,0.0,3.0414,3.0479,3.054,3.054,3.0521,3.0532,3.0496,3.044,3.0513,3.0477,3.046,3.0507,3.0587,3.0667,3.0716,3.0757,0.0,0.0,3.0801,3.0802,3.0804,0.0,3.0781,0.0,3.078,0.0,0.0,0.0,0.0,0.0,0.0,0.0,0.0,3.5991,0.0,3.5991,3.5991,3.5991,3.5991,3.5991,3.5991,3.5991,3.5991,3.5991,3.5991,3.5991,3.5991,3.5991,3.5991,3.5991,3.5991,3.5991,3.6579,3.7614,3.8297,3.9156,4.0132,4.0818,4.1099,4.1107,4.1108,4.1131,4.1191,4.1191,4.1191,4.1191,0.0,0.0,0.0,0.0,0.0,0.0,0.0,0.1753,0.2884,0.2892,0.2152,0.2317,0.4096,0.7438,1.2396,0.0,0.0,0.0,0.0,0.0,0.0,0.0,0.0,0.0,0.0,0.0,0.0,0.0,0.0,0.0,0.0,0.0,0.0,0.0,0.0,0.0,0.0,0.0,0.0,0.0,0.0,0.0,0.0,0.0,0.0,0.0,0.0,0.0,0.0,0.0,0.0,3.0684,3.0754,3.0693,3.0599,3.0657,0.0,0.0,3.0583,3.0583,3.0583,3.0583,3.0689,3.0781,3.0781,0.0,0.0,3.0794,3.079,3.079,3.0804,3.0804,3.0755,0.0,0.0,3.0774,0.0,0.0,0.0,0.0,0.0,0.0,0.0,3.5991,3.5991,3.5991,3.5991,3.5991,3.5991,3.5991,3.5991,3.5991,3.5991,3.5991,3.5991,3.5991,3.5991,3.5991,3.5991,3.5991,3.5991,3.5991,3.6911,3.8475,3.8573,3.9507,0.0,4.1077,4.1101,4.1107,4.109,4.1132,4.1191,4.1191,4.1191,4.1191,0.0,0.0,0.0,0.0,0.0,0.0,-0.274,-0.0661,-0.0218,-0.4052,-0.827,-0.7706,0.0773,0.2862,0.7236,0.0,0.0,0.0,0.0,0.0,0.0,0.0,0.0,0.0,0.0,0.0,0.0,0.0,0.0,0.0,0.0,0.0,0.0,0.0,0.0,0.0,0.0,0.0,0.0,0.0,0.0,0.0,0.0,0.0,0.0,0.0,0.0,0.0,0.0,0.0,0.0,0.0,3.0794,3.0758,0.0,0.0,3.071,3.0673,3.0717,3.0696,3.0653,3.0653,3.0739,3.0801,3.0798,0.0,3.0799,3.081,3.076,3.0745,3.0799,3.0704,3.061,3.0593,0.0,0.0,0.0,0.0,0.0,0.0,0.0,0.0,0.0,0.0,3.5991,3.5991,3.5991,3.5991,3.5991,3.5991,3.5991,3.5991,3.5991,3.5991,3.5991,3.5991,3.5991,3.5991,3.5991,3.5991,3.5991,3.5991,3.695,3.8593,3.8593,3.9546,0.0,4.1097,4.1101,4.1107,4.1091,4.1132,4.1191,4.1191,4.1191,4.1191,0.0,0.0,0.0,0.0,0.0,-0.3495,-0.4889,-0.3932,-0.4628,-0.9096,-1.5186,-1.5678,-0.6624,-0.2256,0.3525,1.2316,0.0,0.0,0.0,0.0,0.0,0.0,0.0,0.0,0.0,0.0,0.0,2.1602,2.2373,0.0,0.0,0.0,0.0,0.0,0.0,0.0,0.0,0.0,0.0,0.0,0.0,0.0,0.0,0.0,0.0,0.0,0.0,0.0,0.0,0.0,0.0,0.0,0.0,0.0,0.0,0.0,3.0762,3.0741,3.0796,3.0778,3.0721,3.0721,3.0778,3.0792,0.0,0.0,3.0781,3.0745,3.0722,3.0698,3.071,3.0607,3.0491,3.0516,0.0,3.05,3.0458,0.0,0.0,0.0,0.0,3.4761,0.0,3.5996,3.5991,3.5991,3.5991,3.5991,3.5991,3.5991,3.5991,3.5991,3.5991,3.5991,3.5991,3.5991,3.5991,3.5991,3.5991,3.5991,3.5991,3.5991,3.695,3.8593,3.8593,3.9549,0.0,4.1099,4.1105,4.1108,4.1112,4.1152,4.1191,4.1191,4.1191,4.1191,0.0,0.0,0.0,0.0,0.0,0.0,0.0,-0.8002,-1.0189,-1.0116,-1.535,-1.9067,-1.892,-0.7595,0.2576,0.8997,0.0,0.0,0.0,0.0,0.0,0.0,0.0,0.0,0.0,0.0,0.0,2.1886,2.2361,2.2695,2.2898,0.0,0.0,0.0,0.0,0.0,0.0,0.0,0.0,0.0,0.0,0.0,0.0,0.0,0.0,0.0,0.0,0.0,0.0,0.0,0.0,0.0,0.0,0.0,0.0,0.0,3.0799,3.0798,3.0804,3.0804,3.0804,3.0804,3.0804,3.0804,0.0,0.0,3.0765,3.0633,3.0646,3.0664,3.0528,3.0501,3.0462,3.0325,3.0413,0.0,3.0414,0.0,0.0,0.0,0.0,3.4099,3.5838,3.6003,3.5991,3.5991,3.5991,0.0,3.5991,3.5991,3.5991,3.5991,3.5991,3.5991,3.5991,3.5991,3.5991,3.5991,3.5991,3.5991,3.5991,3.5991,3.695,3.8593,3.8593,3.9552,0.0,4.1105,4.1108,4.1112,4.1172,4.1191,4.1191,4.1191,4.1191,4.1191,0.0,0.0,0.0,0.0,0.0,0.0,0.0,-1.0152,-1.1549,-1.2131,-1.5583,-1.8269,-1.9021,-1.1548,-0.2171,0.8563,0.0,0.0,0.0,0.0,0.0,0.0,0.0,0.0,0.0,0.0,2.2951,2.2981,2.3674,2.4063,2.4137,2.4334,2.4352,0.0,0.0,0.0,0.0,0.0,0.0,0.0,0.0,0.0,0.0,0.0,0.0,0.0,0.0,0.0,0.0,0.0,0.0,0.0,0.0,0.0,0.0,3.0607,0.0,0.0,3.0591,3.0639,3.0665,3.0665,3.0734,3.0774,3.0678,0.0,3.0633,3.0543,3.0472,3.0443,3.0492,3.0398,3.0292,3.0302,3.0304,0.0,0.0,0.0,0.0,3.2315,3.3515,3.4732,0.0,0.0,3.5991,3.5991,3.5991,3.5991,3.5991,3.5991,3.5991,3.5991,3.5991,3.5991,3.5991,3.5991,3.5991,3.5991,3.5991,3.5991,3.5991,3.5991,3.6638,3.7731,3.8336,3.9239,4.0318,4.0871,4.111,4.1112,4.1172,4.1191,4.1191,4.1191,4.1191,4.1191,0.0,0.0,0.0,0.0,0.0,0.0,0.0,-1.11,-1.2161,-1.3976,-1.5737,-1.7484,-1.9295,-1.352,-0.5343,0.5003,0.0,0.0,0.0,0.0,0.0,0.0,0.0,0.0,0.0,2.3182,2.3602,2.3689,2.4246,2.4559,2.4657,2.4731,2.4731,2.4673,2.4837,0.0,0.0,0.0,0.0,0.0,0.0,0.0,2.5388,0.0,0.0,0.0,0.0,0.0,0.0,0.0,0.0,0.0,0.0,0.0,0.0,0.0,3.029,3.0301,0.0,3.0535,3.0568,3.0568,3.0625,0.0,0.0,0.0,3.0543,3.0433,3.0348,3.0314,3.0337,3.0273,3.0213,3.0267,3.0221,3.0221,0.0,0.0,0.0,3.243,0.0,0.0,0.0,3.5991,3.5991,3.5991,3.5991,3.5991,3.5991,3.5991,3.5991,3.5991,3.5991,3.5991,3.5991,3.5991,3.5991,3.5991,3.5991,3.5991,3.5991,3.5991,3.6482,3.734,3.8222,3.9086,0.0,4.0775,4.1111,4.1132,4.1172,4.1191,4.1191,4.1191,4.1191,4.1191,0.0,0.0,0.0,0.0,0.0,0.0,0.0,0.0,0.0,-1.5299,-1.5743,-1.6703,-1.9165,-1.3927,-0.7494,-0.0606,0.0,0.0,0.0,0.0,0.0,0.0,0.0,0.0,0.0,2.3581,2.3751,2.4026,2.4192,2.4386,2.4636,2.4697,2.4775,2.4818,2.4898,2.4966,2.5032,2.522,2.5283,2.5244,2.542,2.551,0.0,0.0,0.0,0.0,0.0,0.0,0.0,0.0,0.0,0.0,0.0,0.0,0.0,0.0,0.0,0.0,0.0,3.0472,0.0,0.0,0.0,0.0,0.0,0.0,0.0,3.0297,3.0253,3.0216,3.0104,3.0123,3.0171,3.0204,3.0204,3.0221,0.0,3.0433,0.0,0.0,3.4118,0.0,3.5918,3.5991,3.5991,3.5991,3.5991,3.5991,3.5991,3.5991,3.5991,3.5991,3.5991,3.5991,3.5991,3.5991,3.5991,3.5991,3.5991,3.5991,3.5991,3.5994,3.6443,0.0,3.8129,3.8995,3.9877,4.0681,4.1093,4.1191,4.1191,4.1191,4.1191,4.1191,4.1191,4.1191,0.0,0.0,0.0,0.0,0.0,0.0,0.0,0.0,0.0,0.0,-1.527,-1.5408,-1.301,-1.566,-1.2849,0.0,0.0,0.0,0.0,0.0,0.0,0.0,0.0,0.0,0.0,2.3676,2.4118,2.4223,2.4678,2.4961,2.5061,2.5087,2.5063,2.5032,2.5141,2.525,2.5312,2.5401,2.543,2.5425,2.5473,2.5561,0.0,0.0,0.0,0.0,2.562,2.5531,0.0,0.0,0.0,0.0,0.0,0.0,0.0,0.0,2.9204,2.9727,2.9901,0.0,3.0406,3.0309,3.0355,3.0414,0.0,0.0,0.0,0.0,0.0,0.0,0.0,2.9867,2.995,3.0171,3.0204,3.026,3.0432,0.0,0.0,3.3199,3.3574,3.4313,3.5857,3.5991,3.5991,3.5991,3.5991,3.5991,3.5991,3.5991,3.5991,3.5991,3.5991,3.5991,3.5991,3.5991,3.5991,3.5991,3.5991,3.5991,3.5994,3.5999,3.6118,3.6355,3.7237,3.81,3.8962,3.9822,4.0585,4.1191,4.1191,4.1191,4.1191,4.1191,4.1191,4.1191,0.0,0.0,0.0,0.0,0.0,0.0,0.0,0.0,0.0,0.0,0.0,0.0,0.0,0.0,0.0,0.0,0.0,0.0,0.0,0.0,0.0,0.0,0.0,0.0,2.3569,2.419,2.4545,2.4591,2.4921,2.5125,2.5192,2.5234,2.5234,2.5241,2.5351,2.5401,2.5449,2.5525,2.5556,2.556,2.558,0.0,0.0,0.0,0.0,0.0,2.5537,2.5428,0.0,2.5245,2.5394,2.5649,0.0,0.0,0.0,0.0,2.8858,2.9533,2.967,2.9935,3.0161,3.0032,3.0171,3.0259,3.0028,0.0,0.0,0.0,0.0,0.0,0.0,0.0,3.0071,3.0185,3.0273,0.0,0.0,0.0,3.1292,3.2602,3.3142,3.3924,0.0,3.5779,3.5991,3.5991,3.5991,3.5991,3.5991,3.5991,3.5991,3.5991,3.5991,3.5991,3.5991,3.5991,3.5991,3.5991,3.5991,3.5991,3.5994,3.6001,3.6005,3.6044,3.6928,3.7576,3.8065,3.8944,3.9824,4.0605,4.0605,4.0859,4.1191,4.1191,4.1191,4.1191,0.0,0.0,0.0,0.0,0.0,0.0,0.0,0.0,0.0,0.0,0.0,0.0,0.0,0.0,0.0,0.0,0.0,0.0,0.0,0.0,0.0,0.0,0.0,2.3428,2.4323,2.4718,2.4911,2.493,2.5046,2.5143,2.5216,2.529,2.5343,2.5429,2.5492,2.5511,2.551,2.5576,2.558,2.5551,2.5625,0.0,0.0,0.0,0.0,0.0,0.0,0.0,0.0,2.5046,2.4891,2.4847,2.5314,0.0,0.0,0.0,0.0,0.0,2.9417,2.967,2.9872,2.9864,3.0026,3.0094,2.9769,0.0,0.0,0.0,0.0,0.0,0.0,2.9969,0.0,0.0,0.0,0.0,3.05,3.0672,3.1105,3.192,3.2823,0.0,3.461,3.5486,3.5991,3.5991,3.5991,3.5991,3.5991,3.5991,3.5991,3.5991,3.5991,3.5991,3.5991,3.5991,3.5991,3.5991,3.5991,3.5991,3.5994,3.6001,3.6005,3.6044,0.0,0.0,3.7362,3.8105,3.8926,3.9707,3.9707,4.0234,4.0996,4.0996,4.1094,4.1191,0.0,0.0,0.0,0.0,0.0,0.0,0.0,0.0,0.0,0.0,0.0,0.0,0.0,0.0,0.0,0.0,0.0,0.0,0.0,0.0,0.0,0.0,2.172,2.266,2.3619,2.4473,2.4957,2.5073,2.5082,2.5162,2.5286,2.5356,2.5426,2.5485,2.5556,2.5546,2.5508,2.5623,2.5541,2.5348,2.5354,0.0,0.0,0.0,0.0,0.0,0.0,0.0,0.0,2.5012,2.4799,2.4512,2.4395,0.0,0.0,0.0,0.0,0.0,2.8829,2.9363,2.9734,3.0064,3.0171,3.0171,3.0128,0.0,0.0,0.0,0.0,0.0,0.0,2.9817,2.9958,0.0,0.0,3.0528,0.0,0.0,3.1118,3.1983,0.0,3.373,3.461,3.5486,3.5991,3.5991,3.5991,3.5991,3.5991,3.5991,3.5991,3.5991,3.5991,3.5991,3.5991,3.5991,3.5991,3.5991,3.5991,3.5991,3.5994,3.6005,3.5991,3.601,0.0,3.6621,3.7305,3.7441,3.8008,3.8809,3.8809,3.9336,4.0098,4.0098,4.0566,4.1191,0.0,0.0,0.0,0.0,0.0,0.0,0.0,0.0,0.0,0.0,0.0,0.0,0.0,0.0,0.0,0.0,0.0,0.0,0.0,0.0,0.0,2.0143,2.1081,2.2153,2.3417,2.4514,2.5091,2.5152,2.5148,2.5239,2.5403,2.5476,2.5537,2.5613,2.5642,2.5634,2.5618,2.5673,2.5565,2.5353,0.0,0.0,0.0,0.0,0.0,0.0,0.0,0.0,0.0,0.0,2.4369,2.4116,2.378,0.0,0.0,0.0,0.0,0.0,2.8857,2.9117,2.9418,3.0041,3.02,3.0133,2.9927,0.0,0.0,0.0,0.0,0.0,0.0,0.0,3.0213,3.0507,0.0,3.0548,3.0613,3.0728,3.0938,0.0,0.0,3.3047,3.3908,3.4783,3.5486,3.5952,3.5991,3.5991,3.5991,3.5991,3.5991,3.5991,3.5991,3.5994,3.5999,3.5999,3.5996,3.5991,3.5996,3.5999,3.5999,3.5991,3.5993,3.5994,0.0,3.623,3.6601,3.6601,3.7109,3.7891,3.7891,3.8437,3.9258,3.9726,4.0156,4.0566,0.0,0.0,0.0,0.0,0.0,0.0,0.0,0.0,0.0,0.0,0.0,0.0,0.0,0.0,0.0,0.0,0.0,0.0,0.0,0.0,1.7621,1.9276,2.0258,2.1523,2.3141,2.4295,2.498,2.5199,2.5215,2.5332,2.5541,2.5584,2.5644,2.5698,2.5664,2.5663,2.5703,2.5642,2.5517,2.5367,0.0,0.0,0.0,0.0,0.0,0.0,0.0,0.0,0.0,0.0,0.0,0.0,0.0,0.0,0.0,2.5744,2.7159,2.8515,2.8907,2.9003,2.9194,3.0004,0.0,3.0133,2.9808,2.998,0.0,0.0,0.0,0.0,0.0,3.0466,0.0,3.0728,3.0665,3.06,3.0633,3.0734,3.0774,3.0729,3.1532,3.2441,3.3322,3.4198,3.5057,3.5932,3.5991,3.5991,3.5991,3.5991,3.5991,3.5991,3.5994,3.5999,3.6005,3.6005,3.6003,3.5999,3.6003,3.6005,3.6007,3.5993,3.5995,3.5995,3.5996,3.5996,3.5996,3.5996,3.6387,3.6992,3.6992,3.7539,3.8398,3.9277,3.9609,3.9726,0.0,0.0,0.0,0.0,0.0,0.0,0.0,0.0,0.0,0.0,0.0,0.0,0.0,0.0,0.0,0.0,0.0,0.0,0.0,0.0,1.6353,1.7977,1.8937,2.0421,2.2527,2.3448,2.4326,2.52,2.5265,2.5428,2.5685,2.5626,2.5642,2.5683,2.5566,2.5579,2.5687,2.5498,2.5337,2.5211,2.5224,0.0,0.0,0.0,0.0,0.0,0.0,0.0,0.0,0.0,0.0,0.0,0.0,0.0,2.4028,2.535,2.6212,2.7101,2.8594,2.8992,2.9195,2.9999,3.0254,0.0,3.0175,3.0167,0.0,3.0599,0.0,0.0,0.0,3.0554,3.0586,3.06,3.062,3.0639,3.0769,0.0,3.0806,3.0792,3.1577,3.2441,3.3322,3.4198,3.5057,3.5932,3.5991,3.5991,3.5991,3.5991,3.5991,3.5991,3.6001,3.6003,3.6005,3.6009,3.5991,3.601,3.5991,3.5991,3.5991,3.5994,3.5995,3.5995,3.5996,3.5996,3.5996,3.5996,3.6035,3.6094,3.6094,3.6621,3.75,3.8379,3.8691,3.8828,0.0,0.0,0.0,0.0,0.0,0.0,0.0,0.0,0.0,0.0,0.0,0.0,0.0,0.0,0.0,0.0,0.0,0.0,0.0,0.0,1.6136,1.7526,1.7839,1.8822,2.0593,2.2546,2.3861,2.4523,2.5034,2.5332,2.5383,2.5271,2.5275,2.5401,2.5286,2.5354,2.5503,2.5426,2.5321,2.5206,2.5197,2.5069,0.0,0.0,0.0,0.0,0.0,0.0,0.0,0.0,2.3526,2.3277,2.2825,2.3241,2.4035,2.4721,2.5672,2.6856,2.8539,2.8994,2.9194,3.0,3.0216,0.0,0.0,3.0385,3.0617,3.0771,3.0737,0.0,0.0,0.0,3.0714,3.0714,3.0714,3.0739,3.0799,3.0802,3.0791,3.0795,3.1093,3.1639,3.2502,3.3378,3.4256,3.5135,3.5681,3.5991,3.5991,3.5996,3.6001,3.6001,3.6005,3.601,3.5992,3.5993,3.5995,3.5995,3.5994,3.5994,3.5994,3.5995,3.5996,3.5996,3.5996,3.5996,3.5996,3.5996,3.5996,3.5996,3.5996,3.6191,3.6601,3.7461,3.7793,3.793,0.0,0.0,0.0,0.0,0.0,0.0,0.0,0.0,0.0,0.0,0.0,0.0,0.0,0.0,0.0,0.0,0.0,0.0,0.0,1.16,1.5107,1.612,1.639,1.7142,1.8513,2.0952,2.266,2.3586,2.4607,2.5119,2.513,2.5028,2.5039,2.5101,2.5034,2.5118,2.5267,2.5247,2.5215,2.5168,2.5168,2.5022,0.0,0.0,0.0,0.0,0.0,0.0,0.0,0.0,2.3265,2.3045,2.2649,2.3185,2.4138,2.4672,2.5797,2.7151,2.8617,2.9004,2.9206,0.0,0.0,0.0,3.0202,3.051,3.0789,3.0801,3.0801,0.0,0.0,0.0,0.0,0.0,3.0799,3.0804,3.0798,3.0801,3.0804,3.0799,3.0801,3.1148,3.2014,3.2636,3.3476,3.4608,3.5252,3.5701,3.5996,3.6001,3.6005,3.6007,3.5991,3.5993,3.5995,3.5995,3.5996,3.5996,3.5996,3.5995,3.5995,3.5996,3.5996,3.5996,3.5996,3.5996,3.5996,3.5996,3.5996,3.5996,3.5996,3.5996,3.6074,3.668,3.6894,3.7012,0.0,0.0,0.0,0.0,0.0,0.0,0.0,0.0,0.0,0.0,0.0,0.0,0.0,0.0,0.0,0.0,0.0,0.0,0.5131,0.986,1.2989,1.348,1.4454,1.5469,1.6459,1.8512,2.0562,2.2501,2.3964,2.4784,2.4985,2.4985,2.4952,2.4889,2.4834,2.4866,2.4985,2.493,2.4974,2.5111,2.5096,2.5103,2.508,0.0,0.0,0.0,0.0,0.0,0.0,0.0,2.3265,2.3045,2.2632,0.0,2.4305,2.5295,2.6645,2.7985,2.879,2.9025,0.0,0.0,0.0,0.0,3.0191,3.052,3.0806,3.0798,0.0,3.0799,3.0799,0.0,0.0,3.0799,3.0799,3.0793,3.0807,3.0794,3.0808,3.08,3.0799,3.1148,3.1995,3.209,3.2812,3.4549,3.4686,3.5079,3.5945,3.6005,3.6007,3.5991,3.5994,3.5995,3.5995,3.5996,3.5996,3.5996,3.5996,3.5996,3.5996,3.5996,3.5996,3.5996,3.5996,3.5996,3.5996,3.5996,3.5996,3.5996,3.5996,3.5996,3.5996,3.5996,3.5996,3.6113,0.0,0.0,0.0,0.0,0.0,0.0,0.0,0.0,0.0,0.0,0.0,0.0,0.0,0.0,0.0,0.0,0.0,0.0,0.0,0.856,1.2365,1.3106,1.3984,1.4741,1.5362,1.7675,2.017,2.2794,2.3409,2.4013,2.4595,2.4535,2.4529,2.4546,2.4535,2.4678,2.4911,2.4809,2.4896,2.5087,2.4888,2.4804,2.4808,0.0,0.0,0.0,0.0,0.0,0.0,0.0,0.0,0.0,2.285,0.0,2.4826,2.5764,2.7002,2.8294,2.9246,2.9735,0.0,3.0204,0.0,0.0,0.0,3.0617,0.0,0.0,3.0799,3.0799,3.0799,0.0,0.0,3.0799,3.0799,3.0793,3.0807,3.0804,3.0797,3.08,3.0795,3.0903,3.1153,3.1738,3.2304,3.2831,3.4003,3.4805,3.5066,3.5675,3.5991,3.5994,3.5996,3.5996,3.5996,3.5996,3.5996,3.5996,3.5996,3.5996,3.5996,3.5996,3.5996,3.5996,3.5996,3.5996,3.5996,3.5996,3.5996,3.5995,3.5996,3.5996,3.5996,3.5996,3.5995,3.6034,0.0,0.0,0.0,0.0,0.0,0.0,0.0,0.0,0.0,0.0,0.0,0.0,0.0,0.0,0.0,0.0,0.0,0.0,0.0,0.0,1.1908,1.2039,1.297,1.4083,1.5387,1.7055,1.9137,2.1667,2.2594,2.3436,2.4118,2.4229,2.421,2.4118,2.4247,2.4374,2.4522,2.4588,2.4731,2.4893,2.4734,2.4692,2.4692,0.0,0.0,0.0,0.0,0.0,0.0,0.0,0.0,0.0,2.285,0.0,2.5216,2.5825,2.7212,2.8687,2.9407,0.0,0.0,3.0189,3.0256,3.037,3.0567,0.0,0.0,0.0,0.0,3.0799,3.0799,3.0799,0.0,3.0799,3.0793,3.0798,3.0801,3.0796,3.0801,3.0796,3.0808,3.0801,3.0801,3.1289,3.1738,3.207,3.3068,3.3971,3.466,3.519,3.5642,3.5996,3.5996,3.5996,3.5996,3.5996,3.5996,3.5996,3.5996,3.5996,3.5996,3.5996,3.5996,3.5996,3.5996,3.5996,3.5996,3.5996,3.5996,3.5995,3.5995,3.5996,3.5996,3.5995,3.5994,3.5993,0.0,0.0,0.0,0.0,0.0,0.0,0.0,0.0,0.0,0.0,0.0,0.0,0.0,0.0,0.0,0.0,0.0,0.0,0.0,0.0,1.1024,1.0414,1.1664,1.3507,1.5912,1.658,1.7813,1.9715,2.1582,2.2901,2.3671,2.3976,2.3976,2.3714,2.3996,2.4036,2.3899,2.4284,2.4493,2.4556,2.4575,2.4626,2.466,2.4532,0.0,0.0,0.0,0.0,0.0,0.0,0.0,0.0,2.2807,2.3944,2.542,2.5717,2.7284,2.904,2.9383,0.0,0.0,3.0131,3.0343,0.0,3.0746,3.0806,3.0799,3.0799,0.0,3.0799,3.0799,3.0799,3.0804,3.0804,3.0794,3.0801,3.0796,3.0801,3.0797,3.0804,3.0801,3.0801,3.0801,3.0801,3.1133,3.1936,3.2055,3.2783,3.4389,3.4607,3.5058,3.5859,3.5957,3.5996,3.5996,3.5996,3.5996,3.5996,3.5996,3.5996,3.5996,3.5996,3.5996,3.5996,3.5996,3.5996,3.5995,3.5995,3.5995,3.5994,3.5992,3.5993,3.5995,3.5992,3.5991,3.5991,0.0,0.0,0.0,0.0,0.0,0.0,0.0,0.0,0.0,0.0,0.0,0.0,0.0,0.0,0.0,0.0,0.0,0.0,0.0,0.0,0.6369,0.8634,1.0941,1.2796,1.4132,1.6009,1.7657,1.903,2.0483,2.1993,2.3459,2.3482,2.3566,2.3692,2.3566,2.3592,2.3762,2.3941,2.4099,2.4228,2.4374,2.4446,2.4464,2.45,2.4411,0.0,0.0,0.0,0.0,0.0,0.0,0.0,2.3624,2.4396,2.5292,2.6331,2.7583,2.8727,2.9279,2.966,0.0,0.0,3.0222,3.0558,3.0755,3.0794,3.0799,3.0799,3.0799,3.0799,3.0799,3.0799,3.0793,3.0801,3.0807,3.0806,3.0801,3.08,3.0797,3.0804,3.0801,3.0801,3.0801,3.0801,3.0901,3.114,3.1745,3.2256,3.2635,3.3963,3.4784,3.4961,3.5644,3.5996,3.5996,3.5996,3.5996,3.5996,3.5996,3.5996,3.5996,3.5996,3.5996,3.5996,3.5996,3.5995,3.5992,3.5994,3.5993,3.6007,3.5991,3.5992,3.5992,3.6007,3.6005,3.6005,0.0,0.0,0.0,0.0,0.0,0.0,0.0,0.0,0.0,0.0,0.0,0.0,0.0,0.0,0.0,0.0,0.0,0.0,0.0,0.0,0.0,0.7843,0.9801,1.1543,1.3036,1.5318,1.6969,1.7991,1.9386,0.0,0.0,0.0,0.0,2.333,0.0,2.3397,2.3574,2.3756,2.3961,2.4155,2.4303,2.4339,2.4358,2.4465,2.4411,2.4284,2.4191,0.0,0.0,0.0,0.0,0.0,0.0,0.0,2.5404,2.6579,2.7738,2.873,2.9378,0.0,0.0,3.0125,0.0,3.0583,3.0764,3.0799,3.0799,3.0799,3.0799,3.0799,3.0799,3.0798,3.0794,3.0791,3.0808,3.0799,3.08,3.0796,3.079,3.0801,3.0801,3.0801,3.0801,3.0823,3.0864,3.0907,3.1282,3.1694,3.2089,3.2987,3.3867,3.4668,3.5137,3.5586,3.5996,3.5996,3.5996,3.5996,3.5996,3.5996,3.5996,3.5996,3.5996,3.5996,3.5996,3.5995,3.5991,3.5991,3.6009,3.6005,3.6003,3.6005,3.6007,3.6001,3.5999,3.5999,0.0,0.0,0.0,0.0,0.0,0.0,0.0,0.0,0.0,0.0,0.0,0.0,0.0,0.0,0.0,0.0,0.0,0.0,0.0,0.0,0.0,0.0,0.8419,1.0161,1.2211,1.4464,1.6137,1.7248,0.0,0.0,0.0,0.0,0.0,2.2721,0.0,2.3183,2.3277,2.3606,2.3858,2.4019,2.421,2.4266,2.4247,2.4375,2.4339,2.421,2.3978,2.3855,2.3689,2.3247,0.0,0.0,0.0,0.0,2.5717,2.6819,2.7857,2.879,2.9438,0.0,2.9927,3.0404,3.056,0.0,3.0769,3.0799,3.0799,3.0799,3.0799,3.0804,3.0789,3.0798,3.0796,3.0801,3.08,3.0799,3.0798,3.081,3.0801,3.0801,3.0801,3.0801,3.0801,3.0864,3.0907,3.0909,3.0895,3.119,3.1854,3.209,3.2832,3.4219,3.4394,3.4883,3.5762,3.5761,3.5839,3.5996,3.5996,3.5996,3.5996,3.5996,3.5996,3.5996,3.5995,3.5993,3.601,3.6005,3.6003,3.6001,3.5996,3.5996,3.6001,3.5996,3.5994,3.5996,0.0,0.0,0.0,0.0,0.0,0.0,0.0,0.0,0.0,0.0,0.0,0.0,0.0,0.0,0.0,0.0,0.0,0.0,0.0134,0.0,0.0,0.4423,0.6725,0.9037,1.131,1.3368,1.5533,1.7797,0.0,0.0,0.0,0.0,0.0,2.1973,0.0,0.0,2.2747,2.3248,2.3382,2.3301,2.3959,2.4115,2.3958,2.4036,2.4036,2.3917,2.3671,2.3405,2.3199,2.3126,2.3363,0.0,0.0,0.0,2.6212,2.7286,2.8058,2.8633,0.0,0.0,3.0348,0.0,3.0586,3.0633,0.0,0.0,3.0799,0.0,3.0799,3.0793,3.0801,3.0791,3.0804,3.0801,3.08,3.0797,3.0806,3.0801,3.0801,3.0801,3.0801,3.0801,3.0801,3.0864,3.0909,3.0894,3.0896,3.0956,3.1055,3.1777,3.2305,3.2539,3.3203,3.3984,3.4863,3.4816,3.5206,3.5996,3.5996,3.5995,3.5992,3.5992,3.5994,3.5995,3.5993,3.6009,3.6005,3.6005,3.6001,3.5994,3.5994,3.5994,3.5994,3.6001,3.6003,3.6005,0.0,0.0,0.0,0.0,0.0,0.0,0.0,0.0,0.0,0.0,0.0,0.0,0.0,0.0,0.0,-0.2901,-0.2588,-0.1739,0.0,0.0401,0.1592,0.4006,0.5586,0.7277,0.9191,1.1957,1.4229,0.0,0.0,0.0,0.0,1.9951,2.0895,0.0,0.0,0.0,0.0,2.3084,2.3212,2.3312,2.3837,2.3958,2.3912,0.0,0.0,0.0,0.0,0.0,2.4608,2.4296,2.4296,2.4626,2.5385,0.0,0.0,0.0,2.7974,0.0,2.925,2.9884,3.0344,0.0,3.0665,3.0734,3.0794,0.0,3.0799,3.0799,3.0799,3.0808,3.0802,3.0794,3.0793,3.08,3.0799,3.081,3.0801,3.0801,3.0801,3.0801,3.0801,3.0801,3.0845,3.0889,3.0894,3.0896,3.0898,3.0898,3.0898,3.1269,3.1699,3.2187,3.2517,3.3099,3.396,3.4384,3.5057,3.5935,3.5932,3.5956,3.5996,3.5992,3.601,3.5993,3.6009,3.6007,3.6003,3.5999,3.5996,3.5991,3.5991,3.5991,3.5994,3.5996,3.5999,3.5999,0.0,0.0,0.0,0.0,0.0,0.0,0.0,0.0,0.0,0.0,0.0,0.0,0.0,0.0,0.0,0.0,-0.3306,-0.2499,-0.058,-0.0358,0.0804,0.322,0.4405,0.5782,0.7401,1.0879,0.0,0.0,0.0,0.0,1.7271,1.889,2.0039,0.0,2.1907,0.0,0.0,0.0,0.0,0.0,0.0,0.0,0.0,0.0,0.0,0.0,0.0,0.0,0.0,0.0,0.0,0.0,2.6026,2.6308,0.0,0.0,0.0,0.0,0.0,0.0,3.0213,3.0466,3.0639,3.0764,0.0,0.0,3.0799,0.0,3.0799,3.0799,3.0799,3.0794,3.0797,3.0799,3.0797,3.0801,3.0801,3.0801,3.0801,3.0801,3.0821,3.0845,3.0907,3.0892,3.0896,3.0897,3.0898,3.0898,3.0898,3.0898,3.1191,3.1855,3.1811,3.2214,3.3068,3.409,3.4935,3.5563,3.5801,3.5953,3.5996,3.601,3.6003,3.6007,3.6003,3.6001,3.6001,3.5994,3.5991,3.5991,3.5991,3.5991,3.5994,3.5994,3.5996,3.5996,0.0,0.0,0.0,0.0,0.0,0.0,0.0,0.0,0.0,0.0,0.0,0.0,0.0,-0.453,-0.4355,-0.3741,-0.3483,-0.322,-0.2776,-0.1655,-0.0454,0.0844,0.2881,0.0,0.673,1.0612,0.0,0.0,0.0,0.0,1.7034,1.7944,1.8883,1.9856,2.1622,2.2405,2.246,0.0,0.0,0.0,0.0,0.0,0.0,0.0,0.0,0.0,0.0,0.0,0.0,0.0,0.0,0.0,0.0,0.0,0.0,0.0,0.0,0.0,0.0,2.9753,0.0,3.0259,0.0,0.0,0.0,0.0,0.0,3.0799,3.0799,3.0799,3.0799,3.0794,3.0799,3.08,3.0792,3.0801,3.0801,3.0801,3.0801,3.0801,3.0864,3.0907,3.0907,3.0895,3.0897,3.0897,3.0898,3.0898,3.0898,3.0898,3.0918,3.0976,3.0957,3.1345,3.2168,3.3785,3.4616,3.4683,3.5577,3.5995,3.5996,3.5994,3.5994,3.5994,3.5994,3.5994,3.5994,3.5994,3.5991,3.5991,3.5991,3.5991,3.5994,3.6001,3.6003,3.6005,0.0,0.0,0.0,0.0,0.0,0.0,0.0,0.0,0.0,0.0,0.0,0.0,0.0,-0.4052,-0.3917,-0.37,-0.3435,-0.2765,-0.1561,-0.1373,-0.0557,0.1069,0.2425,0.4682,0.7973,1.0403,0.0,0.0,0.0,1.6025,1.6522,1.7599,1.8697,1.9767,2.1116,2.1953,2.2439,2.3093,0.0,0.0,0.0,0.0,0.0,0.0,0.0,0.0,0.0,0.0,0.0,0.0,0.0,0.0,0.0,0.0,0.0,0.0,0.0,0.0,0.0,0.0,0.0,3.0148,3.0327,3.0455,3.0633,3.0739,3.0799,3.0799,3.0799,3.0799,3.0799,3.0794,3.0797,3.08,3.0796,3.0801,3.0801,3.0801,3.0821,3.0864,3.0886,3.0909,3.0895,3.0897,3.0897,3.0898,3.0898,3.0898,3.0898,3.0898,3.0898,3.0898,3.0856,3.1206,3.1963,3.2606,3.3463,3.453,3.4927,3.539,3.5934,3.5982,3.5991,3.5991,3.5991,3.5991,3.5991,3.5991,3.5991,3.5991,3.5991,3.5991,3.5994,3.5996,3.5996,3.5999,0.0,0.0,0.0,0.0,0.0,0.0,0.0,0.0,0.0,0.0,0.0,0.0,0.0,0.0,-0.329,-0.3158,-0.3161,-0.2688,-0.1594,-0.1748,-0.0675,0.2028,0.3814,0.6674,1.0805,1.1064,0.0,0.0,0.0,0.0,0.0,1.6902,1.8018,1.9551,2.059,2.1678,0.0,0.0,0.0,2.4459,0.0,0.0,2.6688,0.0,0.0,0.0,0.0,0.0,0.0,0.0,0.0,0.0,0.0,0.0,0.0,0.0,0.0,0.0,2.9217,0.0,0.0,0.0,0.0,3.0237,3.0449,0.0,3.0716,3.0764,3.0769,3.0769,3.0799,3.0807,3.0792,3.0796,3.0798,3.0801,3.0801,3.0801,3.0823,3.0888,3.0909,3.0892,3.0897,3.0897,3.0898,3.0898,3.0898,0.0,3.0898,3.0898,3.0898,3.0898,3.0831,3.1038,3.1534,3.1846,3.258,3.37,3.4328,3.4941,3.5506,3.5845,3.5991,3.5991,3.5991,3.5991,3.5991,3.5991,3.5991,3.5991,3.5991,3.5994,3.5996,3.5996,3.5996,3.5999,0.0,0.0,0.0,0.0,0.0,0.0,0.0,0.0,0.0,0.0,0.0,0.0,0.0,0.0,0.0,-0.2006,-0.2643,-0.3044,-0.3103,-0.2952,-0.0962,0.3365,0.6892,1.0775,1.4956,1.2525,0.0,0.0,0.0,0.0,0.0,0.0,1.6933,1.9163,2.0147,2.1642,2.346,0.0,2.4364,2.5729,0.0,2.6953,2.8049,0.0,0.0,0.0,2.9551,2.9438,0.0,2.9221,0.0,0.0,0.0,0.0,0.0,0.0,0.0,0.0,0.0,0.0,0.0,0.0,0.0,0.0,3.0252,0.0,3.0532,3.0665,3.0703,3.0728,3.0794,3.079,3.0799,3.0793,3.0799,3.0801,3.0801,3.0801,3.0823,3.0888,3.0892,3.0895,3.0897,3.0898,3.0898,3.0898,3.0898,3.0898,3.0898,3.0898,3.0898,3.0898,3.0832,3.0804,3.079,3.1571,3.2012,3.2128,3.3808,3.4645,3.4725,3.5584,3.5971,3.5991,3.5991,3.5991,3.5991,3.5991,3.5991,3.5991,3.5991,3.5996,3.6003,3.6003,3.6003,3.6005,0.0,0.0,0.0,0.0,0.0,0.0,0.0,0.0,0.0,0.0,0.0,0.0,0.0,0.0,-0.0423,-0.1353,-0.1518,-0.128,-0.064,-0.2034,-0.1086,0.2911,0.635,1.0001,1.3906,1.2664,0.0,0.0,0.0,0.0,0.0,0.0,0.0,0.0,2.0059,2.1786,2.4431,2.4595,0.0,0.0,2.7174,2.7922,0.0,0.0,0.0,0.0,0.0,2.9823,2.9439,0.0,2.9364,2.8851,0.0,0.0,0.0,0.0,0.0,0.0,2.9079,0.0,0.0,0.0,0.0,0.0,0.0,0.0,0.0,3.0532,3.062,3.0716,3.0724,3.072,3.0735,3.0724,3.0769,3.0801,3.08,3.0799,3.0818,3.0896,3.0896,3.0897,3.0898,3.0898,3.0898,0.0,3.0898,3.0898,3.0898,3.0898,3.0898,3.0898,3.0879,3.0857,3.079,3.1073,3.1504,3.2109,3.2594,3.3483,3.4705,3.4959,3.5408,3.5991,3.5991,3.5991,3.5991,3.5991,3.5991,3.5991,3.5991,3.5994,3.5996,3.5996,3.5996,3.5996,0.0,0.0,0.0,0.0,0.0,0.0,0.0,0.0,0.0,0.0,0.0,0.0,0.0,0.0,0.0,-0.035,-0.1269,-0.1535,-0.102,-0.0472,0.1276,0.4516,0.829,1.0959,1.2406,1.2669,0.0,0.0,0.0,0.0,0.0,0.0,0.0,0.0,0.0,0.0,0.0,0.0,0.0,0.0,2.7763,0.0,0.0,2.9476,2.9855,0.0,0.0,0.0,2.9586,3.0004,2.9756,0.0,0.0,0.0,0.0,0.0,0.0,0.0,0.0,0.0,0.0,0.0,0.0,0.0,3.0018,3.0158,3.0252,0.0,3.0481,3.0552,3.0614,3.0625,3.0633,3.0697,3.073,3.0768,3.0753,3.0754,3.0774,3.0814,3.0838,3.0858,3.0856,3.0878,3.0898,3.0898,3.0898,3.0898,3.0898,3.0898,3.0898,3.0898,3.0898,3.0879,3.0839,3.0877,3.1128,3.1561,3.1923,3.2636,3.3632,3.4374,3.4979,3.5486,3.5837,3.5991,3.5991,3.5991,3.5991,3.5991,3.5991,3.5994,3.5999,3.5999,3.5999,3.5999,0.0,0.0,0.0,0.0,0.0,0.0,0.0,0.0,0.0,0.0,0.0,0.0,0.0,0.0,0.0,0.0,-0.0992,-0.2177,-0.2165,0.1675,0.5074,0.7484,1.1153,1.2474,1.1064,1.2616,0.0,0.0,0.0,0.0,0.0,0.0,0.0,0.0,0.0,0.0,0.0,0.0,0.0,2.6886,2.8022,2.8366,0.0,0.0,2.9803,2.9713,2.9956,2.9901,2.9765,3.0138,3.0042,0.0,0.0,0.0,0.0,0.0,2.8767,0.0,0.0,0.0,0.0,0.0,0.0,0.0,2.9836,2.995,3.0085,0.0,3.0294,3.034,3.0453,3.0472,3.0509,3.0634,3.0668,3.0672,3.0704,3.0693,3.0693,3.0704,3.0755,3.0808,3.0801,3.0857,3.0898,3.0898,3.0898,3.0898,3.0898,3.0898,3.0898,3.0898,3.0898,3.0898,3.0895,3.0894,3.085,3.0821,3.1582,3.2012,3.2148,3.369,3.451,3.4744,3.5525,3.5916,3.5991,3.5991,3.5991,3.5991,3.5991,3.5996,3.6003,3.6003,3.6003,3.6003,0.0,0.0,0.0,0.0,0.0,0.0,0.0,0.0,0.0,0.0,0.0,0.0,0.0,0.0,0.0,0.0,0.2305,0.2358,0.2356,0.4903,0.7626,1.0386,1.0416,1.1001,1.2386,1.252,0.0,0.0,0.0,0.0,0.0,0.0,0.0,0.0,0.0,0.0,0.0,0.0,0.0,2.749,2.8022,0.0,2.8565,2.9532,3.0007,3.0177,3.0351,3.0372,3.0298,3.0113,2.992,2.9678,0.0,0.0,0.0,0.0,0.0,0.0,0.0,0.0,0.0,0.0,0.0,0.0,2.957,2.9676,2.9772,0.0,3.0228,3.0314,3.0328,3.0336,3.0348,3.0359,3.0409,3.051,3.0684,3.07,3.0711,3.0691,3.0765,3.0801,3.0801,3.0857,3.0898,3.0898,3.0898,3.0898,3.0898,3.0898,3.0898,3.0898,3.0897,3.0896,3.0897,3.085,3.0845,3.0886,3.0999,3.1426,3.2109,3.2441,3.3378,3.4705,3.4881,3.5349,3.5991,3.5991,3.5991,3.5991,3.5991,3.5994,3.5994,3.5994,3.5994,3.5994,0.0,0.0,0.0,0.0,0.0,0.0,0.0,0.0,0.0,0.0,0.0,0.0,0.0,0.0,0.0,0.0,0.0,0.0,0.0,0.0,0.8858,1.0385,1.1242,1.2182,1.3283,1.38,0.0,0.0,0.0,0.0,0.0,0.0,0.0,0.0,0.0,0.0,0.0,0.0,2.5955,2.7009,2.7906,0.0,2.9078,2.9777,3.0118,3.0279,3.0442,3.0509,3.0507,3.0206,3.0027,0.0,0.0,2.9551,2.9378,0.0,2.8979,2.8979,0.0,0.0,0.0,2.8975,0.0,0.0,0.0,2.9438,2.9495,2.968,2.9763,2.9807,2.9842,2.9962,3.0056,3.0095,3.0235,3.0394,3.0482,3.0582,3.0649,3.0651,3.0675,3.0715,3.0758,3.0806,3.0857,3.0898,3.0898,3.0898,3.0898,3.0898,3.0898,3.0898,3.0898,3.0897,3.0897,3.0873,3.0868,3.0907,3.0823,3.1036,3.1465,3.1895,3.2578,3.3437,3.3866,3.4549,3.5349,3.5352,3.5608,3.5999,3.5994,3.5991,3.5991,3.5991,3.5991,3.5991,0.1597,0.0,0.0,0.0,0.0,0.0,0.0,0.0,0.0,0.0,0.0,0.0,0.0,0.0,0.0,0.0,0.0,0.0,0.0,0.0,0.0,1.0236,1.2588,1.3906,1.4059,1.5404,1.6327,0.0,0.0,0.0,0.0,0.0,0.0,0.0,0.0,0.0,0.0,0.0,0.0,2.6828,0.0,2.8669,2.9251,2.9804,3.0071,3.0188,3.0423,3.0552,3.0564,3.0306,3.0164,3.0084,2.9901,2.9744,0.0,0.0,0.0,0.0,0.0,0.0,0.0,0.0,0.0,2.9126,0.0,0.0,0.0,2.9251,2.9272,0.0,0.0,0.0,0.0,0.0,0.0,0.0,0.0,3.0371,0.0,3.055,3.0579,3.062,3.0672,3.0735,3.0804,3.0878,3.0878,3.0898,3.0898,3.0898,3.0898,3.0898,3.0898,3.0898,3.0897,3.0895,3.0891,3.0886,3.0823,3.0801,3.0821,3.1524,3.1934,3.2148,3.2831,3.3632,3.4452,3.4634,3.5105,3.5769,3.5938,3.5994,3.5994,3.5994,3.5991,3.5991,0.343,0.1884,0.0,0.0,0.0,0.0,0.0,0.0,0.0,0.0,0.0,0.0,0.0,0.0,0.0,0.0,0.0,0.0,1.1099,0.0,0.0,0.0,1.3549,1.4336,1.4925,1.6161,1.7135,1.7837,0.0,0.0,0.0,0.0,0.0,0.0,2.3754,0.0,0.0,0.0,2.7169,0.0,2.8291,2.8202,0.0,2.9074,2.9612,2.9989,3.0423,3.0583,3.0574,0.0,3.0054,2.9758,0.0,2.9695,2.9622,2.9277,0.0,0.0,0.0,0.0,0.0,0.0,2.8565,0.0,0.0,0.0,2.8842,2.9064,0.0,0.0,0.0,0.0,0.0,0.0,0.0,0.0,2.9532,2.9969,3.0355,3.0417,3.0527,3.06,3.0607,3.0667,3.0735,3.0804,3.0804,3.0832,3.0898,3.0898,3.0898,3.0898,3.0898,3.0897,3.0895,3.0891,3.0866,3.0801,3.0801,3.0801,3.0801,3.0899,3.1368,3.2109,3.2207,3.2734,3.3612,3.4381,3.4754,3.4929,3.5691,3.6003,3.6003,3.5996,3.5991,3.5991,0.4224,0.3477,0.0,0.0,0.0,0.0,0.0,0.0,0.0,0.0,0.0,0.0,0.0,0.0,0.0,0.0,0.0,1.4109,0.0,0.0,0.0,0.0,0.0,0.0,1.655,1.8207,1.9201,1.9509,2.0327,0.0,0.0,0.0,0.0,0.0,2.4601,0.0,2.6602,0.0,2.7439,0.0,0.0,0.0,0.0,2.9502,3.0081,3.0334,3.049,3.0579,3.0661,0.0,3.0279,0.0,0.0,0.0,0.0,0.0,0.0,0.0,0.0,0.0,0.0,0.0,0.0,0.0,2.8713,0.0,2.8576,0.0,0.0,0.0,0.0,0.0,0.0,0.0,2.9196,0.0,0.0,0.0,2.9823,0.0,0.0,0.0,3.0477,3.0607,3.0715,3.0735,3.078,3.0829,3.0898,3.0898,3.0898,3.0898,3.0897,3.0895,3.0895,3.0891,3.0888,3.0864,3.0821,3.0801,3.0801,3.0801,3.0997,3.1348,3.1348,3.1838,3.266,3.3037,3.349,3.4038,3.4915,3.5558,3.6003,3.5996,3.5991,3.5991,0.4569,0.0,0.0,0.0,0.0,0.0,0.0,0.0,0.0,0.0,0.0,0.0,0.4702,0.5408,0.0,0.0,1.9252,2.0214,0.0,0.0,1.6563,0.0,0.0,0.0,0.0,0.0,2.0852,2.0959,2.1417,0.0,0.0,0.0,0.0,0.0,0.0,2.6413,2.7288,0.0,0.0,2.8257,2.8026,2.8375,2.9099,2.995,3.0413,3.0565,3.051,3.0574,3.0649,3.0607,3.0393,0.0,3.0321,0.0,0.0,0.0,0.0,0.0,2.9228,0.0,0.0,0.0,0.0,0.0,0.0,0.0,0.0,0.0,0.0,0.0,0.0,0.0,0.0,0.0,0.0,2.8975,0.0,2.9135,0.0,0.0,0.0,0.0,0.0,3.0496,3.0614,3.0633,3.0708,3.0774,3.0876,3.0897,3.0897,3.0897,3.0895,3.0894,3.0892,3.0909,3.0888,3.0866,3.0823,3.0801,3.0801,3.0801,3.0801,3.0801,3.0801,3.1175,3.1786,3.2005,3.2477,3.3123,3.3999,3.4738,3.5359,3.5821,3.5991,3.5991,0.4501,0.4732,0.0,0.0,0.0,0.0,0.0,0.0,0.0,0.0,0.0,0.0,0.0,0.0,0.0,0.0,0.0,2.4929,2.2443,0.0,2.1072,0.0,0.0,2.0536,0.0,0.0,2.1547,2.1969,2.2123,2.2417,0.0,0.0,0.0,0.0,0.0,2.6564,2.7081,2.7972,2.8779,2.9452,2.9382,2.9822,3.0482,0.0,3.0227,3.0501,3.0501,0.0,0.0,3.0374,3.0177,0.0,0.0,0.0,0.0,0.0,0.0,0.0,0.0,0.0,0.0,2.8682,0.0,0.0,0.0,0.0,2.8543,0.0,0.0,0.0,0.0,0.0,0.0,0.0,0.0,0.0,0.0,0.0,0.0,0.0,0.0,0.0,0.0,3.0305,3.0364,3.0498,3.0571,3.065,3.0791,3.087,3.0895,3.0895,3.0895,3.0892,3.0907,3.0907,3.0866,3.0801,3.0801,3.0801,3.0801,3.0801,3.0801,3.0801,3.0801,3.0843,3.1005,3.1788,3.2121,3.2223,3.3096,3.3465,3.3697,3.5369,3.5991,3.5991,0.0,0.0,0.0,0.0,0.0,0.0,0.0,0.5132,0.0,0.0,0.0,0.0,0.0,1.1706,1.5707,0.0,0.0,2.5314,2.3218,2.3084,0.0,0.0,0.0,2.2676,0.0,0.0,2.3391,2.3508,2.3551,2.3653,0.0,0.0,0.0,0.0,0.0,2.6632,0.0,0.0,0.0,0.0,0.0,2.9975,3.0325,0.0,3.043,3.0558,3.0521,3.0501,0.0,3.0511,3.0367,3.0209,3.0352,3.0216,3.0032,3.015,3.0089,0.0,0.0,0.0,2.9905,2.9418,0.0,0.0,0.0,0.0,0.0,0.0,0.0,0.0,0.0,0.0,0.0,0.0,0.0,0.0,0.0,0.0,0.0,0.0,0.0,0.0,0.0,0.0,3.0297,3.0424,3.0535,3.0639,3.0723,3.0765,3.0816,3.0909,3.0868,3.0825,3.0823,3.0823,3.0823,3.0801,3.0801,3.0801,3.0801,3.0801,3.0801,3.0801,3.0801,3.0843,3.0927,3.1181,3.1301,3.1382,3.2217,3.2545,3.2741,3.4493,3.5135,3.5213,0.6668,0.0,0.0,0.0,0.0,0.0,0.0,0.0,0.0,0.0,1.0452,0.0,1.4854,0.0,1.9651,0.0,2.6419,2.6362,2.5152,2.5346,0.0,2.5877,2.5159,0.0,0.0,0.0,0.0,2.4713,2.443,2.4302,0.0,0.0,0.0,0.0,0.0,2.6609,2.7655,0.0,2.895,0.0,0.0,3.0151,0.0,0.0,3.0491,3.0462,0.0,3.0491,3.052,3.0559,3.049,3.0386,3.052,3.0394,3.0209,3.0352,3.0304,3.0163,3.0109,3.0209,0.0,2.9804,2.9699,0.0,2.9285,0.0,0.0,0.0,0.0,0.0,0.0,0.0,0.0,0.0,0.0,0.0,0.0,2.8466,0.0,0.0,0.0,0.0,0.0,0.0,3.015,3.0275,3.0443,3.056,3.0656,3.0687,3.0732,3.0833,3.0819,3.0801,3.0801,3.0801,3.0801,3.0801,3.0801,3.0801,3.0801,3.0801,3.0801,3.0801,3.0801,3.0843,3.0907,3.0866,3.0888,3.0951,3.1433,3.1645,3.186,3.3593,3.4432,3.4822,0.0,0.0,0.0,0.0,0.5428,0.0,0.0,0.0,0.9207,0.0,1.3275,1.5724,1.7552,2.0106,2.3297,2.7278,2.7944,2.8182,2.8174,2.8088,0.0,0.0,2.7985,2.7707,2.8515,0.0,0.0,0.0,2.4768,2.4385,2.4385,0.0,0.0,0.0,2.5497,0.0,2.8003,2.8148,2.9083,3.0509,3.0439,3.0409,3.0409,3.0472,3.0392,3.0241,3.043,3.0491,3.0491,3.0501,3.0501,3.0491,3.0501,3.05,3.0509,3.0579,3.0559,3.0471,3.034,3.0297,3.0215,2.9822,2.9737,0.0,0.0,0.0,2.9498,0.0,0.0,0.0,0.0,0.0,0.0,0.0,0.0,0.0,0.0,0.0,0.0,0.0,0.0,0.0,0.0,2.9699,2.9937,3.0075,3.0278,3.0452,0.0,3.0665,3.0682,3.0687,3.0765,3.0799,3.0799,3.0799,3.0801,3.0801,3.0801,3.0801,3.0801,3.0801,3.0801,3.0801,3.0801,3.0843,3.0888,3.0823,3.0843,3.0888,3.0823,3.0801,3.1016,3.2714,3.3905,3.4822,0.8055,0.7705,0.7433,0.0,0.712,0.7136,0.0,0.0,0.0,0.0,1.6681,1.9625,2.2128,2.3808,2.5597,2.7626,2.8416,0.0,0.0,0.0,0.0,2.9956,2.8616,2.8196,2.8989,2.7405,0.0,2.6463,0.0,0.0,2.5294,0.0,0.0,0.0,0.0,0.0,2.8027,2.8291,2.9265,3.0577,3.0563,3.0498,3.0405,0.0,3.0479,3.0365,3.052,3.0511,3.043,3.0549,3.053,3.05,3.0558,3.055,3.0509,3.0519,3.0519,3.049,3.0458,3.0482,3.0472,3.0205,3.0171,3.0173,0.0,0.0,0.0,0.0,0.0,0.0,0.0,0.0,0.0,0.0,0.0,0.0,0.0,0.0,0.0,2.8797,0.0,0.0,2.9249,2.9513,2.9767,3.0011,3.0122,3.0271,3.0501,0.0,3.0564,3.062,3.0682,3.0728,3.0728,3.0771,3.0801,3.0801,3.0801,3.0801,3.0801,3.0801,3.0801,3.0801,3.0801,3.0801,3.0823,3.0801,3.0801,3.0823,3.0801,3.0801,3.0938,3.2031,3.3398,3.4725,0.9023,0.0,0.0,0.8926,0.0,0.0,1.0378,1.1527,0.0,1.6478,1.9058,0.0,2.3709,2.5544,2.7096,2.829,2.8891,0.0,2.9565,0.0,0.0,2.9899,2.9355,2.9265,2.9699,2.8522,0.0,2.7493,0.0,0.0,2.577,0.0,0.0,0.0,0.0,2.6554,0.0,2.8688,2.9573,3.0433,3.0548,3.0545,0.0,3.0594,3.0581,3.0494,3.0598,3.0607,3.0548,3.0626,3.0593,3.055,3.0595,3.0521,3.0466,3.0499,3.0469,3.0469,3.0499,3.0558,3.0576,3.0502,3.0529,3.0528,3.0323,3.0272,3.0266,0.0,3.0079,3.0017,0.0,0.0,0.0,0.0,0.0,0.0,0.0,0.0,0.0,0.0,2.9156,0.0,2.9289,2.9493,2.9716,2.9934,2.9977,3.0136,0.0,0.0,3.0424,3.056,3.0645,3.0711,3.0711,3.0768,3.0801,3.0801,3.0801,3.0801,3.0801,3.0801,3.0801,3.0801,3.0801,3.0801,3.0801,3.0801,3.0801,3.0801,3.0801,3.0801,3.086,3.1348,3.2383,3.3612,0.0,0.0,0.0,0.0,0.0,0.0,0.0,1.3991,0.0,1.9083,0.0,2.2812,2.4147,2.6333,2.8049,2.8904,0.0,2.955,2.9451,2.9975,3.0079,2.9592,3.0107,3.0436,3.0436,2.9661,2.8969,0.0,0.0,0.0,0.0,0.0,0.0,0.0,0.0,0.0,0.0,2.9155,2.9922,3.0293,3.0537,3.062,3.0626,3.0682,3.0691,3.0626,3.0682,3.0706,3.0691,3.0704,3.0656,3.0593,3.0593,3.0511,3.0414,3.0477,3.0447,3.0417,3.0469,3.0539,3.0605,3.067,3.0751,3.0777,3.0583,3.055,3.0536,3.0477,3.0259,3.0179,0.0,0.0,0.0,0.0,0.0,0.0,0.0,0.0,0.0,0.0,0.0,0.0,0.0,2.9512,2.9644,2.9855,2.9853,3.0011,0.0,0.0,3.0271,3.0472,3.0607,3.0672,3.0701,3.0742,3.0796,3.0801,3.0801,3.0801,3.0801,3.0801,3.0801,3.0801,3.0801,3.0801,3.0801,3.0801,3.0801,3.0801,3.0801,3.0801,3.0801,3.0801,3.1289,3.2051,0.0,0.0,0.0,0.0,0.0,1.6636,1.8616,1.9989,2.1197,2.2201,2.4717,2.655,2.6811,2.7993,2.8805,2.8975,2.9616,0.0,0.0,0.0,0.0,3.0385,3.0498,3.056,3.0559,2.9832,2.9132,0.0,0.0,0.0,0.0,0.0,0.0,0.0,0.0,0.0,2.8734,2.9478,0.0,3.0631,3.0728,3.0765,3.0765,3.0771,3.0788,3.0778,3.0771,3.0711,3.0626,3.0681,3.0658,3.0598,3.0598,3.0554,3.0472,3.0425,3.0421,3.039,3.0402,3.0519,3.0601,3.0613,3.0758,3.0875,3.0834,3.0832,3.0808,3.0742,3.0656,3.0529,3.0384,0.0,0.0,0.0,0.0,0.0,0.0,0.0,0.0,0.0,0.0,2.9531,0.0,0.0,2.9511,2.9644,2.9662,2.9801,0.0,0.0,3.0216,0.0,3.0492,0.0,0.0,0.0,3.0755,3.0801,3.0801,3.0801,3.0801,3.0801,3.0801,3.0801,3.0801,3.0801,3.0801,3.0801,3.0801,3.0801,3.0801,3.0801,3.0801,3.0801,3.0899,3.1153,0.0,0.0,0.0,0.0,0.0,0.0,0.0,2.4147,2.5209,2.4478,2.5392,2.6404,2.7144,2.8227,2.9094,2.9578,2.9965,3.0235,3.0428,3.046,3.0492,3.061,3.0603,3.0605,3.0607,3.024,2.9715,2.897,0.0,0.0,0.0,0.0,0.0,0.0,0.0,2.7972,0.0,0.0,0.0,3.0567,3.0723,3.0799,3.0796,3.0796,3.0794,3.0794,3.0796,3.0758,3.0711,3.0735,3.0711,3.065,3.065,3.0571,3.0492,3.0451,3.0436,3.0421,3.0439,3.0516,3.0613,3.0642,3.0788,3.0896,3.0896,3.0896,3.0873,3.0768,3.0701,3.0552,3.0244,3.0089,0.0,0.0,0.0,0.0,0.0,0.0,0.0,0.0,0.0,0.0,0.0,0.0,0.0,0.0,0.0,0.0,0.0,0.0,3.0196,0.0,0.0,0.0,3.0593,0.0,3.0732,3.0801,3.0801,3.0801,3.0801,3.0801,3.0801,3.0801,3.0801,3.0801,3.0801,3.0801,3.0801,3.0801,3.0801,3.0801,3.0801,3.0801,3.0801,3.086,0.0,1.415,0.0,0.0,1.9975,0.0,2.457,2.6848,2.7807,2.647,2.5976,2.6195,2.7407,2.8482,2.9401,3.0171,3.0248,3.0333,3.053,3.0586,3.0602,3.0649,3.0646,3.0652,3.0664,3.0652,3.026,0.0,0.0,0.0,0.0,0.0,0.0,0.0,0.0,0.0,0.0,0.0,3.0128,3.049,3.0719,3.0796,3.0791,3.0791,3.0791,3.0791,3.0794,3.0796,3.0799,3.0799,3.0765,3.0724,3.0691,3.0614,3.0528,3.0501,3.0441,3.0414,3.0472,3.0548,3.0613,3.0687,3.0794,3.0894,3.0894,3.0894,3.087,3.0762,3.0672,3.0502,3.0151,3.0136,0.0,0.0,0.0,0.0,0.0,0.0,0.0,0.0,0.0,0.0,2.9681,0.0,0.0,0.0,0.0,0.0,3.0299,0.0,0.0,0.0,0.0,3.0519,3.0591,0.0,3.0706,3.0771,3.0771,3.0796,3.0801,3.0801,3.0801,3.0801,3.0801,3.0801,3.0801,3.0801,3.0801,3.0801,3.0801,3.0801,3.0801,3.0801,3.0801,3.0801,0.0,0.0,0.0,0.0,0.0,0.0,2.5843,2.7633,2.8737,2.8293,2.8604,2.8994,2.9326,2.9794,3.0126,3.0274,3.0402,3.0519,3.0658,3.0637,3.0639,3.0778,3.0774,3.0801,3.0862,3.0755,3.0426,0.0,0.0,2.8489,0.0,0.0,0.0,0.0,0.0,0.0,0.0,2.9873,3.0236,3.0765,3.0791,3.0807,3.0801,3.081,3.0807,3.0801,3.0796,3.0796,3.0794,3.0799,3.0799,3.0774,3.0724,3.0645,3.0591,3.0528,3.0441,3.0414,3.0472,3.0552,3.0614,3.0677,3.0807,3.0909,3.0909,3.0909,3.0907,3.0886,3.073,3.0505,3.0151,3.0254,3.0273,0.0,0.0,0.0,0.0,0.0,2.995,3.0066,0.0,0.0,0.0,2.9716,2.968,0.0,2.9608,0.0,0.0,0.0,0.0,3.0398,3.041,3.0439,3.051,3.0519,3.0571,3.0715,3.0715,3.0735,3.0801,3.0801,3.0801,3.0801,3.0801,3.0801,3.0801,3.0801,3.0801,3.0801,3.0801,3.0801,3.0801,3.0801,3.0801,3.0801,0.0,0.0,0.0,0.0,0.0,0.0,0.0,2.8967,2.9531,2.9517,2.954,2.9677,3.003,3.0229,3.0375,3.0524,3.0579,3.0637,3.0691,3.0703,3.0725,3.0747,3.0785,3.0816,3.0843,3.0794,3.0585,0.0,0.0,0.0,0.0,0.0,0.0,0.0,0.0,2.9691,3.0217,3.0367,3.057,3.0804,3.0804,3.0798,3.081,3.0801,3.0801,3.0801,3.0794,3.0796,3.0799,3.0799,3.0801,3.0799,3.0768,3.072,3.0645,3.0571,3.0519,3.0482,3.0543,3.0571,3.062,3.0728,3.0796,3.0843,3.0843,3.0843,3.0821,3.0785,3.0652,3.0482,3.0316,3.0355,3.0355,3.0234,0.0,0.0,0.0,0.0,0.0,0.0,0.0,3.0161,0.0,2.9867,2.982,2.9886,0.0,0.0,0.0,0.0,0.0,3.0398,0.0,3.0428,3.0501,3.0501,3.0552,3.0639,3.0677,3.072,3.0735,3.0774,3.0801,3.0801,3.0801,3.0801,3.0801,3.0801,3.0801,3.0801,3.0801,3.0801,3.0801,3.0801,3.0801,3.0801,2.3613,0.0,2.4495,0.0,2.7292,2.7925,2.9599,2.9971,3.012,3.0318,3.0147,3.0125,3.046,3.0488,3.0548,3.0716,3.0704,3.071,3.0769,3.0769,3.0763,3.0751,3.0791,0.0,3.0801,3.0801,3.0719,3.0522,2.9916,0.0,0.0,0.0,0.0,0.0,2.992,3.0214,3.0523,3.0728,3.0804,3.0794,3.0794,3.081,3.0802,3.0794,3.0801,3.0804,3.0794,3.0796,3.0801,3.0801,3.0801,3.0799,3.0771,3.0724,3.0656,3.0586,3.0535,3.05,3.0571,3.0614,3.065,3.0768,3.0801,3.0801,3.0801,3.0801,3.0771,3.0701,3.0571,3.0482,3.0402,3.0398,3.0367,3.0311,0.0,0.0,0.0,3.0311,0.0,0.0,3.0311,3.0254,3.0122,3.0007,2.9965,0.0,0.0,0.0,0.0,0.0,0.0,0.0,0.0,0.0,3.0472,3.0472,3.0501,3.0576,3.0614,3.065,3.0667,3.072,3.0758,3.0768,3.0768,3.0774,3.0801,3.0801,3.0801,3.0801,3.0801,3.0801,3.0801,3.0801,3.0801,3.0801,2.6676,2.6921,2.7565,2.9512,2.9749,2.9855,3.0395,3.0438,3.0462,3.0672,3.07,3.0682,3.0698,3.0691,3.0722,3.0798,3.0734,3.0769,3.0884,3.0778,3.0751,0.0,0.0,3.0801,3.0801,3.0801,3.0801,3.0799,0.0,0.0,2.9883,0.0,2.964,2.9912,3.0236,3.0535,3.0791,3.0801,3.0794,3.0802,3.0802,3.0802,3.0802,3.0794,3.0804,3.0794,3.0799,3.0801,3.0801,3.0801,3.0801,3.0796,3.0724,3.065,3.0579,3.0509,3.0501,3.05,3.0571,3.0645,3.072,3.0774,3.0801,3.0801,3.0801,3.0801,3.0765,3.0626,3.0552,3.0482,3.0402,3.0398,3.0323,3.0136,0.0,0.0,0.0,0.0,0.0,3.0089,3.0089,3.0089,3.0109,3.0109,0.0,0.0,0.0,0.0,0.0,0.0,0.0,3.0398,3.0398,0.0,3.041,3.041,3.0428,3.0501,3.0501,3.0535,3.0593,3.06,3.0639,3.0691,3.0691,3.0732,3.0801,3.0801,3.0801,3.0801,3.0801,3.0801,3.0801,3.0801,3.0801,3.0801,2.8839,2.8998,2.9334,3.0213,3.0327,3.0369,3.0535,3.0542,3.0568,3.0696,3.0696,3.072,3.0751,3.0774,3.0778,0.0,3.0781,3.0785,0.0,3.0794,3.0794,3.0823,3.0814,3.0795,3.0801,3.0795,3.0795,3.0801,0.0,0.0,0.0,3.0153,3.0261,3.0521,3.0628,3.072,3.0794,3.0798,3.0806,3.0808,3.0806,3.081,3.0802,3.0801,3.0791,3.0794,3.0799,3.0801,3.0801,3.0801,3.0801,3.0796,3.0724,3.0697,3.0645,3.0527,3.0527,3.0564,3.0586,3.0645,3.072,3.0774,3.0801,3.0796,3.0735,3.0656,3.0571,3.0535,3.0482,3.0436,3.039,3.0398,3.0367,3.0311,3.0355,0.0,3.0311,0.0,3.0311,3.0311,3.0311,3.0311,3.0311,3.0182,0.0,0.0,0.0,0.0,0.0,0.0,0.0,0.0,3.0398,0.0,3.0398,3.0398,3.0402,3.0428,3.0482,3.0535,3.0593,3.0645,3.0672,3.0691,3.0758,3.0774,3.0801,3.0801,3.0801,3.0801,3.0801,3.0801,3.0801,3.0801,3.0801,3.0801,3.0124,3.0218,3.0336,3.0583,3.0645,3.0643,3.0638,3.0665,3.0707,3.0768,3.0755,3.0743,3.0792,3.0806,0.0,3.0801,3.0801,3.0801,3.0801,3.0801,3.0801,3.0801,3.0793,3.0797,3.0793,3.08,0.0,3.0793,3.0622,3.0559,3.0559,3.0559,3.0633,3.0796,3.0794,3.0807,3.0794,3.0798,3.079,3.0798,3.0806,3.0794,3.0794,3.0804,3.0791,3.0796,3.0799,3.0801,3.0801,3.0801,3.0801,3.0774,3.0682,3.0661,3.0639,3.0527,3.0552,3.0593,3.0593,3.0661,3.0758,3.0796,3.0774,3.0735,3.0672,3.0591,3.0501,3.0501,3.0449,3.0398,3.0398,3.0398,3.0398,3.0398,3.0398,3.0398,3.0398,0.0,3.0367,0.0,0.0,0.0,0.0,3.0241,3.0215,0.0,0.0,0.0,0.0,0.0,0.0,3.0398,3.0398,3.0398,3.0398,3.0398,3.0398,3.041,3.0439,3.0472,3.0537,3.0576,3.0593,3.0626,3.0661,3.0706,3.0724,3.0724,3.0732,3.0765,3.0765,3.0771,3.0801,3.0801,3.0801,3.0801,3.0613,3.0652,3.0711,0.0,3.0708,0.0,3.071,3.0761,3.0814,3.0878,3.082,3.08,3.0801,3.0796,3.0806,3.0806,0.0,0.0,0.0,3.0804,3.0804,3.0801,3.0801,3.0792,3.0801,3.0801,3.0801,3.0801,3.0792,3.0801,3.0801,3.0801,3.0801,3.0799,3.0794,3.0794,3.0791,3.0804,3.0798,3.0798,3.081,3.0798,3.0791,3.0804,3.0807,3.0799,3.0799,3.0801,3.0801,3.0801,3.0799,3.0768,3.0645,3.0593,3.0571,3.0519,3.0535,3.0586,3.0593,3.0682,3.0799,3.0799,3.0732,3.0667,3.0607,3.0543,3.0492,3.0492,3.0449,3.0398,3.0398,3.0398,3.0398,3.0398,3.0398,3.0398,3.0398,3.0398,3.0323,0.0,0.0,0.0,3.0136,3.0299,3.0398,0.0,0.0,0.0,0.0,0.0,3.0194,3.0398,3.0398,3.0398,3.0398,3.0398,3.0398,3.0398,3.0398,3.0398,3.0398,3.039,3.0439,3.0501,3.051,3.0543,3.0593,3.0593,3.0639,3.0711,3.0711,3.0735,3.0801,3.0801,3.0801,3.0801,0.0,0.0,3.0785,3.0778,3.0779,3.0778,3.078,3.0745,3.0723,3.076,3.0723,3.0745,3.0788,3.0793,3.0795,3.0795,3.0801,3.08,3.08,3.08,3.0817,3.0866,3.0836,3.0818,3.0873,3.0839,3.08,3.081,3.0804,3.0801,3.0801,3.0801,3.0799,3.0794,3.0794,3.0807,3.0801,3.0807,3.0804,3.0798,3.081,3.0807,3.0801,3.0807,3.0791,3.0794,3.0794,3.0796,3.0801,3.0801,3.0768,3.072,3.0697,3.06,3.0519,3.0449,3.0472,3.0535,3.0598,3.0656,3.0724,3.0724,3.0633,3.056,3.0586,3.051,3.0425,3.0425,3.0402,3.0398,3.0398,3.0398,3.0398,3.0398,3.0398,3.0398,3.0398,3.0398,3.0379,0.0,3.0367,3.0367,3.0323,3.0367,3.0379,0.0,0.0,0.0,3.0316,3.0279,3.0299,3.0398,3.0398,3.0398,3.0398,3.0398,3.0398,3.0398,3.0398,3.0398,3.041,3.0441,3.0472,3.0501,3.056,3.0598,3.0593,3.0593,3.0639,3.0711,3.0711,3.0735,3.0801,3.0801,3.0801,3.0801,3.0742,3.0801,3.0852,3.0847,3.082,3.0804,3.0795,3.0739,3.0706,3.0742,3.0716,3.0712,3.0758,3.0774,3.0791,3.0754,3.0771,3.08,3.0797,3.08,3.082,3.0859,3.0798,3.0798,3.0859,3.0818,3.08,3.0795,3.0806,3.0801,3.0801,3.0801,3.0799,3.0796,3.0796,3.0794,3.081,3.0794,3.0794,3.0804,3.081,3.0807,3.0798,3.0804,3.0807,3.0791,3.0762,3.0768,3.0799,3.0765,3.0728,3.0687,3.0661,3.0571,3.0492,3.0471,3.0492,3.056,3.0586,3.0667,3.0728,3.0667,3.0583,3.0501,3.051,3.0441,3.0398,3.0398,3.0398,3.0398,3.0398,3.0398,3.0398,3.0398,3.0398,3.0398,3.0398,3.0398,3.0398,3.0398,3.0398,3.0398,3.0398,3.0398,3.0379,3.0348,3.0348,0.0,3.0304,3.0304,3.0336,3.0398,3.0367,3.0348,3.0348,3.0348,3.0348,3.0348,3.0398,3.0398,3.041,3.0439,3.0441,3.0471,3.0492,3.051,3.051,3.051,3.0552,3.0607,3.0639,3.0706,3.0762,3.0796,3.0801,3.0801,3.0813,3.0858,3.0879,3.0878,3.0834,3.0777,3.0774,3.0735,3.0716,3.079,3.0745,3.07,3.0711,3.0747,3.0763,3.0697,3.0746,3.0775,3.0774,3.0788,3.0771,3.078,3.0735,3.0735,3.0799,3.0804,3.0793,3.08,3.0793,3.0801,3.0806,3.0801,3.0801,3.0801,3.0799,3.0799,3.0799,3.0799,3.0796,3.0791,3.0801,3.0798,3.0798,3.0798,3.0801,3.0788,3.0715,3.0747,3.0771,3.0715,3.0672,3.0656,3.06,3.0535,3.0472,3.0472,3.0535,3.06,3.0607,3.0701,3.0735,3.0639,3.0552,3.0472,3.0436,3.0421,3.0398,3.0398,3.0398,3.0398,3.0398,3.0398,3.0398,3.0398,3.0379,3.0398,3.0398,0.0,3.0398,3.0398,3.0398,3.0398,3.0398,3.0398,3.0398,3.0398,3.0398,3.0367,3.0304,3.0304,3.0323,3.0386,3.0336,3.0304,3.0304,3.0304,3.0304,3.0304,3.0367,3.0398,3.0398,3.0398,3.0398,3.0398,3.0398,3.0398,3.0398,3.0398,3.0439,3.051,3.0564,3.0639,3.0715,3.0771,3.0801,3.0801,3.0813,3.0808,3.0829,3.0818,3.0755,3.0714,3.0726,3.0652,3.0634,3.071,3.071,3.071,3.0704,3.0717,3.0711,3.0707,3.0714,3.0711,3.0721,3.0716,3.0711,3.0723,3.071,3.0735,3.0794,3.0796,3.0798,3.0806,3.0798,3.079,3.08,3.081,3.0801,3.0801,3.0796,3.0794,3.0794,3.0804,3.0801,3.0801,3.0798,3.0794,3.0802,3.0802,3.079,3.0798,3.0711,3.0711,3.0711,3.0633,3.0591,3.0527,3.0528,3.0472,3.0414,3.0414,3.0501,3.0607,3.0667,3.0656,3.0639,3.0691,3.0552,3.0436,3.0482,3.0439,3.0398,3.0398,3.0398,3.0398,3.0398,3.0398,3.0379,3.0316,3.0348,3.0379,3.0316,0.0,3.0398,3.0398,3.0398,3.0398,3.0398,3.0348,3.0336,3.0398,3.0349,3.0318,3.0304,3.0299,3.0305,3.0324,3.0305,3.0305,3.0305,3.0292,3.0304,3.0304,3.0367,3.0398,3.0398,3.0398,3.0398,3.0398,3.0398,3.0398,3.0398,3.0398,3.0439,3.051,3.0564,3.0639,3.0715,3.0771,3.0801,3.0801,3.0765,3.0774,3.0784,3.0757,3.0726,3.0697,3.0706,3.0632,3.0618,3.0695,3.0707,3.07,3.0695,3.0695,3.0688,3.0645,3.0656,3.0658,3.0658,3.0685,3.0703,3.0709,3.0695,3.0716,3.0747,3.0775,3.08,3.0796,3.08,3.0796,3.0795,3.0806,3.0801,3.0801,3.0799,3.0796,3.0794,3.0807,3.0801,3.081,3.081,3.0802,3.0793,3.0798,3.0774,3.074,3.07,3.067,3.0639,3.0607,3.056,3.0501,3.0501,3.0441,3.0414,3.0501,3.0552,3.062,3.0724,3.0672,3.06,3.0639,3.0509,3.0421,3.0439,3.0425,3.0398,3.0398,3.0398,3.0398,3.0398,3.0398,3.0398,3.0367,3.0379,0.0,3.0367,3.0379,3.0398,3.0398,3.0398,3.0398,3.0348,3.0316,3.0304,3.033,3.0324,3.0292,3.0241,3.0247,3.0253,3.0259,3.0253,3.0253,3.0253,3.0273,3.0311,3.0304,3.0367,3.0398,3.0398,3.0398,3.0398,3.0398,3.0398,3.0398,3.0398,3.0398,3.0414,3.0441,3.0528,3.0598,3.065,3.0724,3.0768,3.0801,3.0682,3.0728,3.0742,3.0715,3.0695,3.0685,3.0709,3.0651,3.0634,3.069,3.069,3.071,3.069,3.0703,3.0676,3.0622,3.0599,3.061,3.0614,3.0678,3.0704,3.07,3.0703,3.071,3.072,3.0774,3.0801,3.08,3.0801,3.0797,3.0808,3.0804,3.0801,3.0801,3.0796,3.0794,3.081,3.0804,3.0794,3.0798,3.0798,3.0789,3.0799,3.076,3.0725,3.0697,3.0646,3.062,3.0564,3.056,3.0528,3.0482,3.0482,3.0439,3.0425,3.0543,3.0579,3.062,3.0724,3.0681,3.0583,3.0583,3.0501,3.0398,3.0398,3.0398,3.0398,3.0398,3.0398,3.0398,3.0398,3.0398,3.0379,3.0379,0.0,3.0398,3.0386,3.0386,3.0367,3.0386,3.0386,3.0355,3.0292,3.0292,3.0267,3.0292,3.0299,3.0253,3.0188,3.0207,3.0194,3.0204,3.0213,3.0207,3.0207,3.0253,3.0273,3.0292,3.0355,3.0386,3.0379,3.0386,3.0386,3.0386,3.0386,3.0386,3.0379,3.0379,3.0398,3.0421,3.0472,3.0543,3.0607,3.0691,3.0735,3.0801,3.062,3.0607,3.062,3.0684,3.0651,3.0634,3.069,3.069,3.069,3.069,3.0697,3.0706,3.0697,3.0695,3.0703,3.0695,3.0644,3.0642,3.0691,3.0695,3.0697,3.07,3.0697,3.0739,3.0796,3.0798,3.0799,3.0804,3.0799,3.0793,3.0801,3.079,3.0801,3.0799,3.0807,3.0801,3.0798,3.0798,3.0804,3.0804,3.0804,3.0804,3.0794,3.0665,3.0639,3.0685,3.05,3.0463,3.0492,3.0428,3.0402,3.0421,3.0421,3.039,3.0414,3.0501,3.0552,3.06,3.0607,3.0568,3.051,3.051,3.0441,3.0398,3.0398,3.0398,3.0398,3.0398,3.0398,3.0398,3.0398,3.0398,3.0379,3.0316,0.0,0.0,3.0324,3.0311,3.0311,3.0305,3.0312,3.0312,3.0292,3.0247,3.0234,3.0312,3.0226,3.0213,3.0207,3.0199,3.0185,3.0204,3.0185,3.0185,3.0185,3.0207,3.0234,3.0292,3.0312,3.0318,3.0304,3.0318,3.0312,3.0312,3.0312,3.0318,3.0304,3.0304,3.0348,3.0421,3.0472,3.0543,3.0607,3.0691,3.0735,3.0801,3.0614,3.0637,3.0658,3.0649,3.0618,3.061,3.0626,3.0634,3.0656,3.0697,3.0709,3.0706,3.0704,3.07,3.0696,3.0704,3.0687,3.0667,3.0704,3.0735,3.0751,3.0754,3.0755,3.0767,3.0801,3.0798,3.08,3.0798,3.08,3.0796,3.081,3.0801,3.0794,3.0807,3.0801,3.0794,3.0806,3.0798,3.0808,3.0799,3.0799,3.0799,3.0794,3.0659,3.0579,3.0576,3.049,3.0423,3.0378,3.0439,3.0436,3.0398,3.0398,3.0398,3.039,3.0417,3.0492,3.0527,3.0501,3.0501,3.0501,3.0501,3.046,3.0398,3.0398,3.0398,3.0398,3.0398,3.0367,3.0348,3.0379,3.0367,3.0348,3.0367,0.0,3.0336,3.0311,3.0299,3.0305,3.0292,3.0292,3.0279,3.0234,3.0221,3.0207,3.0245,3.0199,3.0199,3.0199,3.0199,3.0204,3.0204,3.0204,3.0199,3.0194,3.0207,3.0234,3.0292,3.0292,3.0292,3.0286,3.0292,3.0292,3.0292,3.0292,3.0292,3.0299,3.0299,3.0318,3.0343,3.0411,3.0491,3.0603,3.0678,3.0735,3.0807,3.0604,3.0637,3.0661,3.0613,3.0593,3.0602,3.0602,3.0626,3.0651,3.0695,3.0721,3.0728,3.0735,3.071,3.0707,3.0721,3.071,3.071,3.0728,3.0775,3.0796,3.0792,3.08,3.08,3.0798,3.0801,3.0799,3.0799,3.0798,3.0792,3.0794,3.081,3.0804,3.0798,3.0794,3.081,3.0802,3.0798,3.0779,3.0739,3.0739,3.0739,3.0728,3.0583,3.0516,3.049,3.0453,3.0389,3.0297,3.0398,3.0425,3.0398,3.0398,3.0414,3.0428,3.0428,3.0462,3.0482,3.0449,3.046,3.0472,3.0472,3.0428,3.0398,3.0398,3.0398,3.0379,3.0379,3.0336,3.0304,3.0355,3.0336,3.0323,3.0355,3.0336,3.0304,3.0279,3.0273,3.0266,3.0266,3.0272,3.0253,3.0194,3.0194,3.0213,3.0204,3.0204,3.0204,3.0204,3.0204,3.0204,3.0204,3.0204,3.0199,3.0194,3.0194,3.0221,3.0266,3.0266,3.0266,3.0266,3.0266,3.0272,3.0272,3.0272,3.0266,3.0266,3.0266,3.0279,3.0305,3.0378,3.0482,3.0618,3.0678,3.074,3.0798,3.0595,3.0597,3.0597,3.0593,3.0593,3.0604,3.0602,3.0658,3.0703,3.0703,3.0768,3.0797,3.0799,3.0743,3.0721,3.0781,3.0746,3.0735,3.0801,3.0793,3.079,3.0801,3.0801,3.0799,3.0801,3.0801,3.0801,3.0801,3.0796,3.0794,3.0794,3.0801,3.0798,3.0798,3.0806,3.0802,3.0802,3.0804,3.0709,3.0593,3.0593,3.0593,3.0598,3.0452,3.0452,3.0481,3.0359,3.0299,3.0304,3.0304,3.0348,3.0398,3.0398,3.0449,3.0501,3.0501,3.0501,3.0501,3.0501,3.046,3.0398,3.0398,3.0398,3.0398,3.0398,3.0398,3.0379,3.0316,3.0304,3.0292,3.0292,3.0299,3.0292,3.0292,3.0299,3.0279,3.0202,3.0188,3.0194,3.0199,3.0204,3.0204,3.0204,3.0204,3.0204,3.0204,3.0204,3.0204,3.0204,3.0204,3.0204,3.0204,3.0204,3.0204,3.0204,3.0204,3.0199,3.0207,3.0199,3.0199,3.0207,3.0199,3.0204,3.0204,3.0204,3.0199,3.0207,3.0207,3.0234,3.0305,3.0378,3.0482,3.0618,3.0678,3.074,3.0798,3.0595,3.0597,3.0607,3.0604,3.0606,3.0597,3.0604,3.063,3.0652,3.0682,3.0755,3.0817,3.0878,3.0859,3.0839,3.0792,3.0779,3.078,3.0792,3.0804,3.0801,3.0806,3.081,3.0806,3.0796,3.0796,3.0794,3.0804,3.0754,3.075,3.079,3.0755,3.075,3.0793,3.0808,3.0808,3.0784,3.0703,3.0659,3.0665,3.0571,3.0563,3.0591,3.0451,3.0411,3.0423,3.0336,3.0299,3.0304,3.0304,3.0348,3.0398,3.0398,3.0414,3.0436,3.0436,3.0436,3.0436,3.0436,3.0414,3.0398,3.0398,3.0398,3.0398,3.0398,3.0348,3.0316,3.0304,3.0267,3.0228,3.0292,3.026,3.0247,3.0292,3.026,3.0215,3.0188,3.0194,3.0199,3.0204,3.0204,3.0204,3.0204,3.0204,3.0204,3.0204,3.0204,3.0204,3.0204,3.0204,3.0204,3.0204,3.0204,3.0204,3.0204,3.0204,3.0199,3.0199,3.0199,3.0199,3.0199,3.0199,3.0204,3.0204,3.0204,3.0199,3.0199,3.0199,3.0247,3.0309,3.0432,3.0518,3.0605,3.0728,3.0779,3.0793,3.0595,3.0597,3.0607,3.0595,3.0597,3.0597,3.0591,3.062,3.0661,3.0719,3.079,3.0859,3.0894,3.0874,3.0832,3.0801,3.0801,3.0801,3.0801,3.0788,3.0755,3.0751,3.0715,3.0724,3.0807,3.0774,3.0763,3.0754,3.0671,3.0652,3.0678,3.0678,3.0665,3.0672,3.0716,3.0716,3.0685,3.0583,3.0552,3.0518,3.0443,3.0462,3.0501,3.0406,3.0386,3.0392,3.0316,3.0311,3.0304,3.0304,3.0348,3.0398,3.0398,3.0398,3.0398,3.0398,3.0398,3.0398,3.0398,3.0398,3.0398,3.0398,3.0398,3.0379,3.0367,3.0336,3.0304,3.0267,3.0228,3.0221,3.0253,3.024,3.0221,3.0253,3.024,3.0207,3.0194,3.0199,3.0204,3.0204,3.0204,3.0204,3.0204,3.0204,3.0204,3.0204,3.0204,3.0204,3.0204,3.0204,3.0204,3.0204,3.0204,3.0204,3.0204,3.0204,3.0204,3.0204,3.0204,3.0204,3.0204,3.0204,3.0204,3.0204,3.0204,3.0204,3.0204,3.0204,3.0221,3.0292,3.0442,3.0518,3.0576,3.0734,3.0799,3.0799,3.0586,3.0606,3.0597,3.0604,3.0595,3.0613,3.0613,3.0661,3.0735,3.0788,3.0859,3.0892,3.0907,3.0837,3.0799,3.0804,3.0801,3.0801,3.0801,3.0743,3.0711,3.0706,3.0574,3.0607,3.0763,3.07,3.0671,3.0691,3.056,3.049,3.0498,3.0548,3.0552,3.0501,3.0548,3.056,3.0501,3.0492,3.0432,3.0302,3.029,3.0333,3.0375,3.0318,3.0328,3.0381,3.0321,3.0304,3.0304,3.0304,3.0348,3.0398,3.0398,3.0398,3.0398,3.0398,3.0398,3.0398,3.0398,3.0398,3.0398,3.0379,3.0398,3.0379,3.0316,3.0304,3.0279,3.0202,3.0207,3.0194,3.0199,3.0213,3.0194,3.0199,3.0213,3.0194,3.0199,3.0204,3.0204,3.0204,3.0204,3.0204,3.0204,3.0204,3.0204,3.0204,3.0204,3.0204,3.0204,3.0204,3.0204,3.0204,3.0204,3.0204,3.0204,3.0204,3.0204,3.0204,3.0204,3.0204,3.0204,3.0204,3.0204,3.0204,3.0204,3.0204,3.0204,3.0199,3.0213,3.0253,3.0432,3.0519,3.0546,3.0722,3.0799,3.0799,3.0607,3.0602,3.061,3.0598,3.0639,3.0681,3.0682,3.0742,3.0786,3.0795,3.0859,3.0909,3.0907,3.0849,3.0806,3.0801,3.0801,3.0801,3.0801,3.0791,3.0743,3.0689,3.0665,3.0625,3.0579,3.056,3.0543,3.0546,3.0413,3.0402,3.051,3.0423,3.0404,3.0501,3.0519,3.05,3.0492,3.0381,3.0367,3.0375,3.0273,3.0247,3.0318,3.0247,3.026,3.0311,3.0304,3.0304,3.0304,3.0367,3.0398,3.0398,3.0398,3.0398,3.0398,3.0398,3.0398,3.0398,3.0398,3.0398,3.0398,3.0316,3.0316,3.0316,3.0304,3.0267,3.0215,3.0188,3.0194,3.0199,3.0204,3.0199,3.0199,3.0204,3.0199,3.0199,3.0204,3.0204,3.0204,3.0204,3.0204,3.0204,3.0204,3.0204,3.0204,3.0204,3.0204,3.0204,3.0204,3.0204,3.0204,3.0204,3.0204,3.0204,3.0204,3.0204,3.0204,3.0204,3.0204,3.0204,3.0204,3.0204,3.0204,3.0204,3.0204,3.0204,3.0199,3.0267,3.0344,3.0442,3.0552,3.0646,3.0748,3.0774,3.0799,3.0799,3.0598,3.0599,3.0593,3.0593,3.0656,3.0704,3.0749,3.0786,3.0817,3.084,3.0874,3.0888,3.0864,3.0823,3.0801,3.0801,3.0768,3.0758,3.0751,3.0661,3.0593,3.0563,3.0501,3.0422,3.0364,3.0356,3.037,3.0402,3.0297,3.0292,3.0364,3.0333,3.0314,3.0364,3.04,3.0389,3.0352,3.0292,3.0267,3.0299,3.0226,3.0213,3.0253,3.0221,3.0234,3.0292,3.0299,3.0299,3.0311,3.0406,3.0414,3.0367,3.0398,3.0398,3.0379,3.0367,3.0379,3.0379,3.0367,3.0348,3.0348,3.0316,3.0279,3.0254,3.0254,3.0215,3.0207,3.0194,3.0199,3.0204,3.0204,3.0204,3.0204,3.0204,3.0204,3.0204,3.0204,3.0204,3.0204,3.0204,3.0204,3.0204,3.0204,3.0204,3.0204,3.0204,3.0204,3.0204,3.0204,3.0204,3.0204,3.0204,3.0204,3.0204,3.0204,3.0204,3.0204,3.0204,3.0204,3.0204,3.0204,3.0204,3.0204,3.0204,3.0204,3.0204,3.0199,3.0247,3.0309,3.0413,3.0518,3.0605,3.0709,3.0774,3.0799,3.0799,3.0598,3.0599,3.0626,3.0614,3.0677,3.0749,3.0813,3.0818,3.082,3.0889,3.0886,3.0864,3.0801,3.0796,3.0774,3.0774,3.072,3.0686,3.0675,3.0516,3.0402,3.0398,3.0286,3.0213,3.0204,3.0204,3.0221,3.0278,3.0221,3.0204,3.0185,3.0267,3.0254,3.0199,3.0267,3.0254,3.0204,3.0204,3.0199,3.0226,3.0226,3.0234,3.0254,3.0228,3.026,3.0305,3.0318,3.0318,3.0323,3.0428,3.0394,3.0304,3.0367,3.0386,3.0367,3.0323,3.0336,3.0367,3.0323,3.0292,3.0292,3.0292,3.0241,3.0207,3.0207,3.0207,3.0194,3.0199,3.0204,3.0204,3.0204,3.0204,3.0204,3.0204,3.0204,3.0204,3.0204,3.0204,3.0204,3.0204,3.0204,3.0204,3.0204,3.0204,3.0204,3.0204,3.0204,3.0204,3.0204,3.0204,3.0204,3.0204,3.0204,3.0204,3.0204,3.0204,3.0204,3.0204,3.0204,3.0204,3.0204,3.0204,3.0204,3.0204,3.0204,3.0199,3.0226,3.0234,3.0285,3.0362,3.051,3.0595,3.0659,3.0764,3.0799,3.0799,3.0607,3.0642,3.0689,3.0687,3.0735,3.0818,3.0875,3.0892,3.087,3.0823,3.0801,3.0801,3.0801,3.0758,3.072,3.072,3.0652,3.0598,3.0618,3.0524,3.0463,3.0398,3.0333,3.0267,3.0185,3.0204,3.0199,3.0213,3.0199,3.0204,3.0204,3.0213,3.0213,3.0204,3.0213,3.0213,3.0204,3.0204,3.0234,3.0297,3.0297,3.0367,3.0452,3.0325,3.029,3.0321,3.0364,3.0398,3.0389,3.0336,3.0318,3.0292,3.0305,3.0305,3.0305,3.0305,3.0305,3.0305,3.0305,3.0292,3.0292,3.0234,3.0221,3.0207,3.0199,3.0199,3.0199,3.0204,3.0204,3.0204,3.0204,3.0204,3.0204,3.0204,3.0204,3.0204,3.0204,3.0204,3.0204,3.0204,3.0204,3.0204,3.0204,3.0204,3.0204,3.0204,3.0204,3.0204,3.0204,3.0204,3.0204,3.0204,3.0204,3.0204,3.0204,3.0204,3.0204,3.0204,3.0204,3.0204,3.0204,3.0204,3.0204,3.0204,3.0204,3.0234,3.0309,3.0422,3.05,3.0571,3.0716,3.0764,3.0769,3.0799,3.0799,3.0799,3.0649,3.0684,3.0704,3.0757,3.0772,3.082,3.0891,3.0866,3.0823,3.0801,3.0801,3.0801,3.0801,3.0735,3.0677,3.0652,3.0587,3.053,3.0492,3.0381,3.0321,3.0286,3.0273,3.0234,3.0204,3.0204,3.0204,3.0204,3.0204,3.0204,3.0204,3.0204,3.0207,3.0267,3.0267,3.0304,3.0375,3.0375,3.0378,3.0402,3.0402,3.0402,3.0381,3.0325,3.0285,3.0254,3.0321,3.0309,3.0292,3.0348,3.0299,3.0247,3.0279,3.0292,3.0292,3.0266,3.0266,3.0279,3.0247,3.0234,3.0234,3.0221,3.0194,3.0166,3.0049,3.0034,3.0034,3.0034,3.0034,3.0034,3.0034,3.0034,3.0064,3.0171,3.0204,3.0204,3.0204,3.0204,3.0204,3.0204,3.0204,3.0204,3.0204,3.0204,3.0204,3.0204,3.0204,3.0204,3.0204,3.0204,3.0204,3.0204,3.0204,3.0204,3.0204,3.0204,3.0204,3.0204,3.0204,3.0204,3.0204,3.0204,3.0207,3.0267,3.0267,3.0321,3.0413,3.0482,3.0535,3.062,3.0665,3.0734,3.0799,3.0799,3.0799,3.0799]}]]